[[{"header":{"parameterUnit":"m.s-1","parameterCategory":1,"la1":31.0,"la2":29.5877,"lo1":-88.7671,"lo2":-86.6584,"dy":0.0162,"dx":0.0185,"nx":115,"ny":88,"refTime":"2023-06-07T06:00:00:Z","depth":0,"parameterNumber":2,"parameterNumberName":"U-component_of_WINDS"},"data":[0.0,0.0,0.0,0.0,0.0,0.0,0.0,0.0,0.0,0.0,0.0,0.0,0.0,0.0,0.0,0.0,0.0,0.0,0.0,0.0,0.0,0.0,0.0,0.0,0.0,0.0,0.0,0.0,0.0,0.0,0.0,0.0,0.0,0.0,0.0,0.0,0.0,0.0,0.0,0.0,0.0,0.0,0.0,0.0,0.0,0.0,0.0,0.0,0.0,0.0,0.0,0.0,0.0,0.0,0.0,0.0,0.0,0.0,0.0,0.0,0.0,0.0,0.0,0.0,0.0,0.0,0.0,0.0,0.0,0.0,0.0,0.0,0.0,0.0,0.0,0.0,0.0,0.0,0.0,0.0,0.0,0.0,0.0,0.0,0.0,0.0,0.0,0.0,0.0,0.0,0.0,0.0,0.0,0.0,0.0,0.0,0.0,0.0,0.0,0.0,0.0,0.0,0.0,0.0,0.0,0.0,0.0,0.0,0.0,0.0,0.0,0.0,0.0,0.0,0.0,0.0,0.0,0.0,0.0,0.0,0.0,0.0,0.0,0.0,0.0,0.0,0.0,0.0,0.0,0.0,0.0,0.0,0.0,0.0,0.0,0.0,0.0,0.0,0.0,0.0,0.0,0.0,0.0,0.0,0.0,0.0,0.0,0.0,0.0,0.0,0.0,0.0,0.0,0.0,0.0,0.0,0.0,0.0,0.0,0.0,0.0,0.0,0.0,0.0,0.0,0.0,0.0,0.0,0.0,0.0,0.0,0.0,0.0,0.0,0.0,0.0,0.0,0.0,0.0,0.0,0.0,0.0,0.0,0.0,0.0,0.0,0.0,0.0,0.0,0.0,0.0,0.0,0.0,0.0,0.0,0.0,0.0,0.0,0.0,0.0,0.0,0.0,0.0,0.0,0.0,0.0,0.0,0.0,0.0,0.0,0.0,0.0,0.0,0.0,0.0,0.0,0.0,0.0,0.0,0.0,0.0,0.0,0.0,0.0,0.0,0.0,0.0,0.0,0.0,0.0,0.0,0.0,0.0,0.0,0.0,0.0,0.0,0.0,0.0,0.0,0.0,0.0,0.0,0.0,0.0,0.0,0.0,0.0,0.0,0.0,0.0,0.0,0.0,0.0,0.0,0.0,0.0,0.0,0.0,0.0,0.0,0.0,0.0,0.0,0.0,0.0,0.0,0.0,0.0,0.0,0.0,0.0,0.0,0.0,0.0,0.0,0.0,0.0,0.0,0.0,0.0,0.0,0.0,0.0,0.0,0.0,0.0,0.0,0.0,0.0,0.0,0.0,0.0,0.0,0.0,0.0,0.0,0.0,0.0,0.0,0.0,0.0,0.0,0.0,0.0,0.0,0.0,0.0,0.0,0.0,0.0,0.0,0.0,0.0,0.0,0.0,0.0,0.0,0.0,0.0,0.0,0.0,0.0,0.0,0.0,0.0,0.0,0.0,0.0,0.0,0.0,0.0,0.0,0.0,0.0,0.0,0.0,0.0,0.0,0.0,0.0,0.0,0.0,0.0,0.0,0.0,0.0,0.0,0.0,0.0,0.0,0.0,0.0,0.0,0.0,0.0,0.0,0.0,0.0,0.0,0.0,0.0,0.0,0.0,0.0,0.0,0.0,0.0,0.0,0.0,0.0,0.0,0.0,0.0,0.0,0.0,0.0,0.0,0.0,0.0,0.0,0.0,0.0,0.0,0.0,0.0,0.0,0.0,0.0,0.0,0.0,0.0,0.0,0.0,0.0,0.0,0.0,0.0,0.0,0.0,0.0,0.0,0.0,0.0,0.0,0.0,0.0,0.0,0.0,0.0,0.0,0.0,0.0,0.0,0.0,0.0,0.0,0.0,0.0,0.0,0.0,0.0,0.0,0.0,0.0,0.0,0.0,0.0,0.0,0.0,0.0,0.0,0.0,0.0,0.0,0.0,0.0,0.0,0.0,0.0,0.0,0.0,0.0,0.0,0.0,0.0,0.0,0.0,0.0,0.0,0.0,0.0,0.0,0.0,0.0,0.0,0.0,0.0,0.0,0.0,0.0,0.0,0.0,0.0,0.0,0.0,0.0,0.0,0.0,0.0,0.0,0.0,0.0,0.0,0.0,0.0,0.0,0.0,0.0,0.0,0.0,0.0,0.0,0.0,0.0,0.0,0.0,0.0,0.0,0.0,0.0,0.0,0.0,0.0,0.0,0.0,0.0,0.0,0.0,0.0,0.0,0.0,0.0,0.0,0.0,0.0,0.0,0.0,0.0,0.0,0.0,0.0,0.0,0.0,0.0,0.0,0.0,0.0,0.0,0.0,0.0,0.0,0.0,0.0,0.0,0.0,0.0,0.0,0.0,0.0,0.0,0.0,0.0,0.0,0.0,0.0,0.0,0.0,0.0,0.0,0.0,0.0,0.0,0.0,0.0,0.0,0.0,0.0,0.0,0.0,0.0,0.0,0.0,0.0,0.0,0.0,0.0,0.0,0.0,0.0,0.0,0.0,0.0,0.0,0.0,0.0,0.0,0.0,0.0,0.0,0.0,0.0,0.0,0.0,0.0,0.0,0.0,0.0,0.0,0.0,0.0,0.0,0.0,0.0,0.0,0.0,0.0,0.0,0.0,0.0,0.0,0.0,0.0,0.0,0.0,0.0,0.0,0.0,0.0,0.0,0.0,0.0,0.0,0.0,0.0,0.0,0.0,0.0,0.0,0.0,0.0,0.0,0.0,0.0,0.0,0.0,0.0,0.0,0.0,0.0,0.0,0.0,0.0,0.0,0.0,0.0,0.0,0.0,0.0,0.0,0.0,0.0,0.0,0.0,0.0,0.0,0.0,0.0,0.0,0.0,0.0,0.0,0.0,0.0,0.0,0.0,0.0,0.0,0.0,0.0,0.0,0.0,0.0,0.0,0.0,0.0,0.0,0.0,0.0,0.0,0.0,0.0,0.0,0.0,0.0,0.0,0.0,0.0,0.0,0.0,0.0,0.0,0.0,0.0,0.0,0.0,0.0,0.0,0.0,0.0,0.0,0.0,0.0,0.0,0.0,0.0,0.0,0.0,0.0,0.0,0.0,0.0,0.0,0.0,0.0,0.0,0.0,0.0,0.0,0.0,0.0,0.0,0.0,0.0,0.0,0.0,0.0,0.0,0.0,0.0,0.0,0.0,0.0,0.0,0.0,0.0,0.0,0.0,0.0,0.0,0.0,0.0,0.0,0.0,0.0,0.0,0.0,0.0,0.0,0.0,0.0,0.0,0.0,0.0,0.0,0.0,0.0,0.0,0.0,0.0,0.0,0.0,0.0,0.0,0.0,0.0,0.0,0.0,0.0,0.0,0.0,0.0,0.0,0.0,0.0,0.0,0.0,0.0,0.0,0.0,0.0,0.0,0.0,0.0,0.0,0.0,0.0,0.0,0.0,0.0,0.0,0.0,0.0,0.0,0.0,0.0,0.0,0.0,0.0,0.0,0.0,0.0,0.0,0.0,0.0,0.0,0.0,0.0,0.0,0.0,0.0,0.0,0.0,0.0,0.0,0.0,0.0,0.0,0.0,0.0,0.0,0.0,0.0,0.0,0.0,0.0,0.0,0.0,0.0,0.0,0.0,0.0,0.0,0.0,0.0,0.0,0.0,0.0,0.0,0.0,0.0,0.0,0.0,0.0,0.0,0.0,0.0,0.0,0.0,0.0,0.0,0.0,0.0,0.0,0.0,0.0,0.0,0.0,0.0,0.0,0.0,0.0,0.0,0.0,0.0,0.0,0.0,0.0,0.0,0.0,0.0,0.0,0.0,0.0,0.0,0.0,0.0,0.0,0.0,0.0,0.0,0.0,0.0,0.0,0.0,0.0,0.0,0.0,0.0,0.0,0.0,0.0,0.0,0.0,0.0,0.0,0.0,0.0,0.0,0.0,0.0,0.0,0.0,0.0,0.0,0.0,0.0,0.0,0.0,0.0,0.0,0.0,0.0,0.0,0.0,0.0,0.0,0.0,0.0,0.0,0.0,0.0,0.0,0.0,0.0,0.0,0.0,0.0,0.0,0.0,0.0,0.0,0.0,0.0,0.0,0.0,0.0,0.0,0.0,0.0,0.0,0.0,0.0,0.0,0.0,0.0,0.0,0.0,0.0,0.0,0.0,0.0,0.0,0.0,0.0,0.0,0.0,0.0,0.0,0.0,0.0,0.0,0.0,0.0,0.0,0.0,0.0,0.0,0.0,0.0,0.0,0.0,0.0,0.0,0.0,0.0,0.0,0.0,0.0,0.0,0.0,0.0,-0.8822,0.0,0.0,0.0,-0.9926,0.0,0.0,0.0,0.0,0.0,0.0,0.0,0.0,0.0,0.0,0.0,0.0,0.0,0.0,0.0,0.0,0.0,0.0,0.0,0.0,0.0,0.0,0.0,0.0,0.0,0.0,0.0,0.0,0.0,0.0,0.0,0.0,0.0,0.0,0.0,0.0,0.0,0.0,0.0,0.0,0.0,0.0,0.0,0.0,0.0,0.0,0.0,0.0,0.0,0.0,0.0,0.0,0.0,0.0,0.0,0.0,0.0,0.0,0.0,0.0,0.0,0.0,0.0,0.0,0.0,0.0,0.0,0.0,0.0,0.0,0.0,0.0,0.0,0.0,0.0,0.0,0.0,0.0,0.0,0.0,0.0,0.0,0.0,0.0,0.0,0.0,0.0,0.0,0.0,0.0,0.0,0.0,0.0,0.0,0.0,0.0,0.0,0.0,0.0,0.0,0.0,0.0,0.0,0.0,0.0,0.0,0.0,0.0,0.0,0.0,-0.9946,-1.0345,-1.0618,-1.0744,-1.0674,0.0,0.0,0.0,0.0,0.0,0.0,0.0,0.0,0.0,0.0,0.0,0.0,0.0,0.0,0.0,0.0,0.0,0.0,0.0,0.0,0.0,0.0,0.0,0.0,0.0,0.0,0.0,0.0,0.0,0.0,0.0,0.0,0.0,0.0,0.0,0.0,0.0,0.0,0.0,0.0,0.0,0.0,0.0,0.0,0.0,0.0,0.0,0.0,0.0,0.0,0.0,0.0,0.0,0.0,0.0,0.0,0.0,0.0,0.0,0.0,0.0,0.0,0.0,0.0,0.0,0.0,0.0,0.0,0.0,0.0,0.0,0.0,0.0,0.0,0.0,0.0,0.0,0.0,0.0,0.0,0.0,0.0,0.0,0.0,0.0,0.0,0.0,0.0,0.0,0.0,0.0,0.0,0.0,0.0,0.0,0.0,0.0,0.0,0.0,0.0,0.0,0.0,0.0,0.0,0.0,0.0,0.0,0.0,0.0,0.0,0.0,0.0,-1.1663,-1.1725,-1.1529,0.0,0.0,0.0,0.0,0.0,0.0,0.0,0.0,0.0,0.0,0.0,0.0,0.0,0.0,0.0,0.0,0.0,0.0,0.0,0.0,0.0,0.0,0.0,0.0,0.0,0.0,0.0,0.0,0.0,0.0,0.0,0.0,0.0,0.0,0.0,0.0,0.0,0.0,0.0,0.0,0.0,0.0,0.0,0.0,0.0,0.0,0.0,0.0,0.0,0.0,0.0,0.0,0.0,0.0,0.0,0.0,0.0,0.0,0.0,0.0,0.0,0.0,0.0,0.0,0.0,0.0,0.0,0.0,0.0,0.0,0.0,0.0,0.0,0.0,0.0,0.0,0.0,0.0,0.0,0.0,0.0,0.0,0.0,0.0,0.0,0.0,0.0,0.0,0.0,0.0,0.0,0.0,0.0,0.0,0.0,0.0,0.0,0.0,0.0,0.0,0.0,0.0,0.0,0.0,0.0,0.0,0.0,0.0,0.0,0.0,-1.1669,-1.2861,-1.2613,0.0,-1.3068,0.0,0.0,0.0,0.0,0.0,0.0,0.0,0.0,0.0,0.0,0.0,0.0,0.0,0.0,0.0,0.0,0.0,0.0,0.0,0.0,0.0,0.0,0.0,0.0,0.0,0.0,0.0,0.0,0.0,0.0,0.0,0.0,0.0,0.0,0.0,0.0,0.0,0.0,0.0,0.0,0.0,0.0,0.0,0.0,0.0,0.0,0.0,0.0,0.0,0.0,0.0,0.0,0.0,0.0,0.0,0.0,0.0,0.0,0.0,0.0,0.0,0.0,0.0,0.0,0.0,0.0,0.0,0.0,0.0,0.0,0.0,0.0,0.0,0.0,0.0,0.0,0.0,0.0,0.0,0.0,0.0,0.0,0.0,0.0,0.0,0.0,0.0,0.0,0.0,0.0,0.0,0.0,0.0,0.0,0.0,0.0,0.0,0.0,0.0,0.0,0.0,0.0,0.0,0.0,0.0,0.0,0.0,0.0,0.0,0.0,-1.2774,-1.3379,-1.3307,-1.3498,0.0,0.0,0.0,0.0,0.0,0.0,0.0,0.0,0.0,0.0,0.0,0.0,0.0,0.0,0.0,0.0,0.0,0.0,0.0,0.0,0.0,0.0,0.0,0.0,0.0,0.0,0.0,0.0,0.0,0.0,0.0,0.0,0.0,0.0,0.0,0.0,0.0,0.0,0.0,0.0,0.0,0.0,0.0,0.0,0.0,0.0,0.0,0.0,0.0,0.0,0.0,0.0,0.0,0.0,0.0,0.0,0.0,0.0,0.0,0.0,0.0,0.0,0.0,0.0,0.0,0.0,0.0,0.0,0.0,0.0,0.0,0.0,0.0,0.0,0.0,0.0,0.0,0.0,0.0,0.0,0.0,0.0,0.0,0.0,0.0,0.0,0.0,0.0,0.0,0.0,0.0,0.0,0.0,0.0,0.0,0.0,0.0,0.0,0.0,0.0,0.0,0.0,0.0,0.0,0.0,0.0,0.0,0.0,0.0,0.0,-1.3667,-1.3969,-1.4247,-1.4393,-1.449,-1.4595,0.0,0.0,0.0,0.0,0.0,0.0,0.0,0.0,0.0,0.0,0.0,0.0,0.0,0.0,0.0,0.0,0.0,0.0,0.0,0.0,0.0,0.0,0.0,0.0,0.0,0.0,0.0,0.0,0.0,0.0,0.0,0.0,0.0,0.0,0.0,0.0,0.0,0.0,0.0,0.0,0.0,0.0,0.0,0.0,0.0,0.0,0.0,0.0,0.0,0.0,0.0,0.0,0.0,0.0,0.0,0.0,0.0,0.0,0.0,0.0,0.0,0.0,0.0,0.0,0.0,0.0,0.0,0.0,0.0,0.0,0.0,0.0,0.0,0.0,0.0,0.0,0.0,0.0,0.0,0.0,0.0,0.0,0.0,0.0,0.0,0.0,0.0,0.0,0.0,0.0,0.0,0.0,0.0,0.0,0.0,0.0,0.0,0.0,0.0,0.0,0.0,0.0,0.0,0.0,0.0,0.0,0.0,0.0,-1.4547,-1.482,-1.5274,-1.5829,-1.5981,-1.5704,0.0,0.0,0.0,0.0,0.0,0.0,0.0,0.0,0.0,0.0,0.0,0.0,0.0,0.0,0.0,0.0,0.0,0.0,0.0,0.0,0.0,0.0,0.0,0.0,0.0,0.0,0.0,0.0,0.0,0.0,0.0,0.0,0.0,0.0,0.0,0.0,0.0,0.0,0.0,0.0,0.0,0.0,0.0,0.0,0.0,0.0,0.0,0.0,0.0,0.0,0.0,0.0,0.0,0.0,0.0,0.0,0.0,0.0,0.0,0.0,0.0,0.0,0.0,0.0,0.0,0.0,0.0,0.0,0.0,0.0,0.0,0.0,0.0,0.0,0.0,0.0,0.0,0.0,0.0,0.0,0.0,0.0,0.0,0.0,0.0,0.0,0.0,0.0,0.0,0.0,0.0,0.0,0.0,0.0,0.0,0.0,0.0,0.0,0.0,0.0,0.0,0.0,0.0,0.0,0.0,0.0,0.0,0.0,0.0,-1.4799,-1.5501,-1.6269,-1.706,-1.6513,-1.6216,0.0,0.0,0.0,0.0,0.0,0.0,0.0,0.0,0.0,0.0,0.0,0.0,0.0,0.0,0.0,0.0,0.0,0.0,0.0,0.0,0.0,0.0,0.0,0.0,0.0,0.0,0.0,0.0,0.0,0.0,0.0,0.0,0.0,0.0,0.0,0.0,0.0,0.0,0.0,0.0,0.0,0.0,0.0,0.0,0.0,0.0,0.0,0.0,0.0,0.0,0.0,0.0,0.0,0.0,0.0,0.0,0.0,0.0,0.0,0.0,0.0,0.0,0.0,0.0,0.0,0.0,0.0,0.0,0.0,0.0,0.0,0.0,0.0,0.0,0.0,0.0,0.0,0.0,0.0,0.0,0.0,0.0,0.0,0.0,0.0,0.0,0.0,0.0,0.0,0.0,0.0,0.0,0.0,0.0,0.0,0.0,0.0,0.0,0.0,0.0,0.0,0.0,0.0,0.0,0.0,0.0,0.0,0.0,0.0,-1.5984,0.0,-1.7502,-1.8071,-1.7446,-1.7012,0.0,0.0,0.0,0.0,0.0,0.0,0.0,0.0,0.0,0.0,0.0,0.0,0.0,0.0,0.0,0.0,0.0,0.0,0.0,0.0,0.0,0.0,0.0,0.0,0.0,0.0,0.0,0.0,0.0,0.0,0.0,0.0,0.0,0.0,0.0,0.0,0.0,0.0,0.0,0.0,0.0,0.0,0.0,0.0,0.0,0.0,0.0,0.0,0.0,0.0,0.0,0.0,0.0,0.0,0.0,0.0,0.0,0.0,0.0,0.0,0.0,0.0,0.0,0.0,0.0,0.0,0.0,0.0,0.0,0.0,0.0,0.0,0.0,0.0,0.0,0.0,0.0,0.0,0.0,0.0,0.0,0.0,0.0,0.0,0.0,0.0,0.0,0.0,0.0,0.0,0.0,0.0,0.0,0.0,0.0,0.0,0.0,0.0,0.0,0.0,0.0,0.0,0.0,0.0,0.0,0.0,0.0,0.0,-1.6216,-1.8225,-1.8697,-1.8942,-1.8934,-1.8944,-1.8158,0.0,0.0,0.0,0.0,0.0,0.0,0.0,0.0,0.0,0.0,0.0,0.0,0.0,0.0,0.0,0.0,0.0,0.0,0.0,0.0,0.0,0.0,0.0,0.0,0.0,0.0,0.0,0.0,0.0,0.0,0.0,0.0,0.0,0.0,0.0,0.0,0.0,0.0,0.0,0.0,0.0,0.0,0.0,0.0,0.0,0.0,0.0,0.0,0.0,0.0,0.0,0.0,0.0,0.0,0.0,0.0,0.0,0.0,0.0,0.0,0.0,0.0,0.0,0.0,0.0,0.0,0.0,0.0,0.0,0.0,0.0,0.0,0.0,0.0,0.0,0.0,0.0,0.0,0.0,0.0,0.0,0.0,0.0,0.0,0.0,0.0,0.0,0.0,0.0,0.0,0.0,0.0,0.0,0.0,0.0,0.0,0.0,0.0,0.0,0.0,0.0,0.0,0.0,0.0,0.0,0.0,0.0,0.0,0.0,-1.7908,-1.8891,-1.9436,-1.9584,-1.9142,-1.8765,0.0,0.0,0.0,0.0,0.0,0.0,0.0,0.0,0.0,0.0,0.0,0.0,0.0,0.0,0.0,0.0,0.0,0.0,0.0,0.0,0.0,0.0,0.0,0.0,0.0,0.0,0.0,0.0,0.0,0.0,0.0,0.0,0.0,0.0,0.0,0.0,0.0,0.0,0.0,0.0,0.0,0.0,0.0,0.0,0.0,0.0,0.0,0.0,0.0,0.0,0.0,0.0,0.0,0.0,0.0,0.0,0.0,0.0,0.0,0.0,0.0,0.0,0.0,0.0,0.0,0.0,0.0,0.0,0.0,0.0,0.0,0.0,0.0,0.0,0.0,0.0,0.0,0.0,0.0,0.0,0.0,0.0,0.0,0.0,0.0,0.0,0.0,0.0,0.0,0.0,0.0,0.0,0.0,0.0,0.0,0.0,0.0,0.0,0.0,0.0,0.0,0.0,0.0,0.0,0.0,0.0,0.0,0.0,0.0,-1.9148,-2.0153,-2.068,-2.0739,-2.0153,-1.9727,-1.9353,0.0,0.0,0.0,0.0,0.0,0.0,0.0,0.0,0.0,0.0,0.0,0.0,0.0,0.0,0.0,0.0,0.0,0.0,0.0,0.0,0.0,0.0,0.0,0.0,0.0,0.0,0.0,0.0,0.0,0.0,0.0,0.0,0.0,0.0,0.0,0.0,0.0,0.0,0.0,0.0,0.0,0.0,0.0,0.0,0.0,0.0,0.0,0.0,0.0,0.0,0.0,0.0,0.0,0.0,0.0,0.0,0.0,0.0,0.0,0.0,0.0,0.0,0.0,0.0,0.0,0.0,0.0,0.0,0.0,0.0,0.0,0.0,0.0,0.0,0.0,0.0,0.0,0.0,0.0,0.0,0.0,0.0,0.0,0.0,0.0,0.0,0.0,0.0,0.0,0.0,0.0,0.0,0.0,0.0,0.0,0.0,0.0,0.0,0.0,0.0,0.0,0.0,0.0,0.0,0.0,0.0,0.0,0.0,-2.1608,-2.2293,-2.2434,-2.2153,-2.1787,-2.0931,0.0,0.0,0.0,0.0,0.0,0.0,0.0,0.0,0.0,0.0,0.0,0.0,0.0,0.0,0.0,0.0,0.0,0.0,0.0,0.0,0.0,0.0,0.0,0.0,0.0,0.0,0.0,0.0,0.0,0.0,0.0,0.0,0.0,0.0,0.0,0.0,0.0,0.0,0.0,0.0,0.0,0.0,0.0,0.0,0.0,0.0,0.0,0.0,0.0,0.0,0.0,0.0,0.0,0.0,0.0,0.0,0.0,0.0,0.0,0.0,0.0,0.0,0.0,0.0,0.0,0.0,0.0,0.0,0.0,0.0,0.0,0.0,0.0,0.0,0.0,0.0,0.0,0.0,0.0,0.0,0.0,0.0,0.0,0.0,0.0,0.0,0.0,0.0,0.0,0.0,0.0,0.0,0.0,0.0,0.0,0.0,0.0,0.0,0.0,0.0,0.0,0.0,0.0,0.0,0.0,0.0,0.0,0.0,0.0,-2.3243,-2.4098,-2.3861,-2.2657,-2.2052,-2.1385,0.0,0.0,0.0,0.0,0.0,0.0,0.0,0.0,0.0,0.0,0.0,0.0,0.0,0.0,0.0,0.0,0.0,0.0,0.0,0.0,0.0,0.0,0.0,0.0,0.0,0.0,0.0,0.0,0.0,0.0,0.0,0.0,0.0,0.0,0.0,0.0,0.0,0.0,0.0,0.0,0.0,0.0,0.0,0.0,0.0,0.0,0.0,0.0,0.0,0.0,0.0,0.0,0.0,0.0,0.0,0.0,0.0,0.0,0.0,0.0,0.0,0.0,0.0,0.0,0.0,0.0,0.0,0.0,0.0,0.0,0.0,0.0,0.0,0.0,0.0,0.0,0.0,0.0,0.0,0.0,0.0,0.0,0.0,0.0,0.0,0.0,0.0,0.0,0.0,0.0,0.0,0.0,0.0,0.0,0.0,0.0,0.0,0.0,0.0,0.0,0.0,0.0,0.0,0.0,0.0,0.0,0.0,0.0,-2.2087,-2.4002,-2.4744,-2.4735,-2.3979,-2.337,-2.2412,0.0,0.0,0.0,0.0,0.0,0.0,0.0,0.0,0.0,0.0,0.0,0.0,0.0,0.0,0.0,0.0,0.0,0.0,0.0,0.0,0.0,0.0,0.0,0.0,0.0,0.0,0.0,0.0,0.0,0.0,0.0,0.0,0.0,0.0,0.0,0.0,0.0,0.0,0.0,0.0,0.0,0.0,0.0,0.0,0.0,0.0,0.0,0.0,0.0,0.0,0.0,0.0,0.0,0.0,0.0,0.0,0.0,0.0,0.0,0.0,0.0,0.0,0.0,0.0,0.0,0.0,0.0,0.0,0.0,0.0,0.0,0.0,0.0,0.0,0.0,0.0,0.0,0.0,0.0,0.0,0.0,0.0,0.0,0.0,0.0,0.0,0.0,0.0,0.0,0.0,0.0,0.0,0.0,0.0,0.0,0.0,0.0,0.0,0.0,0.0,0.0,0.0,0.0,0.0,0.0,0.0,0.0,0.0,-2.2453,-2.4178,-2.4724,-2.5207,-2.5662,-2.5093,-2.3658,0.0,0.0,0.0,0.0,0.0,0.0,0.0,0.0,0.0,0.0,0.0,0.0,0.0,0.0,0.0,0.0,0.0,0.0,0.0,0.0,0.0,0.0,0.0,0.0,0.0,0.0,0.0,0.0,0.0,0.0,0.0,0.0,0.0,0.0,0.0,0.0,0.0,0.0,0.0,0.0,0.0,0.0,0.0,0.0,0.0,0.0,0.0,0.0,0.0,0.0,0.0,0.0,0.0,0.0,0.0,0.0,0.0,0.0,0.0,0.0,0.0,0.0,0.0,0.0,0.0,0.0,0.0,0.0,0.0,0.0,0.0,0.0,0.0,0.0,0.0,0.0,0.0,0.0,0.0,0.0,0.0,0.0,0.0,0.0,0.0,0.0,0.0,0.0,0.0,0.0,0.0,0.0,0.0,0.0,0.0,0.0,0.0,0.0,0.0,0.0,0.0,0.0,0.0,0.0,0.0,0.0,0.0,0.0,-2.2912,-2.4157,-2.5343,-2.6015,-2.6099,-2.5126,-2.3826,0.0,0.0,0.0,0.0,0.0,0.0,0.0,0.0,0.0,0.0,0.0,0.0,0.0,0.0,0.0,0.0,0.0,0.0,0.0,0.0,0.0,0.0,0.0,0.0,0.0,0.0,0.0,0.0,0.0,0.0,0.0,0.0,0.0,0.0,0.0,0.0,0.0,0.0,0.0,0.0,0.0,0.0,0.0,0.0,0.0,0.0,0.0,0.0,-2.6539,0.0,0.0,0.0,0.0,0.0,0.0,0.0,0.0,0.0,0.0,0.0,0.0,0.0,0.0,0.0,0.0,0.0,0.0,0.0,0.0,0.0,0.0,0.0,0.0,0.0,0.0,0.0,0.0,0.0,0.0,0.0,0.0,0.0,0.0,0.0,0.0,0.0,0.0,0.0,0.0,0.0,0.0,0.0,0.0,0.0,0.0,0.0,0.0,0.0,0.0,0.0,0.0,0.0,0.0,0.0,0.0,0.0,0.0,0.0,-2.3314,-2.4189,-2.5543,-2.6357,-2.6415,-2.5805,-2.4692,0.0,0.0,0.0,0.0,0.0,0.0,0.0,0.0,0.0,0.0,0.0,0.0,0.0,0.0,0.0,0.0,0.0,0.0,0.0,0.0,0.0,0.0,0.0,0.0,0.0,0.0,0.0,0.0,0.0,0.0,0.0,0.0,0.0,0.0,0.0,0.0,0.0,0.0,0.0,0.0,0.0,0.0,0.0,0.0,0.0,0.0,0.0,0.0,0.0,0.0,0.0,0.0,0.0,0.0,0.0,0.0,0.0,0.0,0.0,0.0,0.0,0.0,0.0,0.0,0.0,0.0,0.0,0.0,0.0,0.0,0.0,0.0,0.0,0.0,0.0,0.0,0.0,0.0,0.0,0.0,0.0,0.0,0.0,0.0,0.0,0.0,0.0,0.0,0.0,0.0,0.0,0.0,0.0,0.0,0.0,0.0,0.0,0.0,0.0,0.0,0.0,0.0,0.0,0.0,0.0,0.0,0.0,-2.2216,-2.3575,-2.422,-2.5567,-2.6362,-2.6604,-2.654,-2.5646,-2.385,0.0,0.0,0.0,0.0,0.0,0.0,0.0,0.0,0.0,0.0,0.0,0.0,0.0,0.0,0.0,0.0,0.0,0.0,0.0,0.0,0.0,0.0,0.0,0.0,0.0,0.0,0.0,0.0,0.0,0.0,0.0,0.0,0.0,0.0,0.0,0.0,0.0,0.0,-2.4031,-2.5102,0.0,0.0,0.0,0.0,0.0,0.0,0.0,0.0,-2.7078,0.0,0.0,0.0,0.0,0.0,0.0,0.0,0.0,0.0,0.0,0.0,0.0,0.0,0.0,0.0,0.0,0.0,0.0,0.0,0.0,0.0,0.0,0.0,0.0,0.0,0.0,0.0,0.0,0.0,0.0,0.0,0.0,0.0,0.0,0.0,0.0,0.0,0.0,0.0,0.0,0.0,0.0,0.0,0.0,0.0,0.0,0.0,0.0,0.0,0.0,0.0,0.0,0.0,0.0,0.0,0.0,-2.078,-2.2517,-2.3808,-2.4416,-2.5412,-2.6123,-2.6594,-2.6232,-2.5776,-2.5134,0.0,0.0,0.0,0.0,0.0,0.0,0.0,0.0,0.0,0.0,0.0,0.0,0.0,0.0,0.0,0.0,0.0,0.0,0.0,0.0,0.0,0.0,0.0,0.0,0.0,0.0,0.0,0.0,0.0,0.0,0.0,0.0,0.0,0.0,0.0,0.0,0.0,0.0,0.0,-2.7144,-2.7309,0.0,0.0,0.0,0.0,0.0,0.0,0.0,0.0,-2.6664,0.0,0.0,0.0,0.0,0.0,0.0,0.0,0.0,0.0,0.0,0.0,0.0,0.0,0.0,0.0,0.0,0.0,0.0,0.0,0.0,0.0,0.0,0.0,0.0,0.0,0.0,0.0,0.0,0.0,0.0,0.0,0.0,0.0,0.0,0.0,0.0,0.0,0.0,0.0,0.0,0.0,0.0,0.0,0.0,0.0,0.0,0.0,0.0,0.0,0.0,0.0,0.0,0.0,0.0,0.0,-2.1313,-2.2871,-2.396,-2.4487,-2.552,-2.6322,-2.6761,-2.6184,-2.5871,0.0,0.0,0.0,0.0,0.0,0.0,0.0,0.0,0.0,0.0,0.0,0.0,0.0,0.0,0.0,0.0,0.0,0.0,0.0,0.0,0.0,0.0,0.0,0.0,0.0,0.0,0.0,0.0,0.0,0.0,0.0,0.0,0.0,0.0,0.0,0.0,0.0,0.0,0.0,0.0,-2.7502,-2.7671,-2.8035,0.0,0.0,0.0,0.0,0.0,0.0,-2.7049,-2.7007,0.0,0.0,0.0,0.0,0.0,0.0,0.0,0.0,0.0,0.0,0.0,0.0,0.0,0.0,0.0,0.0,0.0,0.0,0.0,0.0,0.0,0.0,0.0,0.0,0.0,0.0,0.0,0.0,0.0,0.0,0.0,0.0,0.0,0.0,0.0,0.0,0.0,0.0,0.0,0.0,0.0,0.0,0.0,0.0,0.0,0.0,0.0,0.0,0.0,0.0,0.0,0.0,0.0,0.0,0.0,-2.1723,-2.3055,-2.4002,-2.4636,-2.5562,-2.6313,-2.6918,-2.6141,-2.5728,0.0,0.0,0.0,0.0,0.0,0.0,0.0,0.0,0.0,0.0,0.0,0.0,0.0,0.0,0.0,0.0,0.0,0.0,0.0,0.0,0.0,0.0,0.0,0.0,0.0,0.0,0.0,0.0,0.0,0.0,0.0,0.0,0.0,0.0,0.0,0.0,0.0,0.0,0.0,0.0,0.0,-2.8055,-2.8556,-2.8171,0.0,0.0,0.0,0.0,-2.7254,-2.7592,0.0,0.0,0.0,0.0,0.0,0.0,0.0,0.0,0.0,0.0,0.0,0.0,0.0,0.0,0.0,0.0,0.0,0.0,0.0,0.0,0.0,0.0,0.0,0.0,0.0,0.0,0.0,0.0,0.0,0.0,0.0,0.0,0.0,0.0,0.0,0.0,0.0,0.0,0.0,0.0,0.0,0.0,0.0,0.0,0.0,0.0,0.0,0.0,0.0,0.0,0.0,0.0,0.0,0.0,0.0,0.0,-2.2439,-2.3202,-2.3998,-2.5072,-2.5221,-2.57,-2.6572,-2.5786,-2.5295,0.0,0.0,0.0,0.0,0.0,0.0,0.0,0.0,0.0,0.0,0.0,0.0,0.0,0.0,0.0,0.0,0.0,0.0,0.0,0.0,0.0,0.0,0.0,0.0,0.0,0.0,0.0,0.0,0.0,0.0,0.0,0.0,0.0,0.0,0.0,0.0,0.0,0.0,0.0,0.0,0.0,-2.9328,-2.9637,-2.9415,-2.9132,0.0,0.0,-2.8282,-2.7645,-2.8091,0.0,0.0,0.0,0.0,0.0,0.0,0.0,0.0,0.0,0.0,0.0,0.0,0.0,0.0,0.0,0.0,0.0,0.0,0.0,0.0,0.0,0.0,0.0,0.0,0.0,0.0,0.0,0.0,0.0,0.0,0.0,0.0,0.0,0.0,0.0,0.0,0.0,0.0,0.0,0.0,0.0,0.0,0.0,0.0,0.0,0.0,0.0,0.0,0.0,0.0,0.0,0.0,0.0,0.0,0.0,-2.1282,-2.2366,-2.3165,-2.403,-2.4999,-2.52,-2.5433,-2.6024,-2.5221,-2.4817,0.0,0.0,0.0,0.0,0.0,0.0,0.0,0.0,0.0,0.0,0.0,0.0,0.0,0.0,0.0,0.0,0.0,0.0,0.0,0.0,0.0,0.0,0.0,0.0,0.0,0.0,0.0,0.0,0.0,0.0,0.0,0.0,0.0,0.0,0.0,0.0,0.0,0.0,0.0,0.0,0.0,0.0,-2.9938,-2.9816,0.0,0.0,0.0,-2.8891,-2.8307,0.0,0.0,0.0,0.0,0.0,0.0,0.0,0.0,0.0,0.0,0.0,0.0,0.0,0.0,0.0,0.0,0.0,0.0,0.0,0.0,0.0,0.0,0.0,0.0,0.0,0.0,0.0,0.0,0.0,0.0,0.0,0.0,0.0,0.0,0.0,0.0,0.0,0.0,0.0,0.0,0.0,0.0,0.0,0.0,0.0,0.0,0.0,0.0,0.0,0.0,0.0,0.0,0.0,0.0,0.0,0.0,0.0,-2.2364,-2.2967,-2.3774,-2.4953,-2.4974,-2.5236,-2.5691,-2.5018,0.0,0.0,0.0,0.0,0.0,0.0,0.0,0.0,0.0,0.0,0.0,0.0,0.0,0.0,0.0,0.0,0.0,0.0,0.0,0.0,0.0,0.0,0.0,0.0,0.0,0.0,0.0,-1.9201,0.0,0.0,0.0,0.0,0.0,0.0,0.0,0.0,0.0,0.0,0.0,0.0,0.0,0.0,-2.977,-3.0251,-3.0271,-3.0266,0.0,0.0,-2.9526,-2.9006,-2.9069,-2.8701,0.0,0.0,0.0,0.0,0.0,0.0,0.0,0.0,0.0,0.0,0.0,0.0,0.0,0.0,0.0,0.0,0.0,0.0,0.0,0.0,0.0,0.0,0.0,0.0,0.0,0.0,0.0,0.0,0.0,0.0,0.0,0.0,0.0,0.0,0.0,0.0,0.0,0.0,0.0,0.0,0.0,0.0,0.0,0.0,0.0,0.0,0.0,0.0,0.0,0.0,0.0,0.0,0.0,0.0,-2.1002,-2.2615,-2.2574,-2.3355,-2.4859,-2.4682,-2.5057,-2.6084,-2.5237,-2.4651,0.0,0.0,0.0,0.0,0.0,0.0,0.0,0.0,0.0,0.0,0.0,0.0,0.0,0.0,0.0,0.0,0.0,0.0,0.0,0.0,0.0,0.0,0.0,0.0,0.0,0.0,0.0,0.0,0.0,0.0,0.0,0.0,0.0,0.0,0.0,0.0,0.0,0.0,0.0,0.0,0.0,-2.9999,-3.0475,-3.0975,-3.1174,0.0,-3.0766,-3.0195,-2.9731,-2.9458,-2.8655,-2.69,0.0,0.0,0.0,0.0,0.0,0.0,0.0,0.0,0.0,0.0,0.0,0.0,0.0,0.0,0.0,0.0,0.0,0.0,0.0,0.0,0.0,0.0,0.0,0.0,0.0,0.0,0.0,0.0,0.0,0.0,0.0,0.0,0.0,0.0,0.0,0.0,0.0,0.0,0.0,0.0,0.0,0.0,0.0,0.0,0.0,0.0,0.0,0.0,0.0,0.0,0.0,0.0,0.0,-2.0705,-2.1735,-2.2106,-2.3092,-2.4464,-2.4515,-2.4796,-2.5502,-2.5006,-2.4523,0.0,0.0,0.0,0.0,0.0,0.0,0.0,0.0,0.0,0.0,0.0,0.0,0.0,0.0,0.0,0.0,0.0,0.0,0.0,0.0,0.0,0.0,0.0,0.0,0.0,0.0,0.0,0.0,-2.1958,-2.2689,-2.2926,0.0,0.0,0.0,0.0,0.0,0.0,0.0,0.0,0.0,0.0,-3.0482,-3.0566,-3.1141,0.0,0.0,-3.0507,-3.0152,-2.9759,-2.9251,-2.8556,-2.7369,-2.6327,0.0,0.0,0.0,0.0,0.0,0.0,0.0,0.0,0.0,0.0,0.0,0.0,0.0,0.0,0.0,0.0,0.0,0.0,0.0,0.0,0.0,0.0,0.0,0.0,0.0,0.0,0.0,0.0,0.0,0.0,0.0,0.0,0.0,0.0,0.0,0.0,0.0,0.0,0.0,0.0,0.0,0.0,0.0,0.0,0.0,0.0,0.0,0.0,0.0,0.0,0.0,0.0,-2.0536,-2.1168,-2.1748,-2.2899,-2.4396,-2.4426,-2.4796,-2.5325,-2.5128,-2.4563,0.0,0.0,0.0,0.0,0.0,0.0,0.0,0.0,0.0,0.0,0.0,0.0,0.0,0.0,0.0,0.0,0.0,0.0,0.0,0.0,0.0,0.0,0.0,0.0,0.0,0.0,0.0,0.0,-2.2188,-2.2849,-2.3191,0.0,0.0,0.0,0.0,0.0,0.0,0.0,0.0,0.0,0.0,-3.0574,-3.0667,-3.0985,-3.0986,-3.0258,-2.9897,-2.961,-2.9195,-2.8724,-2.8074,-2.7418,0.0,0.0,0.0,0.0,0.0,0.0,0.0,0.0,0.0,0.0,0.0,0.0,0.0,0.0,0.0,0.0,0.0,0.0,0.0,0.0,0.0,0.0,0.0,0.0,0.0,0.0,0.0,-2.1873,0.0,0.0,-2.1273,0.0,0.0,0.0,0.0,0.0,0.0,0.0,0.0,0.0,0.0,0.0,0.0,0.0,0.0,0.0,0.0,0.0,0.0,0.0,0.0,0.0,0.0,-2.0518,-2.1202,-2.1734,-2.2705,-2.4336,-2.4404,-2.4879,-2.5982,-2.5625,-2.5083,-2.4464,0.0,0.0,0.0,0.0,0.0,0.0,0.0,0.0,0.0,0.0,0.0,0.0,0.0,0.0,0.0,0.0,0.0,0.0,0.0,0.0,0.0,0.0,0.0,0.0,0.0,0.0,-2.1669,-2.2433,-2.2979,0.0,0.0,0.0,0.0,0.0,0.0,0.0,0.0,0.0,-2.7819,-2.9054,-3.0138,-3.0777,-3.0719,-3.0258,-2.9515,-2.906,-2.858,-2.8097,-2.7632,-2.725,0.0,0.0,0.0,0.0,0.0,0.0,0.0,0.0,0.0,0.0,0.0,0.0,0.0,0.0,0.0,0.0,0.0,0.0,0.0,0.0,0.0,0.0,0.0,0.0,0.0,0.0,0.0,-2.2093,-2.2026,0.0,0.0,0.0,0.0,0.0,0.0,0.0,0.0,0.0,0.0,0.0,-2.2046,-2.2067,0.0,0.0,0.0,0.0,0.0,0.0,0.0,0.0,0.0,0.0,0.0,0.0,-2.134,-2.2148,-2.2266,-2.3104,-2.4618,-2.4261,-2.4496,-2.5444,-2.5145,-2.4565,-2.367,0.0,0.0,0.0,0.0,0.0,0.0,0.0,0.0,0.0,0.0,0.0,0.0,0.0,0.0,0.0,0.0,0.0,0.0,0.0,0.0,0.0,0.0,0.0,0.0,0.0,-2.2129,0.0,0.0,0.0,0.0,0.0,0.0,0.0,0.0,0.0,0.0,0.0,-2.6646,-2.7461,-2.8944,-2.9955,-2.9668,-3.0088,-3.0263,0.0,0.0,0.0,0.0,0.0,0.0,0.0,0.0,0.0,0.0,0.0,0.0,0.0,0.0,-2.5882,-2.4908,-2.4708,-2.4526,-2.4248,0.0,0.0,0.0,0.0,0.0,0.0,0.0,0.0,0.0,0.0,0.0,0.0,0.0,0.0,-2.2601,0.0,-2.2601,0.0,0.0,0.0,0.0,0.0,0.0,0.0,0.0,-2.2488,-2.2625,-2.2659,-2.2644,-2.2767,0.0,-2.2579,-2.194,0.0,0.0,0.0,0.0,0.0,0.0,0.0,0.0,-2.1797,-2.2526,-2.2585,-2.3357,-2.4695,-2.4394,-2.4438,-2.5124,-2.4834,-2.4236,-2.3421,-2.2231,-2.1489,0.0,0.0,0.0,0.0,0.0,0.0,0.0,0.0,0.0,0.0,0.0,0.0,0.0,0.0,0.0,0.0,0.0,0.0,0.0,0.0,0.0,0.0,0.0,-2.2323,0.0,0.0,0.0,0.0,0.0,0.0,0.0,0.0,0.0,-2.5284,-2.6246,-2.7193,-2.7742,-2.8998,-2.9717,-2.9279,0.0,0.0,0.0,0.0,0.0,0.0,0.0,-2.7422,-2.7124,-2.6811,-2.6471,-2.6216,-2.6323,-2.6305,-2.6191,0.0,0.0,-2.5447,-2.5405,-2.5282,-2.4875,-2.5447,-2.5703,-2.4782,-2.5224,-2.5628,0.0,0.0,0.0,0.0,0.0,0.0,0.0,0.0,-2.3662,-2.3535,0.0,-2.3491,0.0,0.0,0.0,0.0,0.0,-2.2979,0.0,0.0,-2.3752,-2.3536,-2.3175,-2.3162,-2.3058,-2.2928,-2.3335,-2.3436,-2.3144,-2.1253,0.0,0.0,0.0,0.0,0.0,0.0,-2.2119,-2.2434,-2.2768,-2.3461,-2.4546,-2.4695,-2.497,-2.5377,-2.4751,-2.4248,-2.3789,-2.2598,-2.1924,-2.1885,-2.1084,0.0,0.0,0.0,0.0,0.0,0.0,0.0,0.0,0.0,0.0,0.0,0.0,0.0,0.0,0.0,0.0,0.0,0.0,0.0,0.0,-2.2002,0.0,0.0,0.0,0.0,0.0,0.0,0.0,0.0,0.0,0.0,-2.5658,-2.6833,-2.7926,-2.8497,0.0,0.0,0.0,0.0,-2.8894,-2.8664,-2.8146,-2.7682,-2.7182,-2.7412,-2.7552,-2.7342,0.0,0.0,-2.6901,-2.6835,-2.6729,-2.6402,-2.5903,-2.5733,-2.7027,-2.7191,-2.7078,-2.6692,-2.6705,-2.6821,-2.6449,-2.6244,-2.6356,-2.946,0.0,0.0,0.0,0.0,-2.61,-2.563,-2.5096,-2.4805,-2.461,-2.4508,-2.4263,0.0,0.0,0.0,0.0,0.0,0.0,-2.3621,-2.3608,-2.3722,-2.3698,-2.3639,-2.3727,-2.3831,-2.3967,-2.4094,-2.4144,-2.4014,-2.3222,-2.2526,-2.2036,0.0,0.0,0.0,0.0,-2.3075,-2.3673,-2.4078,-2.4615,-2.5378,-2.4887,-2.4826,-2.5257,-2.5262,-2.4967,-2.4532,-2.3399,-2.2656,-2.2344,-2.1807,0.0,0.0,0.0,0.0,0.0,0.0,0.0,0.0,0.0,0.0,0.0,0.0,0.0,0.0,0.0,0.0,0.0,0.0,0.0,-2.2745,-2.2478,-2.2659,0.0,0.0,0.0,0.0,0.0,0.0,0.0,0.0,0.0,-2.6734,-2.7668,-2.8125,0.0,0.0,-2.9234,-2.8936,-2.9071,-2.9259,-2.9517,-2.9049,0.0,-2.855,-2.8088,-2.7764,-2.795,-2.799,-2.7707,-2.727,-2.7261,-2.7037,-2.6596,-2.6396,-2.6289,-2.6164,-2.6118,-2.5982,-2.566,-2.619,-2.6509,-2.5908,-2.6092,-2.6424,-3.142,-3.0124,-2.8969,-2.8066,-2.7349,-2.6977,-2.6552,-2.6066,-2.576,-2.5673,-2.5656,-2.537,-2.5137,-2.5043,-2.4514,0.0,0.0,0.0,-2.442,-2.444,-2.4368,-2.4384,-2.4394,-2.4455,-2.4516,-2.4668,-2.4678,-2.4766,-2.4932,-2.4326,-2.3867,-2.3506,0.0,0.0,-2.2402,-2.3153,-2.3791,-2.4405,-2.4856,-2.5309,-2.5664,-2.5402,-2.534,-2.5681,-2.5688,-2.5515,-2.5152,-2.4068,-2.3387,-2.3268,-2.2379,-2.1836,0.0,0.0,0.0,0.0,0.0,0.0,0.0,0.0,0.0,0.0,0.0,-2.1198,-2.1534,0.0,0.0,0.0,-2.2579,-2.3076,-2.387,-2.3451,0.0,0.0,0.0,0.0,0.0,0.0,0.0,-2.5689,-2.6392,-2.6941,-2.7231,-2.8048,-2.8411,-2.7872,-2.8514,-2.899,-2.8897,0.0,-2.9466,-2.9817,-2.9448,-2.9036,-2.892,-2.8394,-2.7998,-2.8135,-2.7862,-2.7638,-2.7431,-2.7323,-2.7107,-2.6772,-2.6554,-2.6336,-2.5907,-2.5913,-2.5723,-2.5451,-2.6091,-2.649,-2.6004,-2.6243,-2.6509,-3.2915,-3.2353,-3.0337,-2.8969,-2.8123,-2.7665,-2.7379,-2.7125,-2.6649,-2.6682,-2.6972,-2.6585,-2.6238,-2.591,-2.5059,0.0,-2.5243,-2.5253,-2.5482,-2.5875,-2.5442,-2.5178,-2.5199,-2.5154,-2.5163,-2.5059,-2.5098,-2.5332,-2.5674,-2.4922,-2.4707,-2.5019,-2.3877,-2.3281,-2.3291,-2.3959,-2.4455,-2.4842,-2.5462,-2.5655,-2.5716,-2.6043,-2.6367,-2.6512,-2.6044,-2.5822,-2.5792,-2.4595,-2.4102,-2.4424,-2.2925,-2.2201,-2.2523,0.0,0.0,0.0,0.0,0.0,0.0,0.0,0.0,0.0,0.0,0.0,0.0,0.0,0.0,-2.3343,-2.3668,0.0,-2.5031,-2.4545,0.0,0.0,0.0,-2.4623,-2.4695,-2.5078,-2.5668,-2.6527,0.0,0.0,-2.7272,-2.8017,-2.8566,-2.8607,-2.8649,-2.8814,-2.9249,-2.9332,-2.9405,-2.9608,-2.9343,-2.9036,-2.8727,-2.8485,-2.8155,-2.796,-2.7638,-2.7539,-2.7431,-2.7314,-2.7107,-2.698,-2.6554,-2.6127,-2.6118,-2.6074,-2.6243,-2.6044,-2.6424,-2.6587,-2.6518,-2.6554,-2.6464,-3.3814,-3.2638,-3.1694,-3.0643,-2.9443,-2.9124,-2.8664,-2.8017,-2.7713,-2.7583,-2.7478,-2.7182,-2.6822,-2.6462,-2.6179,-2.5992,-2.5743,-2.5757,-2.5771,-2.5875,-2.5634,-2.5381,-2.5199,-2.5351,-2.5267,-2.5088,-2.541,-2.5635,-2.5723,-2.5527,-2.5303,-2.5068,-2.4756,-2.4443,-2.4141,-2.4829,-2.5292,-2.5578,-2.6202,-2.6494,-2.6352,-2.6764,-2.6898,-2.6557,-2.6268,-2.6123,-2.6113,-2.4967,-2.4404,-2.4484,-2.378,-2.3277,-2.3046,-2.2835,0.0,0.0,0.0,0.0,0.0,0.0,0.0,0.0,0.0,-2.1849,-2.2886,0.0,-2.219,0.0,-2.3356,-2.371,-2.4617,-2.422,0.0,0.0,-2.5264,-2.5337,-2.6009,-2.6185,-2.6475,-2.7024,-2.7189,-2.7272,-2.7272,-2.7738,-2.8095,-2.8284,-2.8786,-2.9187,-2.9301,-2.9622,-2.9766,-2.9638,-2.9353,-2.9036,-2.8727,-2.8514,-2.8301,-2.8174,-2.8184,-2.8077,-2.7862,-2.7745,-2.753,-2.6881,-2.6554,-2.6336,-2.5907,-2.5776,-2.5904,-2.6062,-2.6229,-2.639,-2.6217,-2.6245,-2.6236,-3.4454,-3.3587,-3.2564,-3.1581,-3.0613,-3.0185,-2.9496,-2.8768,-2.8795,-2.8549,-2.8147,-2.776,-2.7464,-2.7205,-2.7104,-2.6934,-2.6582,-2.6587,-2.6578,-2.6496,-2.6238,-2.6062,-2.5772,-2.572,-2.5648,-2.5371,-2.5615,-2.5732,-2.5732,-2.582,-2.5702,-2.5371,-2.5553,-2.553,-2.5198,-2.5521,-2.5829,-2.6324,-2.6768,-2.7043,-2.6889,-2.7127,-2.7138,-2.6889,-2.6589,-2.6393,-2.6393,-2.5339,-2.4781,-2.4761,-2.4161,-2.3693,-2.3429,-2.3052,-2.2829,0.0,0.0,0.0,0.0,0.0,0.0,0.0,0.0,0.0,0.0,0.0,-2.2801,-2.3712,-2.3981,-2.4467,-2.5357,-2.5223,-2.5388,-2.6113,-2.6154,-2.6258,-2.6537,-2.6755,-2.6972,-2.7241,-2.7272,-2.7272,-2.7272,-2.7645,-2.7981,-2.8294,-2.8788,-2.9291,-2.9591,-2.9735,-2.9774,-2.9659,-2.9237,-2.8824,-2.8621,-2.8398,-2.8301,-2.8301,-2.8184,-2.8067,-2.796,-2.7638,-2.7305,-2.6881,-2.6663,-2.6455,-2.6136,-2.6136,-2.6136,-2.6272,-2.6197,-2.6251,-2.629,-2.6354,-2.6354,-3.4803,-3.4504,-3.3137,-3.2225,-3.1567,-3.1097,-3.0179,-2.9157,-2.967,-2.9487,-2.8735,-2.832,-2.8043,-2.8043,-2.7861,-2.7597,-2.7352,-2.761,-2.7535,-2.7345,-2.7174,-2.6886,-2.6577,-2.6314,-2.611,-2.583,-2.583,-2.583,-2.583,-2.6004,-2.6004,-2.5839,-2.6314,-2.64,-2.6177,-2.6009,-2.6303,-2.689,-2.7167,-2.7272,-2.7272,-2.7272,-2.7272,-2.7251,-2.6755,-2.6486,-2.6455,-2.5616,-2.514,-2.5119,-2.4395,-2.3939,-2.371,-2.3082,-2.276,0.0,-2.2335,0.0,0.0,0.0,0.0,0.0,0.0,0.0,0.0,-2.3132,-2.3691,-2.4478,-2.4964,-2.5595,-2.6496,-2.6579,-2.6589,-2.6765,-2.7108,-2.7191,-2.6817,-2.7108,-2.7357,-2.7262,-2.7272,-2.7272,-2.7282,-2.7686,-2.8193,-2.8576,-2.8911,-2.9188,-2.9423,-2.9472,-2.9564,-2.9448,-2.9036,-2.8514,-2.8408,-2.8291,-2.8301,-2.8291,-2.8067,-2.7853,-2.7853,-2.7431,-2.6989,-2.689,-2.6682,-2.6591,-2.6591,-2.6591,-2.6473,-2.6473,-2.6263,-2.6163,-2.6364,-2.6473,-2.6473,-3.5216,-3.4056,-3.3771,-3.2842,-3.1673,-3.1973,-3.1074,-2.9452,-2.9814,-2.9476,-2.885,-2.8659,-2.8533,-2.8358,-2.8265,-2.7985,-2.7537,-2.7988,-2.7994,-2.78,-2.7703,-2.7606,-2.739,-2.6957,-2.6602,-2.641,-2.6304,-2.6304,-2.6304,-2.64,-2.64,-2.6314,-2.64,-2.6602,-2.6699,0.0,0.0,0.0,-2.7262,-2.7272,-2.7272,-2.7272,-2.7272,-2.7241,-2.6455,0.0,-2.5978,-2.514,-2.4674,-2.4588,-2.4509,0.0,0.0,0.0,0.0,0.0,0.0,0.0,0.0,0.0,0.0,0.0,-2.3453,-2.3764,-2.4126,-2.424,-2.4353,-2.454,-2.4964,-2.5595,-2.6475,-2.6579,-2.6817,-2.7369,-2.7484,-2.7505,-2.7411,-2.7484,-2.7452,-2.7357,-2.7272,-2.7262,-2.7314,-2.7966,-2.8504,-2.8628,-2.9229,-2.9176,-2.7865,-2.853,-2.9112,-2.893,-2.8601,-2.8398,-2.8291,-2.8301,-2.8301,-2.8291,-2.8077,-2.7862,-2.753,-2.7196,-2.6881,-2.6682,-2.6591,-2.6591,-2.6591,-2.6354,-2.6245,-2.6245,-2.6017,-2.5907,-2.6127,-2.6017,-2.5907,-3.583,0.0,-3.434,-3.3454,0.0,-3.2443,-3.1684,-3.0383,-3.0323,-2.9719,-2.8861,-2.885,-2.8757,-2.8581,-2.8581,-2.829,-2.7841,-2.8306,-2.8208,-2.7614,-2.7821,-2.7616,-2.7217,-2.7002,-2.6805,-2.6496,-2.6496,-2.6496,-2.6496,-2.6602,-2.6714,-2.6838,-2.711,-2.7416,-2.7739,-2.7814,-2.7681,-2.7272,-2.7272,-2.7272,-2.7272,-2.7272,-2.7272,-2.7241,-2.6589,0.0,0.0,0.0,0.0,0.0,0.0,0.0,0.0,-2.4333,0.0,-2.3622,-2.3556,-2.3536,-2.3525,-2.3318,-2.3298,-2.3525,-2.395,-2.4302,-2.4529,-2.455,-2.4633,-2.4784,-2.5118,-2.5653,-2.6311,-2.6598,-2.6919,-2.7231,-2.7357,-2.7441,-2.7441,-2.7357,-2.7272,-2.7262,-2.7177,-2.7081,-2.7081,-2.7863,-2.8256,-2.8176,-2.8665,-2.8773,-2.8038,-2.8351,-2.8705,-2.8325,-2.83,-2.8291,-2.8301,-2.8301,-2.8291,-2.8291,-2.797,-2.7638,-2.7431,-2.7107,-2.68,-2.6582,-2.6591,-2.6591,-2.6591,-2.6364,-2.6127,-2.6017,-2.5898,-2.5679,-2.5898,-2.5798,-2.5679,-3.6351,-3.5347,-3.4818,-3.4003,-3.3139,-3.2724,-3.2062,-3.1186,0.0,0.0,0.0,-2.879,-2.885,-2.885,-2.885,-2.8571,-2.8124,-2.8593,-2.8348,-2.7617,-2.798,-2.7806,-2.7355,-2.7262,-2.7135,-2.6921,-2.6744,-2.684,-2.6911,-2.714,-2.7334,-2.7635,-2.7961,-2.8442,-2.8786,-2.8845,-2.8454,-2.7702,-2.744,-2.7357,-2.7272,-2.7272,-2.7272,-2.7272,-2.6806,-2.6392,-2.6009,-2.5575,-2.513,-2.4695,-2.4654,-2.4664,-2.4654,-2.4322,-2.4105,-2.3875,-2.366,-2.3515,-2.3432,-2.3432,-2.3588,-2.3971,-2.4416,-2.4633,-2.455,-2.4623,-2.4763,-2.5217,-2.5491,-2.5849,-2.6288,-2.6666,-2.69,-2.6996,-2.7272,-2.7357,-2.7357,-2.7177,-2.7081,-2.7177,-2.7092,-2.689,-2.6825,-2.7615,-2.8005,-2.7784,-2.8065,-2.8121,-2.8297,-2.8184,-2.8107,-2.781,-2.7959,-2.8164,-2.8174,-2.8154,-2.8213,-2.8271,-2.7688,-2.7346,-2.7305,-2.6899,-2.67,-2.6582,-2.6591,-2.6582,-2.6473,-2.6245,-2.6017,-2.6017,-2.5688,-2.5578,-2.5578,-2.5578,-2.5578,-3.6579,-3.5271,-3.5086,-3.4428,-3.3273,-3.269,-3.1951,-3.0932,-3.0066,-2.9595,-2.9358,-2.8943,-2.885,-2.885,-2.885,-2.8664,-2.8333,-2.8806,-2.8902,-2.8739,-2.8802,-2.8911,-2.899,-2.8518,-2.8322,-2.8301,-2.7919,-2.8028,-2.8525,-2.831,-2.8471,-2.9088,-2.9239,-2.9282,-2.9434,-2.937,-2.9306,-2.9133,-2.8136,-2.7452,-2.7272,-2.7272,-2.7272,-2.7241,-2.6817,-2.6537,-2.6475,-2.603,-2.5585,-2.5161,-2.514,-2.515,-2.5259,-2.5078,-2.5047,-2.5155,-2.4985,-2.4778,-2.4385,-2.4343,-2.4374,-2.4457,-2.4881,-2.4974,-2.4592,-2.4912,-2.5238,-2.54,-2.5819,-2.6309,-2.6747,-2.6839,-2.7081,-2.7452,-2.7536,-2.7536,-2.7547,-2.7452,-2.7357,-2.7092,-2.69,-2.6805,-2.6653,-2.7225,-2.7689,-2.7839,-2.7935,-2.8117,-2.7392,-2.7169,-2.7339,-2.7568,-2.7715,-2.7754,-2.7754,-2.7754,-2.7891,-2.8242,-2.7458,-2.7062,-2.7384,-2.6899,-2.6582,-2.6591,-2.6582,-2.6473,-2.6236,-2.5898,-2.5679,-2.545,-2.5128,-2.5034,-2.5043,-2.5034,-2.5034,-3.6692,-3.558,-3.5172,-3.4342,-3.3281,-3.2544,-3.1905,-3.1236,-3.0548,-3.01,-2.9871,-2.9642,-2.9543,-2.9521,-2.9259,-2.9056,-2.8804,-2.902,-2.9032,-2.8845,-2.9098,-2.9242,-2.9421,-2.9231,-2.9137,-2.9116,-2.8915,-2.8915,-2.9183,-2.9102,-2.925,-2.9796,-3.0263,-3.0263,-3.0117,-3.0195,-3.0076,-2.961,-2.9008,-2.8475,-2.8105,-2.8009,-2.7787,-2.7462,-2.7139,-2.6827,-2.6568,-2.6361,-2.6051,-2.5595,-2.5585,-2.5585,-2.5695,-2.5378,-2.5244,-2.5254,-2.5006,-2.4767,-2.4475,-2.4778,-2.4809,-2.4581,-2.4964,-2.5037,-2.4581,-2.5181,-2.5372,-2.489,-2.5645,-2.6103,-2.601,-2.651,-2.6986,-2.7177,-2.7367,-2.7452,-2.7441,-2.7262,-2.7167,-2.7081,-2.689,-2.6602,-2.6506,-2.6919,-2.7061,-2.6834,-2.6894,-2.6823,-2.6576,-2.6437,-2.6484,-2.6885,-2.7148,-2.7295,-2.7314,-2.7305,-2.7376,-2.765,-2.7266,-2.7005,-2.7121,-2.6791,-2.6582,-2.6354,-2.6354,-2.6245,-2.5907,-2.5569,-2.534,-2.5229,-2.5026,-2.4821,-2.4821,-2.4821,-2.4821,-3.6597,-3.5878,-3.5183,-3.4221,-3.3181,-3.2432,-3.1913,-3.1575,-3.1214,-3.0865,-3.0537,-3.0319,-3.0155,-3.0013,-2.9642,-2.9328,-2.9061,-2.904,-2.9063,-2.8999,-2.9341,-2.9629,-2.9742,-2.9753,-2.9753,-2.9742,-2.9657,-2.9746,-2.9832,-2.9746,-3.0017,-3.0477,-3.1046,-3.1138,-3.0781,-3.0972,-3.0776,-3.024,-3.0031,-2.9663,-2.8902,-2.8676,-2.8357,-2.7926,-2.7693,-2.7389,-2.6848,-2.6817,-2.6599,-2.6072,-2.603,-2.603,-2.602,-2.572,-2.5533,-2.5492,-2.5099,-2.4747,-2.4581,-2.4974,-2.5078,-2.4736,-2.5119,-2.5269,-2.4906,-2.5597,-2.5564,-2.4702,-2.5411,-2.5951,-2.5778,-2.6215,-2.6778,-2.7061,-2.7177,-2.7357,-2.7262,-2.7081,-2.6986,-2.7167,-2.689,-2.6592,-2.645,-2.6476,-2.632,-2.5937,-2.571,-2.5877,-2.6063,-2.5928,-2.5918,-2.6191,-2.6592,-2.6846,-2.6875,-2.6982,-2.7094,-2.7141,-2.7027,-2.6899,-2.6859,-2.6791,-2.6464,-2.6127,-2.6008,-2.5898,-2.5679,-2.545,-2.5221,-2.5119,-2.4915,-2.4821,-2.4821,-2.4821,-2.4821,-3.617,-3.5625,-3.533,-3.421,-3.288,-3.2544,-3.2139,-3.1607,-3.1564,-3.1542,-3.1367,-3.0592,-3.0002,-2.9587,-2.9543,-2.9314,-2.8932,-2.8833,-2.9135,-2.971,-2.9719,-3.0081,-3.0604,-3.0678,-3.07,-3.0625,-3.0253,-3.0354,-3.088,-3.0637,-3.0781,-3.1418,-3.1505,-3.1494,-3.1451,-3.1542,-3.152,-3.1385,-3.1396,-3.0759,-2.9533,-2.937,-2.9136,-2.8657,-2.854,-2.8232,-2.7589,-2.7463,-2.7171,-2.6651,-2.6506,-2.6506,-2.6496,-2.6455,-2.6434,-2.6413,-2.5989,-2.542,-2.4685,-2.4887,-2.5233,-2.5202,-2.5743,-2.5962,-2.5532,-2.6108,-2.6057,-2.5149,-2.5458,-2.6022,-2.6372,-2.6341,-2.667,-2.7305,-2.7357,-2.7272,-2.7272,-2.7262,-2.7177,-2.69,-2.689,-2.6699,-2.6304,-2.6033,-2.5839,-2.5713,-2.5713,-2.5723,-2.5752,-2.581,-2.5742,-2.5869,-2.6172,-2.6416,-2.6475,-2.6777,-2.6836,-2.7035,-2.6989,-2.6824,-2.6747,-2.649,-2.6118,-2.59,-2.5854,-2.5507,-2.5296,-2.5221,-2.5119,-2.4906,-2.4795,-2.4804,-2.4821,-2.4795,-2.4787,-3.5921,-3.5593,-3.4972,-3.403,-3.2857,-3.2331,-3.1936,-3.1618,-3.1618,-3.1618,-3.1575,-3.1214,-3.093,-3.0723,-3.045,-3.0199,-3.0002,-2.9751,-2.9861,-3.0394,-3.0426,-3.0773,-3.1278,-3.1219,-3.1219,-3.1322,-3.1116,-3.1138,-3.1359,-3.1218,-3.1331,-3.1597,-3.1618,-3.1618,-3.1618,-3.1618,-3.1618,-3.1618,-3.1618,-3.1331,-3.077,-3.0278,-2.9803,-2.9342,-2.8946,-2.8636,-2.8221,-2.7968,-2.7631,-2.7275,-2.716,-2.716,-2.6972,-2.6724,-2.6579,-2.6548,-2.6134,-2.572,-2.5357,-2.5951,-2.6072,-2.5528,-2.6083,-2.6129,-2.5497,-2.5765,-2.5689,-2.527,-2.5727,-2.616,-2.6246,-2.6311,-2.6671,-2.7243,-2.7357,-2.7272,-2.7272,-2.7272,-2.7262,-2.7177,-2.6986,-2.6805,-2.6486,-2.6051,-2.5751,-2.5713,-2.5732,-2.5732,-2.5732,-2.5732,-2.5732,-2.5752,-2.5908,-2.5986,-2.6035,-2.6123,-2.6255,-2.6241,-2.6161,-2.6041,-2.6023,-2.5754,-2.5379,-2.5306,-2.526,-2.5042,-2.4654,-2.4896,-2.4915,-2.4795,-2.4598,-2.453,-2.477,-2.4633,-2.4581,-3.5598,-3.5242,-3.4588,-3.3854,-3.2958,-3.2432,-3.1924,-3.1721,-3.1629,-3.1618,-3.1618,-3.1618,-3.1618,-3.1553,-3.1116,-3.0766,-3.0504,-3.0308,-3.0384,-3.0712,-3.0832,-3.1149,-3.1586,-3.1618,-3.1618,-3.1618,-3.1618,-3.1618,-3.1618,-3.1618,-3.1618,-3.1618,-3.1618,-3.1618,-3.1618,-3.1618,-3.1618,-3.1618,-3.1618,-3.1618,-3.1472,-3.1077,-3.0575,-3.01,-2.9558,-2.9171,-2.8807,-2.8487,-2.8125,-2.7726,-2.7726,-2.7631,-2.7526,-2.7212,-2.6982,-2.6733,-2.6431,-2.6191,-2.6187,-2.6687,-2.6746,-2.6246,-2.6721,-2.6694,-2.6001,-2.5947,-2.5807,-2.5455,-2.5945,-2.6157,-2.6187,-2.6368,-2.6703,-2.7253,-2.7347,-2.7272,-2.7272,-2.7272,-2.7272,-2.7272,-2.7177,-2.689,-2.6688,-2.6264,-2.5858,-2.5723,-2.5732,-2.5732,-2.5732,-2.5732,-2.5732,-2.5732,-2.5732,-2.5742,-2.5742,-2.5947,-2.5759,-2.5643,-2.568,-2.5732,-2.5481,-2.5071,-2.4763,-2.472,-2.4584,-2.459,-2.445,-2.4556,-2.4812,-2.477,-2.4607,-2.4427,-2.4573,-2.4393,-2.4393,-3.4859,-3.4774,-3.4284,-3.3866,-3.3534,-3.2745,-3.224,-3.2026,-3.1721,-3.1618,-3.1629,-3.1629,-3.1618,-3.1597,-3.1149,-3.0428,-2.9762,-3.0089,-3.0297,-3.0406,-3.0734,-3.116,-3.1607,-3.1618,-3.1629,-3.1629,-3.1618,-3.1618,-3.1618,-3.1618,-3.1618,-3.1618,-3.1618,-3.1618,-3.1618,-3.1618,-3.1618,-3.1618,-3.1618,-3.1618,-3.1618,-3.1586,-3.1334,-3.0908,-3.0821,-3.0177,-2.9268,-2.9106,-2.8774,-2.8019,-2.8008,-2.7998,-2.7987,-2.7861,-2.7649,-2.737,-2.7274,-2.7083,-2.6806,-2.7104,-2.7253,-2.7243,-2.7704,-2.7888,-2.6918,-2.6954,-2.6715,-2.5942,-2.6141,-2.6397,-2.6515,-2.6393,-2.6658,-2.7421,-2.7357,-2.7367,-2.7272,-2.7272,-2.7272,-2.7272,-2.7272,-2.7071,-2.6602,-2.6304,-2.5994,-2.582,-2.5732,-2.5732,-2.5732,-2.5732,-2.5732,-2.5732,-2.5732,-2.5732,-2.5771,-2.5907,-2.5952,-2.5777,-2.5654,-2.5825,-2.5231,-2.4736,-2.4412,-2.4272,-2.4127,-2.4192,-2.4247,-2.447,-2.4735,-2.4787,-2.4727,-2.4633,-2.4556,-2.4333,-2.4282,-3.4932,-3.4726,-3.4261,-3.3866,-3.3545,-3.2969,-3.2555,-3.2331,-3.2026,-3.1812,-3.1812,-3.1721,-3.1618,-3.1607,-3.1647,-3.1372,-3.0854,-3.0723,-3.091,-3.1251,-3.1185,-3.1372,-3.179,-3.1823,-3.1721,-3.1618,-3.1618,-3.1618,-3.1618,-3.1618,-3.1618,-3.1618,-3.1618,-3.1618,-3.1618,-3.1618,-3.1618,-3.1618,-3.1618,-3.1618,-3.1618,-3.1618,-3.1531,-3.1367,-3.1061,-3.0745,-3.0297,-2.9731,-2.9115,-2.8752,-2.8378,-2.8196,-2.7998,-2.7987,-2.7923,-2.7764,-2.7742,-2.7668,-2.7551,-2.7843,-2.7893,-2.7624,-2.7915,-2.7887,-2.7323,-2.716,-2.692,-2.6671,-2.6693,-2.6761,-2.6753,-2.6788,-2.6949,-2.74,-2.7452,-2.7272,-2.7272,-2.7272,-2.7272,-2.7272,-2.7272,-2.7167,-2.6794,-2.6496,-2.6294,-2.6004,-2.582,-2.5732,-2.5732,-2.5732,-2.5732,-2.5732,-2.5732,-2.5732,-2.5732,-2.5896,-2.5958,-2.5676,-2.5524,-2.5384,-2.5017,-2.4307,-2.3856,-2.3921,-2.3891,-2.3888,-2.4076,-2.4504,-2.4744,-2.4804,-2.4744,-2.4581,-2.4598,-2.417,-2.4076,-3.492,-3.4738,-3.4359,-3.4052,-3.3767,-3.3281,-3.288,-3.2566,-3.2331,-3.2128,-3.2128,-3.1924,-3.1924,-3.1936,-3.2026,-3.2026,-3.1902,-3.1572,-3.1628,-3.1873,-3.1728,-3.1828,-3.2083,-3.2128,-3.2026,-3.1936,-3.1936,-3.1823,-3.1721,-3.1721,-3.1721,-3.1629,-3.1618,-3.1618,-3.1618,-3.1618,-3.1618,-3.1618,-3.1618,-3.1618,-3.1618,-3.1618,-3.1618,-3.1586,-3.1302,-3.105,-3.0898,-3.0275,-2.9676,-2.9308,-2.8888,-2.865,-2.8301,-2.8279,-2.8279,-2.8279,-2.8269,-2.8279,-2.8279,-2.8384,-2.843,-2.8137,-2.8174,-2.8069,-2.761,-2.7388,-2.7244,-2.7158,-2.7166,-2.719,-2.7162,-2.7167,-2.7306,-2.7484,-2.7357,-2.7272,-2.7272,-2.7272,-2.7272,-2.7272,-2.7272,-2.7177,-2.69,-2.6709,-2.6496,-2.6197,-2.5907,-2.583,-2.5732,-2.5732,-2.5732,-2.5732,-2.5732,-2.5732,-2.5762,-2.5942,-2.5934,-2.5651,-2.5339,-2.5197,-2.485,-2.4043,-2.3551,-2.3617,-2.3657,-2.3742,-2.4025,-2.4479,-2.4684,-2.477,-2.4564,-2.435,-2.417,-2.3871,-2.3785,-3.4823,-3.4726,-3.4531,-3.4261,-3.3965,-3.3481,-3.3181,-3.288,-3.2667,-3.2443,-3.2454,-3.2454,-3.2443,-3.2443,-3.2443,-3.2443,-3.2443,-3.2376,-3.2185,-3.1905,-3.2174,-3.2353,-3.2544,-3.2454,-3.2443,-3.2443,-3.2454,-3.2331,-3.2015,-3.2026,-3.1823,-3.1618,-3.1618,-3.1618,-3.1618,-3.1618,-3.1618,-3.1618,-3.1618,-3.1618,-3.1618,-3.1618,-3.1618,-3.1618,-3.1575,-3.1367,-3.0952,-3.0854,-3.0406,-2.9674,-2.9489,-2.9248,-2.8822,-2.8757,-2.8757,-2.8757,-2.8757,-2.8746,-2.8757,-2.8757,-2.8746,-2.868,-2.8713,-2.8495,-2.8043,-2.7945,-2.7713,-2.7464,-2.7457,-2.7624,-2.7607,-2.7524,-2.7484,-2.7347,-2.7357,-2.7272,-2.7272,-2.7272,-2.7272,-2.7272,-2.7272,-2.7177,-2.6986,-2.69,-2.6699,-2.6294,-2.615,-2.5966,-2.5771,-2.5791,-2.5771,-2.5742,-2.582,-2.5908,-2.5935,-2.5877,-2.5781,-2.5645,-2.5312,-2.5153,-2.4823,-2.4225,-2.3762,-2.3661,-2.3605,-2.3708,-2.3999,-2.4419,-2.4658,-2.4693,-2.4401,-2.4205,-2.4016,-2.3794,-2.3425,-3.4823,-3.4726,-3.4531,-3.4249,-3.4064,-3.3691,-3.3381,-3.3181,-3.288,-3.2779,-3.2768,-3.2555,-3.2544,-3.2555,-3.2667,-3.2768,-3.2779,-3.2969,-3.2878,-3.2531,-3.235,-3.2451,-3.2723,-3.2779,-3.2667,-3.2555,-3.2578,-3.2566,-3.2342,-3.2117,-3.1913,-3.1812,-3.1721,-3.1618,-3.1618,-3.1618,-3.1618,-3.1618,-3.1618,-3.1618,-3.1618,-3.1618,-3.1618,-3.1618,-3.1618,-3.1542,-3.1389,-3.1072,-3.0766,-3.0417,-2.9827,-2.9259,-2.8866,-2.885,-2.885,-2.885,-2.885,-2.885,-2.885,-2.885,-2.885,-2.885,-2.885,-2.8609,-2.8293,-2.8147,-2.7886,-2.7551,-2.7617,-2.7609,-2.7442,-2.7526,-2.7536,-2.7536,-2.7357,-2.7272,-2.7272,-2.7272,-2.7272,-2.7272,-2.7272,-2.7262,-2.7167,-2.7081,-2.6805,-2.646,-2.6446,-2.6349,-2.5957,-2.6045,-2.6016,-2.583,-2.5986,-2.6201,-2.6206,-2.6231,-2.621,-2.5928,-2.5591,-2.5307,-2.4993,-2.4491,-2.4061,-2.3757,-2.3694,-2.3734,-2.4033,-2.4399,-2.4631,-2.4675,-2.4538,-2.4324,-2.4093,-2.3717,-2.3271,-3.4823,-3.4726,-3.4531,-3.4249,-3.4075,-3.3779,-3.358,-3.3281,-3.3081,-3.3092,-3.298,-3.2869,-3.2757,-3.2869,-3.298,-3.3092,-3.3092,-3.3192,-3.3181,-3.3058,-3.2685,-3.2796,-3.3069,-3.3081,-3.2992,-3.2869,-3.2891,-3.2791,-3.2667,-3.2443,-3.2229,-3.2026,-3.1823,-3.1732,-3.1618,-3.1618,-3.1618,-3.1618,-3.1618,-3.1618,-3.1618,-3.1618,-3.1618,-3.1597,-3.1455,-3.1356,-3.1323,-3.0898,-3.0646,-3.0482,-2.9729,-2.9074,-2.8779,-2.885,-2.885,-2.885,-2.885,-2.885,-2.885,-2.885,-2.885,-2.885,-2.885,-2.8664,-2.8477,-2.8196,-2.8008,-2.7935,-2.7726,-2.7536,-2.7547,-2.7462,-2.7547,-2.7452,-2.7357,-2.7367,-2.7272,-2.7272,-2.7272,-2.7272,-2.7272,-2.7272,-2.7272,-2.7177,-2.6972,-2.6825,-2.6763,-2.6725,-2.6349,-2.6465,-2.6357,-2.6309,-2.6475,-2.652,-2.6478,-2.6557,-2.6721,-2.6265,-2.5841,-2.5687,-2.5416,-2.4825,-2.4225,-2.4167,-2.4032,-2.3868,-2.4101,-2.4459,-2.4794,-2.4789,-2.4554,-2.4167,-2.3754,-2.334,-2.2972,-3.4823,-3.4726,-3.4531,-3.4249,-3.4075,-3.3779,-3.358,-3.3281,-3.3281,-3.3292,-3.3281,-3.3181,-3.3281,-3.3281,-3.3281,-3.3292,-3.3281,-3.3281,-3.3281,-3.3281,-3.3224,-3.3258,-3.3281,-3.3281,-3.3181,-3.3181,-3.3281,-3.3181,-3.2891,-3.288,-3.2667,-3.2128,-3.2015,-3.1823,-3.1618,-3.1618,-3.1618,-3.1618,-3.1618,-3.1607,-3.1542,-3.1542,-3.1498,-3.1465,-3.1138,-3.0963,-3.0908,-3.0537,-3.0231,-3.0067,-2.9347,-2.8888,-2.8872,-2.885,-2.885,-2.885,-2.885,-2.885,-2.885,-2.885,-2.885,-2.885,-2.8757,-2.8664,-2.8395,-2.8207,-2.8124,-2.8062,-2.7757,-2.7547,-2.7568,-2.7473,-2.7357,-2.7367,-2.7367,-2.7272,-2.7272,-2.7272,-2.7272,-2.7272,-2.7272,-2.7272,-2.7272,-2.7262,-2.715,-2.7016,-2.7011,-2.7073,-2.681,-2.6807,-2.6973,-2.6982,-2.6812,-2.6827,-2.6772,-2.6703,-2.6811,-2.6583,-2.6101,-2.5618,-2.5433,-2.487,-2.4298,-2.4166,-2.4149,-2.4035,-2.4062,-2.4359,-2.4597,-2.4517,-2.4227,-2.38,-2.3479,-2.3263,-2.3167,-3.4726,-3.4531,-3.4433,-3.415,-3.3878,-3.3679,-3.358,-3.3281,-3.3281,-3.3281,-3.3281,-3.3281,-3.3281,-3.3281,-3.3281,-3.3281,-3.3281,-3.3281,-3.3281,-3.3281,-3.3281,-3.3281,-3.3281,-3.3281,-3.3281,-3.3281,-3.3281,-3.3292,-3.3192,-3.298,-3.2667,-3.2342,-3.2117,-3.1924,-3.1618,-3.1618,-3.1618,-3.1618,-3.1618,-3.1331,-3.1037,-3.1116,-3.0908,-3.0614,-3.0777,-3.0854,-3.0843,-3.045,-3.0024,-2.9685,-2.9467,-2.9117,-2.8801,-2.885,-2.885,-2.885,-2.885,-2.885,-2.885,-2.885,-2.885,-2.8757,-2.8675,-2.8384,-2.8092,-2.7914,-2.7736,-2.7557,-2.7452,-2.7357,-2.7367,-2.7367,-2.7367,-2.7272,-2.7272,-2.7272,-2.7272,-2.7272,-2.7272,-2.7272,-2.7272,-2.7272,-2.7272,-2.7272,-2.7143,-2.6982,-2.7061,-2.7342,-2.7029,-2.7168,-2.7353,-2.7124,-2.6982,-2.7052,-2.7046,-2.6937,-2.6901,-2.6728,-2.6199,-2.5459,-2.5216,-2.4727,-2.4115,-2.3697,-2.3812,-2.3768,-2.3891,-2.4059,-2.4138,-2.4271,-2.4289,-2.4061,-2.3876,-2.3665,-2.3463,-3.4543,-3.4433,-3.4139,-3.3965,-3.3679,-3.3592,-3.3481,-3.3281,-3.3281,-3.3281,-3.3281,-3.3281,-3.3281,-3.3281,-3.3281,-3.3281,-3.3281,-3.3281,-3.3281,-3.3281,-3.3281,-3.3281,-3.3281,-3.3281,-3.3281,-3.3281,-3.3281,-3.3281,-3.3281,-3.3081,-3.2869,-3.2555,-3.2342,-3.2015,-3.1618,-3.1618,-3.1618,-3.1618,-3.1618,-3.1455,-3.1091,-3.1181,-3.0941,-3.0592,-3.0603,-3.0472,-3.0046,-2.9718,-2.9456,-2.9237,-2.9161,-2.9041,-2.8894,-2.885,-2.885,-2.885,-2.885,-2.885,-2.885,-2.885,-2.8757,-2.8664,-2.8488,-2.8196,-2.7904,-2.7631,-2.7536,-2.7357,-2.7357,-2.7272,-2.7272,-2.7272,-2.7272,-2.7272,-2.7272,-2.7272,-2.7272,-2.7272,-2.7272,-2.7272,-2.7272,-2.7272,-2.7272,-2.7272,-2.7195,-2.713,-2.719,-2.7232,-2.7009,-2.7398,-2.7588,-2.7185,-2.7101,-2.7075,-2.6826,-2.6708,-2.6411,-2.6287,-2.606,-2.5331,-2.5018,-2.4589,-2.428,-2.3904,-2.3698,-2.3609,-2.3824,-2.3994,-2.4203,-2.4356,-2.4396,-2.4239,-2.399,-2.3883,-2.3687,-3.4445,-3.4335,-3.3866,-3.3679,-3.358,-3.3381,-3.3292,-3.3281,-3.3281,-3.3281,-3.3281,-3.3281,-3.3281,-3.3281,-3.3181,-3.3281,-3.3281,-3.3181,-3.3181,-3.3181,-3.317,-3.3181,-3.3192,-3.3281,-3.3281,-3.3281,-3.3281,-3.317,-3.317,-3.3181,-3.2857,-3.2544,-3.2342,-3.2139,-3.1721,-3.1618,-3.1618,-3.1618,-3.1618,-3.1553,-3.1389,-3.128,-3.0941,-3.0526,-3.0242,-2.9805,-2.927,-2.8964,-2.8899,-2.8872,-2.885,-2.8779,-2.885,-2.885,-2.885,-2.8757,-2.8757,-2.8757,-2.8757,-2.8664,-2.8571,-2.8384,-2.8301,-2.8113,-2.7736,-2.7536,-2.7441,-2.7357,-2.7272,-2.7272,-2.7272,-2.7272,-2.7272,-2.7272,-2.7272,-2.7272,-2.7272,-2.7272,-2.7272,-2.7272,-2.7272,-2.7272,-2.7272,-2.7303,-2.7321,-2.7059,-2.71,-2.6983,-2.692,-2.71,-2.725,-2.7101,-2.7036,-2.7189,-2.6748,-2.63,-2.5848,-2.5568,-2.5494,-2.5124,-2.4756,-2.4461,-2.4431,-2.4278,-2.4017,-2.3854,-2.3909,-2.4044,-2.4245,-2.4281,-2.4298,-2.407,-2.3808,-2.3826,-2.3818,-3.4347,-3.4174,-3.3878,-3.358,-3.3381,-3.3281,-3.3281,-3.3281,-3.3281,-3.3281,-3.3281,-3.3281,-3.3281,-3.3281,-3.3081,-3.2992,-3.298,-3.2757,-3.2667,-3.2656,-3.2645,-3.2768,-3.298,-3.3192,-3.3281,-3.317,-3.2812,-3.2823,-3.2869,-3.2768,-3.2544,-3.2229,-3.2128,-3.1924,-3.1629,-3.1618,-3.1618,-3.1618,-3.1618,-3.16,-3.1416,-3.0975,-3.045,-2.9958,-2.9729,-2.948,-2.9222,-2.923,-2.915,-2.8866,-2.885,-2.885,-2.885,-2.8757,-2.8757,-2.8757,-2.8581,-2.8488,-2.8488,-2.829,-2.8196,-2.8092,-2.7914,-2.7726,-2.7641,-2.7452,-2.7357,-2.7272,-2.7272,-2.7272,-2.7272,-2.7272,-2.7272,-2.7272,-2.7272,-2.7272,-2.7272,-2.7272,-2.7272,-2.7272,-2.7272,-2.7272,-2.7272,-2.7272,-2.7184,-2.7038,-2.6811,-2.6715,-2.6783,-2.6875,-2.6817,-2.6727,-2.6702,-2.6627,-2.6124,-2.573,-2.5385,-2.5107,-2.5034,-2.4849,-2.4574,-2.4445,-2.4317,-2.4236,-2.4144,-2.417,-2.4062,-2.4071,-2.419,-2.4253,-2.4135,-2.4026,-2.4008,-2.3963,-2.3954,-3.4162,-3.3878,-3.358,-3.3381,-3.3281,-3.3281,-3.3281,-3.3281,-3.3281,-3.3281,-3.3092,-3.3081,-3.3081,-3.2969,-3.2768,-3.2667,-3.2667,-3.2555,-3.2544,-3.2544,-3.2544,-3.2544,-3.2791,-3.3037,-3.3261,-3.3092,-3.2689,-3.26,-3.2645,-3.2555,-3.2331,-3.2026,-3.2026,-3.1823,-3.1629,-3.1618,-3.1618,-3.1618,-3.1618,-3.152,-3.1291,-3.0961,-3.0296,-2.9634,-2.9126,-2.8761,-2.8929,-2.895,-2.8903,-2.8822,-2.8757,-2.8757,-2.8757,-2.8664,-2.8571,-2.8571,-2.8384,-2.8196,-2.8186,-2.8092,-2.7904,-2.7809,-2.7631,-2.7536,-2.7441,-2.7357,-2.7367,-2.7272,-2.7272,-2.7272,-2.7272,-2.7272,-2.7272,-2.7272,-2.7272,-2.7272,-2.7272,-2.7272,-2.7272,-2.7272,-2.7272,-2.7272,-2.7272,-2.7272,-2.7112,-2.6851,-2.6627,-2.6515,-2.6222,-2.6297,-2.629,-2.6241,-2.6218,-2.6041,-2.5433,-2.5015,-2.4785,-2.4675,-2.4629,-2.4464,-2.4326,-2.4235,-2.4198,-2.4161,-2.417,-2.4161,-2.4161,-2.4161,-2.4161,-2.418,-2.4189,-2.417,-2.4161,-2.4053,-2.4053,-3.3878,-3.358,-3.3381,-3.3181,-3.3181,-3.3181,-3.3181,-3.3181,-3.3181,-3.2969,-3.288,-3.288,-3.2768,-3.2555,-3.2443,-3.2443,-3.2342,-3.2353,-3.224,-3.224,-3.224,-3.2331,-3.2465,-3.2724,-3.2847,-3.2757,-3.2376,-3.2387,-3.2432,-3.2342,-3.2128,-3.1924,-3.1924,-3.1823,-3.1629,-3.1618,-3.1618,-3.1618,-3.1527,-3.1414,-3.1122,-3.1025,-3.0497,-2.9623,-2.8784,-2.847,-2.8647,-2.8647,-2.8592,-2.8757,-2.8757,-2.8746,-2.8664,-2.8581,-2.8405,-2.8384,-2.8092,-2.7998,-2.7904,-2.7904,-2.7726,-2.7536,-2.7536,-2.7441,-2.7347,-2.7357,-2.7262,-2.7272,-2.7272,-2.7272,-2.7272,-2.7272,-2.7272,-2.7272,-2.7272,-2.7272,-2.7272,-2.7272,-2.7272,-2.7272,-2.7272,-2.7272,-2.7272,-2.7272,-2.7006,-2.6729,-2.6602,-2.6324,-2.6054,-2.5859,-2.5785,-2.5662,-2.5604,-2.5459,-2.4886,-2.4748,-2.4381,-2.4335,-2.4362,-2.4325,-2.427,-2.417,-2.4161,-2.4161,-2.4161,-2.4161,-2.4161,-2.4161,-2.4161,-2.4161,-2.4161,-2.4161,-2.4161,-2.4161,-2.4161,-3.3779,-3.3392,-3.3081,-3.288,-3.2656,-3.2656,-3.2656,-3.2656,-3.2656,-3.2656,-3.2555,-3.2555,-3.2555,-3.2443,-3.2128,-3.2026,-3.1834,-3.1834,-3.1834,-3.1834,-3.1834,-3.1924,-3.2139,-3.2117,-3.2106,-3.1993,-3.1949,-3.196,-3.2015,-3.1823,-3.1823,-3.1721,-3.1721,-3.1629,-3.1629,-3.1618,-3.1516,-3.1527,-3.1424,-3.1219,-3.1041,-3.0675,-3.017,-2.93,-2.855,-2.8344,-2.8488,-2.8571,-2.8664,-2.8488,-2.8488,-2.8384,-2.829,-2.8301,-2.8196,-2.8102,-2.7809,-2.7726,-2.7631,-2.7536,-2.7452,-2.7357,-2.7357,-2.7357,-2.7357,-2.7272,-2.7272,-2.7272,-2.7272,-2.7272,-2.7272,-2.7272,-2.7272,-2.7272,-2.7272,-2.7272,-2.7272,-2.7272,-2.7272,-2.7272,-2.7272,-2.7272,-2.7177,-2.7081,-2.69,-2.6623,-2.641,-2.611,-2.5879,-2.5605,-2.536,-2.5083,-2.4867,-2.4678,-2.4343,-2.438,-2.4216,-2.4225,-2.4198,-2.4198,-2.4161,-2.4161,-2.4161,-2.4161,-2.4161,-2.4161,-2.4161,-2.4161,-2.4161,-2.4161,-2.4161,-2.4161,-2.4161,-2.4161,-2.4161,-3.3481,-3.3081,-3.2768,-3.2656,-3.2555,-3.2544,-3.2544,-3.2544,-3.2544,-3.2443,-3.224,-3.224,-3.2139,-3.2037,-3.1924,-3.1721,-3.1618,-3.1618,-3.1618,-3.1618,-3.1629,-3.1629,-3.1823,-3.1677,-3.1688,-3.1699,-3.1677,-3.1666,-3.171,-3.1721,-3.1618,-3.1618,-3.1618,-3.1618,-3.1527,-3.1424,-3.1424,-3.1333,-3.1127,-3.092,-3.0721,-3.0168,-2.9476,-2.917,-2.8497,-2.8145,-2.8301,-2.8196,-2.8186,-2.8186,-2.8186,-2.8102,-2.8019,-2.7925,-2.7914,-2.782,-2.7536,-2.7452,-2.7452,-2.7357,-2.7357,-2.7367,-2.7272,-2.7272,-2.7272,-2.7272,-2.7272,-2.7272,-2.7272,-2.7272,-2.7272,-2.7272,-2.7272,-2.7272,-2.7272,-2.7272,-2.7272,-2.7272,-2.7272,-2.7272,-2.7272,-2.7177,-2.7081,-2.689,-2.6699,-2.6506,-2.6207,-2.5917,-2.5732,-2.543,-2.5137,-2.4843,-2.4557,-2.4458,-2.4251,-2.4251,-2.4161,-2.4161,-2.4161,-2.4161,-2.4161,-2.4161,-2.4161,-2.4161,-2.4161,-2.4161,-2.4161,-2.4161,-2.4161,-2.4161,-2.4161,-2.4161,-2.4161,-2.4161,-2.4161,-3.2912,-3.2532,-3.2308,-3.2252,-3.2319,-3.2219,-3.2252,-3.2319,-3.2342,-3.2128,-3.1924,-3.1924,-3.1823,-3.1629,-3.1629,-3.1618,-3.1618,-3.1618,-3.1618,-3.1618,-3.1618,-3.1629,-3.1629,-3.1618,-3.1618,-3.1618,-3.1607,-3.1618,-3.1618,-3.1618,-3.1527,-3.1527,-3.1527,-3.1424,-3.1424,-3.123,-3.1127,-3.1034,-3.0827,-3.062,-3.0192,-2.945,-2.9126,-2.9218,-2.8231,-2.782,-2.8196,-2.8008,-2.7809,-2.7904,-2.7904,-2.782,-2.7757,-2.7652,-2.7536,-2.7536,-2.7357,-2.7357,-2.7357,-2.7357,-2.7272,-2.7272,-2.7272,-2.7272,-2.7272,-2.7272,-2.7272,-2.7272,-2.7272,-2.7272,-2.7272,-2.7272,-2.7272,-2.7272,-2.7272,-2.7272,-2.7272,-2.7272,-2.7272,-2.7272,-2.7262,-2.7177,-2.6986,-2.6688,-2.64,-2.6304,-2.6004,-2.582,-2.5528,-2.5333,-2.5039,-2.4745,-2.4449,-2.4359,-2.4161,-2.4251,-2.4161,-2.4161,-2.4161,-2.4161,-2.4161,-2.4161,-2.4161,-2.4161,-2.4161,-2.4161,-2.4161,-2.4161,-2.4161,-2.4161,-2.4161,-2.4161,-2.4161,-2.4161,-2.4161,-3.2308,-3.1517,-3.1407,-3.155,-3.1589,-3.1249,-3.1348,-3.1688,-3.1655,-3.1721,-3.1721,-3.1597,-3.1586,-3.1618,-3.1618,-3.1618,-3.1618,-3.1618,-3.1618,-3.1618,-3.1618,-3.1527,-3.1618,-3.1618,-3.1527,-3.1527,-3.1527,-3.1618,-3.1527,-3.1527,-3.1424,-3.1322,-3.123,-3.1127,-3.1023,-3.092,-3.0838,-3.0827,-3.0609,-3.0401,-3.0255,-2.9317,-2.9142,-2.8982,-2.8412,-2.7747,-2.8019,-2.7904,-2.7809,-2.7631,-2.7631,-2.7536,-2.7452,-2.7357,-2.7347,-2.7347,-2.7357,-2.7272,-2.7272,-2.7272,-2.7272,-2.7272,-2.7272,-2.7272,-2.7272,-2.7272,-2.7272,-2.7272,-2.7272,-2.7272,-2.7272,-2.7272,-2.7272,-2.7272,-2.7272,-2.7272,-2.7272,-2.7262,-2.7262,-2.7177,-2.7081,-2.6986,-2.6794,-2.6496,-2.6197,-2.6004,-2.5907,-2.5625,-2.543,-2.5137,-2.4843,-2.4548,-2.435,-2.4251,-2.4161,-2.4161,-2.4161,-2.4161,-2.4161,-2.4161,-2.4161,-2.4161,-2.4161,-2.4161,-2.4161,-2.4161,-2.4161,-2.4161,-2.4161,-2.4161,-2.4161,-2.4161,-2.4161,-2.4161,-2.4161,-3.1595,-3.0909,-3.0723,-3.0723,-3.0788,-3.0592,-3.0777,-3.1094,-3.0941,-3.1138,-3.1476,-3.1313,-3.1345,-3.1553,-3.1618,-3.1618,-3.1618,-3.1618,-3.1618,-3.1618,-3.1629,-3.1527,-3.1424,-3.1527,-3.1527,-3.123,-3.1333,-3.123,-3.123,-3.1219,-3.1219,-3.1034,-3.0931,-3.0931,-3.0724,-3.0609,-3.0609,-3.0505,-3.0297,-3.0193,-3.0026,-2.9578,-2.9189,-2.9116,-2.8366,-2.8041,-2.7778,-2.7631,-2.7536,-2.7452,-2.7452,-2.7357,-2.7357,-2.7357,-2.7357,-2.7357,-2.7357,-2.7272,-2.7272,-2.7272,-2.7272,-2.7272,-2.7272,-2.7272,-2.7272,-2.7272,-2.7272,-2.7272,-2.7272,-2.7272,-2.7272,-2.7272,-2.7272,-2.7272,-2.7272,-2.7272,-2.7272,-2.7262,-2.7262,-2.7081,-2.689,-2.6699,-2.6592,-2.6304,-2.6004,-2.582,-2.5625,-2.543,-2.5235,-2.4932,-2.4637,-2.4341,-2.4251,-2.426,-2.4161,-2.4161,-2.4161,-2.4161,-2.4161,-2.4161,-2.4161,-2.4161,-2.4152,-2.4152,-2.4152,-2.4152,-2.4161,-2.4161,-2.4161,-2.4161,-2.4161,-2.4161,-2.4161,-2.4161,-2.4161,-3.1042,-3.0513,-3.0428,-3.0384,-3.0384,-3.0373,-3.0515,-3.0668,-3.0537,-3.0799,-3.1236,-3.1203,-3.1269,-3.1433,-3.1542,-3.1618,-3.1618,-3.1618,-3.1618,-3.1618,-3.1527,-3.1424,-3.1333,-3.1333,-3.1127,-3.0827,-3.1023,-3.0931,-3.0817,-3.0806,-3.0806,-3.0724,-3.0724,-3.062,-3.0516,-3.0401,-3.0297,-3.0297,-3.0099,-2.9994,-2.9901,-2.9745,-2.9276,-2.8938,-2.8467,-2.8017,-2.763,-2.7452,-2.7357,-2.7357,-2.7357,-2.7357,-2.7272,-2.7272,-2.7272,-2.7272,-2.7272,-2.7272,-2.7272,-2.7272,-2.7272,-2.7272,-2.7272,-2.7272,-2.7272,-2.7272,-2.7272,-2.7272,-2.7272,-2.7272,-2.7272,-2.7272,-2.7272,-2.7272,-2.7272,-2.7272,-2.7272,-2.7177,-2.7081,-2.6986,-2.6699,-2.639,-2.6197,-2.6004,-2.581,-2.5635,-2.544,-2.5235,-2.4941,-2.4735,-2.444,-2.4143,-2.4143,-2.4152,-2.4053,-2.4053,-2.4053,-2.4053,-2.4053,-2.4053,-2.3954,-2.3954,-2.3945,-2.3945,-2.4053,-2.4152,-2.4152,-2.4152,-2.4161,-2.4161,-2.4161,-2.4161,-2.4161,-2.4161,-2.4161,-3.046,-3.0242,-3.0679,-3.0821,-3.0799,-3.0843,-3.0603,-3.0351,-3.0646,-3.0766,-3.0908,-3.1302,-3.1247,-3.1171,-3.1433,-3.1618,-3.1618,-3.1618,-3.1527,-3.1424,-3.1322,-3.123,-3.1127,-3.1034,-3.0838,-3.0724,-3.0827,-3.0713,-3.0505,-3.0495,-3.0495,-3.0401,-3.0401,-3.0308,-3.0203,-3.0099,-3.0099,-3.0099,-2.9994,-2.9994,-2.9891,-2.9591,-2.9258,-2.8669,-2.8193,-2.7717,-2.7398,-2.7272,-2.7272,-2.7272,-2.7272,-2.7272,-2.7272,-2.7272,-2.7272,-2.7272,-2.7272,-2.7272,-2.7272,-2.7272,-2.7272,-2.7272,-2.7272,-2.7272,-2.7272,-2.7272,-2.7272,-2.7272,-2.7272,-2.7272,-2.7272,-2.7272,-2.7272,-2.7272,-2.7272,-2.7167,-2.7177,-2.6996,-2.69,-2.6805,-2.6506,-2.6197,-2.581,-2.5616,-2.5625,-2.544,-2.5137,-2.5039,-2.4745,-2.444,-2.4341,-2.4143,-2.4143,-2.4053,-2.3854,-2.3854,-2.3755,-2.3755,-2.3655,-2.3655,-2.3555,-2.3546,-2.3646,-2.3746,-2.3845,-2.3954,-2.4053,-2.4053,-2.4053,-2.4161,-2.4161,-2.4161,-2.4161,-2.4161,-2.4161,-3.1173,-3.1105,-3.1269,-3.1007,-3.0482,-3.0482,-3.0384,-3.0199,-3.0089,-3.0035,-3.01,-3.0788,-3.1072,-3.1061,-3.1378,-3.1527,-3.1322,-3.1322,-3.123,-3.1127,-3.1023,-3.0817,-3.0817,-3.0849,-3.0766,-3.0422,-3.0516,-3.0412,-3.0193,-3.0193,-3.0203,-3.0203,-3.0193,-3.0099,-2.9994,-2.9994,-2.9994,-2.9994,-2.9994,-2.9994,-2.9963,-2.9849,-2.9508,-2.9052,-2.8587,-2.8131,-2.7707,-2.7396,-2.7303,-2.7272,-2.7272,-2.7272,-2.7272,-2.7272,-2.7272,-2.7272,-2.7272,-2.7272,-2.7272,-2.7272,-2.7272,-2.7272,-2.7272,-2.7272,-2.7272,-2.7272,-2.7272,-2.7272,-2.7272,-2.7272,-2.7272,-2.7272,-2.7272,-2.7262,-2.7167,-2.7071,-2.6976,-2.6794,-2.6602,-2.64,-2.611,-2.581,-2.5518,-2.5226,-2.5333,-2.5245,-2.5039,-2.4745,-2.444,-2.4152,-2.4044,-2.3945,-2.3945,-2.3845,-2.3655,-2.3555,-2.3555,-2.3456,-2.3356,-2.3356,-2.3247,-2.3447,-2.3546,-2.3546,-2.3546,-2.3655,-2.3755,-2.3854,-2.3954,-2.4053,-2.4161,-2.4161,-2.4161,-2.4152,-2.4152,-3.1618,-3.1618,-3.1618,-3.116,-3.0461,-3.0417,-3.0242,-2.9958,-2.9652,-2.9489,-2.9554,-3.034,-3.0798,-3.0928,-3.1095,-3.1219,-3.1137,-3.1034,-3.0931,-3.0827,-3.0724,-3.0609,-3.0516,-3.0537,-3.0443,-3.0109,-3.0203,-3.0203,-2.9994,-2.9994,-2.9994,-2.9994,-2.9994,-2.9994,-2.9994,-2.9994,-2.9994,-2.9994,-2.9994,-2.9994,-2.9994,-2.9963,-2.9746,-2.928,-2.8804,-2.8349,-2.7883,-2.751,-2.7282,-2.7272,-2.7272,-2.7272,-2.7272,-2.7272,-2.7272,-2.7272,-2.7272,-2.7272,-2.7272,-2.7272,-2.7272,-2.7272,-2.7272,-2.7272,-2.7272,-2.7272,-2.7272,-2.7272,-2.7272,-2.7272,-2.7272,-2.7262,-2.7177,-2.7081,-2.688,-2.6784,-2.6592,-2.6496,-2.6197,-2.5994,-2.5703,-2.5323,-2.5128,-2.4932,-2.4726,-2.4735,-2.444,-2.4242,-2.3945,-2.3845,-2.3755,-2.3755,-2.3655,-2.3546,-2.3347,-2.3247,-2.3256,-2.3055,-2.3055,-2.3046,-2.3046,-2.3147,-2.3247,-2.3247,-2.3247,-2.3356,-2.3456,-2.3655,-2.3854,-2.4053,-2.4053,-2.4053,-2.3954,-2.3954,-2.3954,-3.1575,-3.1618,-3.1597,-3.1302,-3.0854,-3.0876,-3.0406,-2.9762,-2.9543,-2.9489,-2.9598,-3.0252,-3.0443,-3.0572,-3.0756,-3.0909,-3.0827,-3.0827,-3.0724,-3.062,-3.0516,-3.0401,-3.0297,-3.0203,-3.0214,-3.0005,-3.0099,-3.0099,-2.9994,-2.9994,-2.9994,-2.9994,-2.9994,-2.9994,-2.9994,-2.9994,-2.9994,-2.9994,-2.9994,-2.9994,-2.9994,-2.9994,-2.9746,-2.9425,-2.8876,-2.84,-2.8069,-2.7531,-2.7293,-2.7272,-2.7272,-2.7272,-2.7272,-2.7272,-2.7272,-2.7272,-2.7272,-2.7272,-2.7272,-2.7272,-2.7272,-2.7272,-2.7272,-2.7272,-2.7272,-2.7272,-2.7272,-2.7272,-2.7262,-2.7262,-2.7167,-2.7071,-2.6996,-2.6805,-2.6602,-2.64,-2.6294,-2.6004,-2.5703,-2.5606,-2.5226,-2.4833,-2.4735,-2.4538,-2.4223,-2.4035,-2.3935,-2.3746,-2.3546,-2.3546,-2.3555,-2.3456,-2.3456,-2.3247,-2.3046,-2.3046,-2.2946,-2.2754,-2.2754,-2.2745,-2.2846,-2.2846,-2.2846,-2.2946,-2.3046,-2.3046,-2.3247,-2.3447,-2.3555,-2.3755,-2.3755,-2.3755,-2.3746,-2.3746,-2.3746,-3.069,-3.0712,-3.1007,-3.104,-3.0952,-3.1247,-3.0985,-3.0373,-2.9805,-2.9489,-2.9609,-2.9905,-3.0055,-3.0181,-3.0547,-3.0713,-3.0505,-3.0505,-3.0505,-3.0308,-3.0193,-3.0088,-3.0088,-3.0099,-2.9994,-2.9994,-2.9994,-2.9994,-2.9994,-2.9994,-2.9994,-2.9994,-2.9994,-2.9994,-2.9994,-2.9994,-2.9994,-2.9994,-2.9994,-2.9994,-2.9994,-2.9984,-2.9901,-2.9694,-2.9032,-2.8556,-2.8297,-2.7696,-2.7334,-2.7282,-2.7272,-2.7272,-2.7272,-2.7272,-2.7272,-2.7262,-2.7262,-2.7272,-2.7272,-2.7177,-2.7167,-2.7167,-2.7262,-2.7262,-2.7262,-2.7272,-2.7272,-2.7272,-2.7081,-2.7081,-2.6986,-2.6794,-2.6602,-2.6506,-2.6304,-2.6091,-2.58,-2.5421,-2.5128,-2.503,-2.4833,-2.444,-2.4242,-2.4044,-2.3836,-2.3637,-2.3447,-2.3546,-2.3347,-2.3347,-2.3347,-2.3247,-2.3147,-2.2946,-2.2846,-2.2846,-2.2846,-2.2653,-2.2653,-2.2653,-2.2653,-2.2653,-2.2653,-2.2745,-2.2745,-2.2736,-2.2946,-2.3046,-2.3247,-2.3447,-2.3456,-2.3555,-2.3555,-2.3447,-2.3555,-3.022,-3.0253,-3.0537,-3.0656,-3.083,-3.1135,-3.1018,-3.0406,-2.9829,-2.9644,-2.9667,-2.9773,-2.9917,-3.0083,-3.0282,-3.0505,-3.0297,-3.0297,-3.0183,-2.9994,-2.9994,-2.9994,-2.9994,-2.9994,-2.9994,-2.9994,-2.9994,-2.9994,-2.9994,-2.9994,-2.9994,-2.9994,-2.9994,-2.9994,-2.9994,-2.9994,-2.9994,-2.9994,-2.9994,-2.9994,-2.9994,-2.9994,-2.9994,-2.9777,-2.9321,-2.8783,-2.8452,-2.7976,-2.7407,-2.7334,-2.7272,-2.7272,-2.7272,-2.7272,-2.7272,-2.7262,-2.7167,-2.7177,-2.7081,-2.689,-2.689,-2.6976,-2.6965,-2.6976,-2.7071,-2.6976,-2.6976,-2.6976,-2.689,-2.6794,-2.6699,-2.6496,-2.6157,-2.6061,-2.5771,-2.546,-2.5169,-2.478,-2.4735,-2.4637,-2.444,-2.4044,-2.3746,-2.3546,-2.3347,-2.3247,-2.3055,-2.3147,-2.3147,-2.3147,-2.3147,-2.3046,-2.2846,-2.2745,-2.2745,-2.2653,-2.2653,-2.2653,-2.2653,-2.2653,-2.2653,-2.2653,-2.2653,-2.2653,-2.2644,-2.2644,-2.2644,-2.2745,-2.2946,-2.3046,-2.3046,-2.3147,-2.3256,-2.3256,-2.3256,-3.0155,-3.0177,-3.0188,-3.0231,-3.04,-3.0643,-3.0286,-2.9609,-2.9699,-2.9764,-2.9741,-2.9627,-2.9779,-3.016,-3.0141,-3.0047,-3.0047,-2.9953,-2.9994,-2.9984,-2.9994,-2.9994,-2.9973,-2.9932,-2.9922,-2.9953,-2.9942,-2.987,-2.9963,-2.987,-2.987,-2.9963,-2.9901,-2.9932,-2.9953,-2.9994,-2.9994,-2.9994,-2.9994,-2.9994,-2.9994,-2.9994,-2.9994,-2.9818,-2.9477,-2.9001,-2.8597,-2.811,-2.7655,-2.7427,-2.7272,-2.7272,-2.7272,-2.7272,-2.7272,-2.7272,-2.6986,-2.69,-2.69,-2.6602,-2.6496,-2.6496,-2.64,-2.6496,-2.6592,-2.6688,-2.6688,-2.6592,-2.6496,-2.6496,-2.64,-2.5935,-2.5576,-2.5392,-2.5111,-2.483,-2.4494,-2.4365,-2.4267,-2.4134,-2.3945,-2.3646,-2.3456,-2.3247,-2.3147,-2.2946,-2.2846,-2.2854,-2.2854,-2.2854,-2.2854,-2.2754,-2.2653,-2.2653,-2.2653,-2.2653,-2.2653,-2.2653,-2.2653,-2.2653,-2.2653,-2.2653,-2.2653,-2.2653,-2.2653,-2.2653,-2.2644,-2.2653,-2.2653,-2.2754,-2.2846,-2.2846,-2.2955,-2.2854,-2.2854,-2.891,-2.8931,-2.9064,-2.9182,-2.9244,-2.9674,-2.985,-2.9699,-2.9235,-2.918,-2.9522,-2.9273,-2.9293,-2.9366,-2.9777,-2.9725,-2.9746,-2.9808,-2.9963,-2.9973,-2.9797,-2.9963,-2.988,-2.9704,-2.9735,-2.9746,-2.9725,-2.9632,-2.9808,-2.9715,-2.9725,-2.9922,-2.9642,-2.9704,-2.986,-2.9984,-2.9984,-2.9994,-2.9994,-2.9994,-2.9994,-2.9994,-2.9994,-2.987,-2.9601,-2.9135,-2.8638,-2.8214,-2.7759,-2.7355,-2.7282,-2.7272,-2.7272,-2.7262,-2.7262,-2.6986,-2.6794,-2.6602,-2.6602,-2.64,-2.61,-2.5907,-2.581,-2.6014,-2.6304,-2.64,-2.64,-2.6304,-2.61,-2.6004,-2.5771,-2.5412,-2.5043,-2.483,-2.4547,-2.4296,-2.4105,-2.3932,-2.3908,-2.3737,-2.3546,-2.3347,-2.3155,-2.3046,-2.2946,-2.2736,-2.2644,-2.2644,-2.2653,-2.2653,-2.2653,-2.2653,-2.2653,-2.2653,-2.2653,-2.2653,-2.2653,-2.2653,-2.2653,-2.2653,-2.2653,-2.2653,-2.2653,-2.2552,-2.2544,-2.2552,-2.2653,-2.2653,-2.2653,-2.2653,-2.2653,-2.2653,-2.2653,-2.2653,-2.2653,-2.8011,-2.7929,-2.7932,-2.7891,-2.8008,-2.8401,-2.8688,-2.8732,-2.8741,-2.8887,-2.8961,-2.8854,-2.8921,-2.9224,-2.9466,-2.9373,-2.9158,-2.9219,-2.9186,-2.9096,-2.9362,-2.9301,-2.9188,-2.9271,-2.926,-2.925,-2.9259,-2.9135,-2.9363,-2.9301,-2.9259,-2.9611,-2.9259,-2.9373,-2.957,-2.9694,-2.9829,-2.9922,-2.9994,-2.9994,-2.9994,-2.9994,-2.9994,-2.9942,-2.9653,-2.9259,-2.868,-2.8276,-2.7893,-2.7386,-2.7272,-2.7262,-2.7177,-2.7177,-2.7167,-2.6976,-2.6688,-2.6496,-2.6294,-2.6004,-2.5703,-2.5411,-2.5216,-2.5323,-2.5528,-2.5625,-2.582,-2.582,-2.5616,-2.5401,-2.5149,-2.4897,-2.4626,-2.4268,-2.4073,-2.3779,-2.3754,-2.3647,-2.3502,-2.3338,-2.3147,-2.3046,-2.2946,-2.2846,-2.2846,-2.2745,-2.2644,-2.2653,-2.2653,-2.2653,-2.2653,-2.2653,-2.2653,-2.2653,-2.2653,-2.2653,-2.2653,-2.2653,-2.2653,-2.2653,-2.2653,-2.2552,-2.2552,-2.2544,-2.2443,-2.2443,-2.2544,-2.2552,-2.2653,-2.2653,-2.2653,-2.2653,-2.2653,-2.2653,-2.2653,-2.7296,-2.7274,-2.687,-2.6759,-2.6759,-2.7243,-2.7275,-2.7127,-2.8174,-2.8582,-2.8275,-2.8468,-2.861,-2.8695,-2.887,-2.8768,-2.8554,-2.8532,-2.8502,-2.7986,-2.8511,-2.8603,-2.8503,-2.8605,-2.8615,-2.8561,-2.8518,-2.8469,-2.8559,-2.8531,-2.8726,-2.9106,-2.8786,-2.8746,-2.9147,-2.9209,-2.9414,-2.9754,-2.9795,-2.9784,-2.9879,-2.9994,-2.9994,-2.9879,-2.9735,-2.9477,-2.8776,-2.8353,-2.8193,-2.7593,-2.7167,-2.7071,-2.6986,-2.6699,-2.688,-2.6774,-2.639,-2.61,-2.581,-2.5518,-2.5235,-2.503,-2.4824,-2.4726,-2.4833,-2.503,-2.5226,-2.5226,-2.502,-2.4799,-2.4528,-2.4212,-2.3925,-2.3712,-2.3517,-2.3314,-2.3251,-2.3249,-2.3129,-2.2946,-2.2846,-2.2745,-2.2745,-2.2745,-2.2745,-2.2653,-2.2653,-2.2653,-2.2653,-2.2653,-2.2653,-2.2653,-2.2653,-2.2653,-2.2653,-2.2653,-2.2653,-2.2653,-2.2653,-2.2653,-2.2653,-2.2552,-2.2544,-2.2342,-2.2131,-2.2342,-2.2342,-2.2443,-2.2544,-2.2653,-2.2653,-2.2653,-2.2653,-2.2653,-2.2653,-2.7041,-2.7041,-2.6731,-2.6597,-2.666,-2.7118,-2.7087,-2.6734,-2.7187,-2.7544,-2.7719,-2.7852,-2.7758,-2.7842,-2.8087,-2.7976,-2.7753,-2.7874,-2.7905,-2.7925,-2.8176,-2.8035,-2.7955,-2.7955,-2.8066,-2.7965,-2.7803,-2.7801,-2.8106,-2.8167,-2.8026,-2.8289,-2.8076,-2.8208,-2.8696,-2.8737,-2.896,-2.9564,-2.9469,-2.9459,-2.9564,-2.9659,-2.9659,-2.9438,-2.9252,-2.896,-2.8391,-2.8055,-2.7666,-2.7074,-2.6825,-2.6688,-2.6602,-2.6197,-2.6091,-2.5984,-2.5703,-2.5509,-2.5323,-2.5128,-2.4833,-2.4637,-2.443,-2.4332,-2.4332,-2.4538,-2.4538,-2.4529,-2.4473,-2.4245,-2.4008,-2.3578,-2.3293,-2.3098,-2.2886,-2.2858,-2.2936,-2.285,-2.2745,-2.2745,-2.2644,-2.2644,-2.2653,-2.2653,-2.2653,-2.2653,-2.2653,-2.2653,-2.2653,-2.2653,-2.2653,-2.2653,-2.2653,-2.2653,-2.2653,-2.2653,-2.2653,-2.2653,-2.2653,-2.2653,-2.2552,-2.2342,-2.2131,-2.1928,-2.1827,-2.203,-2.2131,-2.2224,-2.2333,-2.2443,-2.2653,-2.2653,-2.2653,-2.2653,-2.2653,-2.6351,-2.617,-2.6069,-2.6092,-2.633,-2.6755,-2.6796,-2.6651,-2.6566,-2.6829,-2.711,-2.7161,-2.7073,-2.7047,-2.7341,-2.7352,-2.7003,-2.7122,-2.6933,-2.7012,-2.7371,-2.7302,-2.7252,-2.7262,-2.7301,-2.7221,-2.711,-2.717,-2.7794,-2.7442,-2.7271,-2.7623,-2.7593,-2.7583,-2.8086,-2.8247,-2.8558,-2.9384,-2.9142,-2.9026,-2.9132,-2.9237,-2.9343,-2.9122,-2.886,-2.8561,-2.8127,-2.7743,-2.7228,-2.6794,-2.641,-2.6197,-2.6004,-2.581,-2.5606,-2.5606,-2.5411,-2.503,-2.4833,-2.4637,-2.444,-2.4233,-2.3935,-2.3737,-2.3538,-2.3746,-2.3945,-2.3935,-2.3935,-2.3727,-2.361,-2.3287,-2.3108,-2.2929,-2.2716,-2.2626,-2.2637,-2.271,-2.2653,-2.2653,-2.2644,-2.2644,-2.2653,-2.2653,-2.2653,-2.2653,-2.2653,-2.2653,-2.2653,-2.2552,-2.2653,-2.2552,-2.2544,-2.2552,-2.2653,-2.2653,-2.2653,-2.2653,-2.2552,-2.2443,-2.2342,-2.1928,-2.1717,-2.1623,-2.1623,-2.1733,-2.1827,-2.192,-2.2123,-2.2232,-2.2443,-2.2653,-2.2653,-2.2552,-2.2653,-2.5539,-2.515,-2.5285,-2.5533,-2.5937,-2.6455,-2.6641,-2.6579,-2.6279,-2.6276,-2.635,-2.6295,-2.6471,-2.6647,-2.6583,-2.6655,-2.6557,-2.6478,-2.6163,-2.6035,-2.6408,-2.6458,-2.6507,-2.6566,-2.6625,-2.6593,-2.6443,-2.6983,-2.7642,-2.7112,-2.6903,-2.7312,-2.7172,-2.6911,-2.7472,-2.7823,-2.8164,-2.8835,-2.8834,-2.8591,-2.8591,-2.8708,-2.892,-2.8886,-2.8605,-2.8164,-2.7733,-2.7292,-2.6871,-2.6386,-2.5897,-2.5703,-2.5509,-2.5323,-2.5314,-2.5216,-2.5128,-2.4833,-2.4637,-2.4341,-2.4044,-2.3746,-2.3447,-2.3247,-2.3046,-2.3038,-2.3238,-2.3238,-2.3247,-2.3276,-2.3161,-2.2982,-2.2918,-2.2754,-2.2516,-2.2455,-2.2572,-2.2653,-2.2653,-2.2653,-2.2653,-2.2653,-2.2653,-2.2653,-2.2653,-2.2653,-2.2552,-2.2653,-2.2653,-2.2552,-2.2544,-2.2443,-2.2443,-2.2443,-2.2552,-2.2552,-2.2552,-2.2443,-2.2342,-2.2232,-2.203,-2.1725,-2.1522,-2.142,-2.142,-2.1428,-2.153,-2.1725,-2.1928,-2.203,-2.2232,-2.2443,-2.2443,-2.2443,-2.2552,-2.5602,-2.4726,-2.544,-2.5802,-2.6009,-2.6765,-2.691,-2.6599,-2.6103,-2.5805,-2.5643,-2.5139,-2.5179,-2.5897,-2.5572,-2.5604,-2.6045,-2.5937,-2.5879,-2.583,-2.6123,-2.6016,-2.6035,-2.6251,-2.6133,-2.6114,-2.5966,-2.6133,-2.6942,-2.6725,-2.632,-2.6271,-2.6576,-2.6645,-2.7068,-2.7343,-2.7609,-2.8344,-2.8398,-2.8048,-2.8009,-2.8135,-2.8398,-2.8231,-2.7986,-2.7752,-2.7419,-2.6902,-2.6369,-2.5859,-2.5411,-2.5118,-2.502,-2.4833,-2.4824,-2.4726,-2.4637,-2.4449,-2.4152,-2.3945,-2.3646,-2.3338,-2.3038,-2.2736,-2.2535,-2.2426,-2.2526,-2.2636,-2.2601,-2.2789,-2.2775,-2.2679,-2.258,-2.2469,-2.2326,-2.2447,-2.2619,-2.2653,-2.2653,-2.2653,-2.2653,-2.2653,-2.2544,-2.2552,-2.2552,-2.2552,-2.2451,-2.2451,-2.2443,-2.2443,-2.2443,-2.2342,-2.2232,-2.2443,-2.2544,-2.2443,-2.2443,-2.2342,-2.2139,-2.1937,-2.1725,-2.1522,-2.1318,-2.1216,-2.1224,-2.113,-2.1326,-2.1522,-2.1623,-2.1725,-2.203,-2.2131,-2.2232,-2.2333,-2.2342]},{"header":{"parameterUnit":"m.s-1","parameterCategory":1,"la1":31.0,"la2":29.5877,"lo1":-88.7671,"lo2":-86.6584,"dy":0.0162,"dx":0.0185,"nx":115,"ny":88,"refTime":"2023-06-07T06:00:00:Z","depth":0,"parameterNumber":3,"parameterNumberName":"V-component_of_WINDS"},"data":[0.0,0.0,0.0,0.0,0.0,0.0,0.0,0.0,0.0,0.0,0.0,0.0,0.0,0.0,0.0,0.0,0.0,0.0,0.0,0.0,0.0,0.0,0.0,0.0,0.0,0.0,0.0,0.0,0.0,0.0,0.0,0.0,0.0,0.0,0.0,0.0,0.0,0.0,0.0,0.0,0.0,0.0,0.0,0.0,0.0,0.0,0.0,0.0,0.0,0.0,0.0,0.0,0.0,0.0,0.0,0.0,0.0,0.0,0.0,0.0,0.0,0.0,0.0,0.0,0.0,0.0,0.0,0.0,0.0,0.0,0.0,0.0,0.0,0.0,0.0,0.0,0.0,0.0,0.0,0.0,0.0,0.0,0.0,0.0,0.0,0.0,0.0,0.0,0.0,0.0,0.0,0.0,0.0,0.0,0.0,0.0,0.0,0.0,0.0,0.0,0.0,0.0,0.0,0.0,0.0,0.0,0.0,0.0,0.0,0.0,0.0,0.0,0.0,0.0,0.0,0.0,0.0,0.0,0.0,0.0,0.0,0.0,0.0,0.0,0.0,0.0,0.0,0.0,0.0,0.0,0.0,0.0,0.0,0.0,0.0,0.0,0.0,0.0,0.0,0.0,0.0,0.0,0.0,0.0,0.0,0.0,0.0,0.0,0.0,0.0,0.0,0.0,0.0,0.0,0.0,0.0,0.0,0.0,0.0,0.0,0.0,0.0,0.0,0.0,0.0,0.0,0.0,0.0,0.0,0.0,0.0,0.0,0.0,0.0,0.0,0.0,0.0,0.0,0.0,0.0,0.0,0.0,0.0,0.0,0.0,0.0,0.0,0.0,0.0,0.0,0.0,0.0,0.0,0.0,0.0,0.0,0.0,0.0,0.0,0.0,0.0,0.0,0.0,0.0,0.0,0.0,0.0,0.0,0.0,0.0,0.0,0.0,0.0,0.0,0.0,0.0,0.0,0.0,0.0,0.0,0.0,0.0,0.0,0.0,0.0,0.0,0.0,0.0,0.0,0.0,0.0,0.0,0.0,0.0,0.0,0.0,0.0,0.0,0.0,0.0,0.0,0.0,0.0,0.0,0.0,0.0,0.0,0.0,0.0,0.0,0.0,0.0,0.0,0.0,0.0,0.0,0.0,0.0,0.0,0.0,0.0,0.0,0.0,0.0,0.0,0.0,0.0,0.0,0.0,0.0,0.0,0.0,0.0,0.0,0.0,0.0,0.0,0.0,0.0,0.0,0.0,0.0,0.0,0.0,0.0,0.0,0.0,0.0,0.0,0.0,0.0,0.0,0.0,0.0,0.0,0.0,0.0,0.0,0.0,0.0,0.0,0.0,0.0,0.0,0.0,0.0,0.0,0.0,0.0,0.0,0.0,0.0,0.0,0.0,0.0,0.0,0.0,0.0,0.0,0.0,0.0,0.0,0.0,0.0,0.0,0.0,0.0,0.0,0.0,0.0,0.0,0.0,0.0,0.0,0.0,0.0,0.0,0.0,0.0,0.0,0.0,0.0,0.0,0.0,0.0,0.0,0.0,0.0,0.0,0.0,0.0,0.0,0.0,0.0,0.0,0.0,0.0,0.0,0.0,0.0,0.0,0.0,0.0,0.0,0.0,0.0,0.0,0.0,0.0,0.0,0.0,0.0,0.0,0.0,0.0,0.0,0.0,0.0,0.0,0.0,0.0,0.0,0.0,0.0,0.0,0.0,0.0,0.0,0.0,0.0,0.0,0.0,0.0,0.0,0.0,0.0,0.0,0.0,0.0,0.0,0.0,0.0,0.0,0.0,0.0,0.0,0.0,0.0,0.0,0.0,0.0,0.0,0.0,0.0,0.0,0.0,0.0,0.0,0.0,0.0,0.0,0.0,0.0,0.0,0.0,0.0,0.0,0.0,0.0,0.0,0.0,0.0,0.0,0.0,0.0,0.0,0.0,0.0,0.0,0.0,0.0,0.0,0.0,0.0,0.0,0.0,0.0,0.0,0.0,0.0,0.0,0.0,0.0,0.0,0.0,0.0,0.0,0.0,0.0,0.0,0.0,0.0,0.0,0.0,0.0,0.0,0.0,0.0,0.0,0.0,0.0,0.0,0.0,0.0,0.0,0.0,0.0,0.0,0.0,0.0,0.0,0.0,0.0,0.0,0.0,0.0,0.0,0.0,0.0,0.0,0.0,0.0,0.0,0.0,0.0,0.0,0.0,0.0,0.0,0.0,0.0,0.0,0.0,0.0,0.0,0.0,0.0,0.0,0.0,0.0,0.0,0.0,0.0,0.0,0.0,0.0,0.0,0.0,0.0,0.0,0.0,0.0,0.0,0.0,0.0,0.0,0.0,0.0,0.0,0.0,0.0,0.0,0.0,0.0,0.0,0.0,0.0,0.0,0.0,0.0,0.0,0.0,0.0,0.0,0.0,0.0,0.0,0.0,0.0,0.0,0.0,0.0,0.0,0.0,0.0,0.0,0.0,0.0,0.0,0.0,0.0,0.0,0.0,0.0,0.0,0.0,0.0,0.0,0.0,0.0,0.0,0.0,0.0,0.0,0.0,0.0,0.0,0.0,0.0,0.0,0.0,0.0,0.0,0.0,0.0,0.0,0.0,0.0,0.0,0.0,0.0,0.0,0.0,0.0,0.0,0.0,0.0,0.0,0.0,0.0,0.0,0.0,0.0,0.0,0.0,0.0,0.0,0.0,0.0,0.0,0.0,0.0,0.0,0.0,0.0,0.0,0.0,0.0,0.0,0.0,0.0,0.0,0.0,0.0,0.0,0.0,0.0,0.0,0.0,0.0,0.0,0.0,0.0,0.0,0.0,0.0,0.0,0.0,0.0,0.0,0.0,0.0,0.0,0.0,0.0,0.0,0.0,0.0,0.0,0.0,0.0,0.0,0.0,0.0,0.0,0.0,0.0,0.0,0.0,0.0,0.0,0.0,0.0,0.0,0.0,0.0,0.0,0.0,0.0,0.0,0.0,0.0,0.0,0.0,0.0,0.0,0.0,0.0,0.0,0.0,0.0,0.0,0.0,0.0,0.0,0.0,0.0,0.0,0.0,0.0,0.0,0.0,0.0,0.0,0.0,0.0,0.0,0.0,0.0,0.0,0.0,0.0,0.0,0.0,0.0,0.0,0.0,0.0,0.0,0.0,0.0,0.0,0.0,0.0,0.0,0.0,0.0,0.0,0.0,0.0,0.0,0.0,0.0,0.0,0.0,0.0,0.0,0.0,0.0,0.0,0.0,0.0,0.0,0.0,0.0,0.0,0.0,0.0,0.0,0.0,0.0,0.0,0.0,0.0,0.0,0.0,0.0,0.0,0.0,0.0,0.0,0.0,0.0,0.0,0.0,0.0,0.0,0.0,0.0,0.0,0.0,0.0,0.0,0.0,0.0,0.0,0.0,0.0,0.0,0.0,0.0,0.0,0.0,0.0,0.0,0.0,0.0,0.0,0.0,0.0,0.0,0.0,0.0,0.0,0.0,0.0,0.0,0.0,0.0,0.0,0.0,0.0,0.0,0.0,0.0,0.0,0.0,0.0,0.0,0.0,0.0,0.0,0.0,0.0,0.0,0.0,0.0,0.0,0.0,0.0,0.0,0.0,0.0,0.0,0.0,0.0,0.0,0.0,0.0,0.0,0.0,0.0,0.0,0.0,0.0,0.0,0.0,0.0,0.0,0.0,0.0,0.0,0.0,0.0,0.0,0.0,0.0,0.0,0.0,0.0,0.0,0.0,0.0,0.0,0.0,0.0,0.0,0.0,0.0,0.0,0.0,0.0,0.0,0.0,0.0,0.0,0.0,0.0,0.0,0.0,0.0,0.0,0.0,0.0,0.0,0.0,0.0,0.0,0.0,0.0,0.0,0.0,0.0,0.0,0.0,0.0,0.0,0.0,0.0,0.0,0.0,0.0,0.0,0.0,0.0,0.0,0.0,0.0,0.0,0.0,0.0,0.0,0.0,0.0,0.0,0.0,0.0,0.0,0.0,0.0,0.0,0.0,0.0,0.0,0.0,0.0,0.0,0.0,0.0,0.0,0.0,0.0,0.0,0.0,0.0,0.0,0.0,0.0,0.0,0.0,0.0,0.0,0.0,0.0,0.0,0.0,0.0,0.0,0.0,0.0,0.0,0.0,0.0,0.0,0.0,0.0,0.0,0.0,0.0,0.0,0.0,0.0,0.0,0.0,0.0,0.0,0.0,0.0,0.0,0.0,0.0,0.0,0.0,0.0,0.0,0.0,0.0,0.0,0.0,0.0,0.0,0.0,-2.8633,0.0,0.0,0.0,-2.9034,0.0,0.0,0.0,0.0,0.0,0.0,0.0,0.0,0.0,0.0,0.0,0.0,0.0,0.0,0.0,0.0,0.0,0.0,0.0,0.0,0.0,0.0,0.0,0.0,0.0,0.0,0.0,0.0,0.0,0.0,0.0,0.0,0.0,0.0,0.0,0.0,0.0,0.0,0.0,0.0,0.0,0.0,0.0,0.0,0.0,0.0,0.0,0.0,0.0,0.0,0.0,0.0,0.0,0.0,0.0,0.0,0.0,0.0,0.0,0.0,0.0,0.0,0.0,0.0,0.0,0.0,0.0,0.0,0.0,0.0,0.0,0.0,0.0,0.0,0.0,0.0,0.0,0.0,0.0,0.0,0.0,0.0,0.0,0.0,0.0,0.0,0.0,0.0,0.0,0.0,0.0,0.0,0.0,0.0,0.0,0.0,0.0,0.0,0.0,0.0,0.0,0.0,0.0,0.0,0.0,0.0,0.0,0.0,0.0,0.0,-2.8283,-2.9012,-2.8975,-2.8929,-2.8934,0.0,0.0,0.0,0.0,0.0,0.0,0.0,0.0,0.0,0.0,0.0,0.0,0.0,0.0,0.0,0.0,0.0,0.0,0.0,0.0,0.0,0.0,0.0,0.0,0.0,0.0,0.0,0.0,0.0,0.0,0.0,0.0,0.0,0.0,0.0,0.0,0.0,0.0,0.0,0.0,0.0,0.0,0.0,0.0,0.0,0.0,0.0,0.0,0.0,0.0,0.0,0.0,0.0,0.0,0.0,0.0,0.0,0.0,0.0,0.0,0.0,0.0,0.0,0.0,0.0,0.0,0.0,0.0,0.0,0.0,0.0,0.0,0.0,0.0,0.0,0.0,0.0,0.0,0.0,0.0,0.0,0.0,0.0,0.0,0.0,0.0,0.0,0.0,0.0,0.0,0.0,0.0,0.0,0.0,0.0,0.0,0.0,0.0,0.0,0.0,0.0,0.0,0.0,0.0,0.0,0.0,0.0,0.0,0.0,0.0,0.0,0.0,-2.8866,-2.884,-2.8898,0.0,0.0,0.0,0.0,0.0,0.0,0.0,0.0,0.0,0.0,0.0,0.0,0.0,0.0,0.0,0.0,0.0,0.0,0.0,0.0,0.0,0.0,0.0,0.0,0.0,0.0,0.0,0.0,0.0,0.0,0.0,0.0,0.0,0.0,0.0,0.0,0.0,0.0,0.0,0.0,0.0,0.0,0.0,0.0,0.0,0.0,0.0,0.0,0.0,0.0,0.0,0.0,0.0,0.0,0.0,0.0,0.0,0.0,0.0,0.0,0.0,0.0,0.0,0.0,0.0,0.0,0.0,0.0,0.0,0.0,0.0,0.0,0.0,0.0,0.0,0.0,0.0,0.0,0.0,0.0,0.0,0.0,0.0,0.0,0.0,0.0,0.0,0.0,0.0,0.0,0.0,0.0,0.0,0.0,0.0,0.0,0.0,0.0,0.0,0.0,0.0,0.0,0.0,0.0,0.0,0.0,0.0,0.0,0.0,0.0,-2.7998,-2.9229,-2.9358,0.0,-2.918,0.0,0.0,0.0,0.0,0.0,0.0,0.0,0.0,0.0,0.0,0.0,0.0,0.0,0.0,0.0,0.0,0.0,0.0,0.0,0.0,0.0,0.0,0.0,0.0,0.0,0.0,0.0,0.0,0.0,0.0,0.0,0.0,0.0,0.0,0.0,0.0,0.0,0.0,0.0,0.0,0.0,0.0,0.0,0.0,0.0,0.0,0.0,0.0,0.0,0.0,0.0,0.0,0.0,0.0,0.0,0.0,0.0,0.0,0.0,0.0,0.0,0.0,0.0,0.0,0.0,0.0,0.0,0.0,0.0,0.0,0.0,0.0,0.0,0.0,0.0,0.0,0.0,0.0,0.0,0.0,0.0,0.0,0.0,0.0,0.0,0.0,0.0,0.0,0.0,0.0,0.0,0.0,0.0,0.0,0.0,0.0,0.0,0.0,0.0,0.0,0.0,0.0,0.0,0.0,0.0,0.0,0.0,0.0,0.0,0.0,-2.8691,-2.9189,-2.92,-2.9113,0.0,0.0,0.0,0.0,0.0,0.0,0.0,0.0,0.0,0.0,0.0,0.0,0.0,0.0,0.0,0.0,0.0,0.0,0.0,0.0,0.0,0.0,0.0,0.0,0.0,0.0,0.0,0.0,0.0,0.0,0.0,0.0,0.0,0.0,0.0,0.0,0.0,0.0,0.0,0.0,0.0,0.0,0.0,0.0,0.0,0.0,0.0,0.0,0.0,0.0,0.0,0.0,0.0,0.0,0.0,0.0,0.0,0.0,0.0,0.0,0.0,0.0,0.0,0.0,0.0,0.0,0.0,0.0,0.0,0.0,0.0,0.0,0.0,0.0,0.0,0.0,0.0,0.0,0.0,0.0,0.0,0.0,0.0,0.0,0.0,0.0,0.0,0.0,0.0,0.0,0.0,0.0,0.0,0.0,0.0,0.0,0.0,0.0,0.0,0.0,0.0,0.0,0.0,0.0,0.0,0.0,0.0,0.0,0.0,0.0,-2.9142,-2.9453,-2.9537,-2.9509,-2.9222,-2.8644,0.0,0.0,0.0,0.0,0.0,0.0,0.0,0.0,0.0,0.0,0.0,0.0,0.0,0.0,0.0,0.0,0.0,0.0,0.0,0.0,0.0,0.0,0.0,0.0,0.0,0.0,0.0,0.0,0.0,0.0,0.0,0.0,0.0,0.0,0.0,0.0,0.0,0.0,0.0,0.0,0.0,0.0,0.0,0.0,0.0,0.0,0.0,0.0,0.0,0.0,0.0,0.0,0.0,0.0,0.0,0.0,0.0,0.0,0.0,0.0,0.0,0.0,0.0,0.0,0.0,0.0,0.0,0.0,0.0,0.0,0.0,0.0,0.0,0.0,0.0,0.0,0.0,0.0,0.0,0.0,0.0,0.0,0.0,0.0,0.0,0.0,0.0,0.0,0.0,0.0,0.0,0.0,0.0,0.0,0.0,0.0,0.0,0.0,0.0,0.0,0.0,0.0,0.0,0.0,0.0,0.0,0.0,0.0,-2.9825,-2.9887,-3.014,-3.0734,-3.0699,-3.0006,0.0,0.0,0.0,0.0,0.0,0.0,0.0,0.0,0.0,0.0,0.0,0.0,0.0,0.0,0.0,0.0,0.0,0.0,0.0,0.0,0.0,0.0,0.0,0.0,0.0,0.0,0.0,0.0,0.0,0.0,0.0,0.0,0.0,0.0,0.0,0.0,0.0,0.0,0.0,0.0,0.0,0.0,0.0,0.0,0.0,0.0,0.0,0.0,0.0,0.0,0.0,0.0,0.0,0.0,0.0,0.0,0.0,0.0,0.0,0.0,0.0,0.0,0.0,0.0,0.0,0.0,0.0,0.0,0.0,0.0,0.0,0.0,0.0,0.0,0.0,0.0,0.0,0.0,0.0,0.0,0.0,0.0,0.0,0.0,0.0,0.0,0.0,0.0,0.0,0.0,0.0,0.0,0.0,0.0,0.0,0.0,0.0,0.0,0.0,0.0,0.0,0.0,0.0,0.0,0.0,0.0,0.0,0.0,0.0,-2.9045,-2.9936,-3.0923,-3.1918,-3.0571,-2.9711,0.0,0.0,0.0,0.0,0.0,0.0,0.0,0.0,0.0,0.0,0.0,0.0,0.0,0.0,0.0,0.0,0.0,0.0,0.0,0.0,0.0,0.0,0.0,0.0,0.0,0.0,0.0,0.0,0.0,0.0,0.0,0.0,0.0,0.0,0.0,0.0,0.0,0.0,0.0,0.0,0.0,0.0,0.0,0.0,0.0,0.0,0.0,0.0,0.0,0.0,0.0,0.0,0.0,0.0,0.0,0.0,0.0,0.0,0.0,0.0,0.0,0.0,0.0,0.0,0.0,0.0,0.0,0.0,0.0,0.0,0.0,0.0,0.0,0.0,0.0,0.0,0.0,0.0,0.0,0.0,0.0,0.0,0.0,0.0,0.0,0.0,0.0,0.0,0.0,0.0,0.0,0.0,0.0,0.0,0.0,0.0,0.0,0.0,0.0,0.0,0.0,0.0,0.0,0.0,0.0,0.0,0.0,0.0,0.0,-2.9747,0.0,-3.1901,-3.2434,-3.0993,-2.9915,0.0,0.0,0.0,0.0,0.0,0.0,0.0,0.0,0.0,0.0,0.0,0.0,0.0,0.0,0.0,0.0,0.0,0.0,0.0,0.0,0.0,0.0,0.0,0.0,0.0,0.0,0.0,0.0,0.0,0.0,0.0,0.0,0.0,0.0,0.0,0.0,0.0,0.0,0.0,0.0,0.0,0.0,0.0,0.0,0.0,0.0,0.0,0.0,0.0,0.0,0.0,0.0,0.0,0.0,0.0,0.0,0.0,0.0,0.0,0.0,0.0,0.0,0.0,0.0,0.0,0.0,0.0,0.0,0.0,0.0,0.0,0.0,0.0,0.0,0.0,0.0,0.0,0.0,0.0,0.0,0.0,0.0,0.0,0.0,0.0,0.0,0.0,0.0,0.0,0.0,0.0,0.0,0.0,0.0,0.0,0.0,0.0,0.0,0.0,0.0,0.0,0.0,0.0,0.0,0.0,0.0,0.0,0.0,-2.9711,-3.2213,-3.3046,-3.2974,-3.2143,-3.2001,-3.0673,0.0,0.0,0.0,0.0,0.0,0.0,0.0,0.0,0.0,0.0,0.0,0.0,0.0,0.0,0.0,0.0,0.0,0.0,0.0,0.0,0.0,0.0,0.0,0.0,0.0,0.0,0.0,0.0,0.0,0.0,0.0,0.0,0.0,0.0,0.0,0.0,0.0,0.0,0.0,0.0,0.0,0.0,0.0,0.0,0.0,0.0,0.0,0.0,0.0,0.0,0.0,0.0,0.0,0.0,0.0,0.0,0.0,0.0,0.0,0.0,0.0,0.0,0.0,0.0,0.0,0.0,0.0,0.0,0.0,0.0,0.0,0.0,0.0,0.0,0.0,0.0,0.0,0.0,0.0,0.0,0.0,0.0,0.0,0.0,0.0,0.0,0.0,0.0,0.0,0.0,0.0,0.0,0.0,0.0,0.0,0.0,0.0,0.0,0.0,0.0,0.0,0.0,0.0,0.0,0.0,0.0,0.0,0.0,0.0,-3.0707,-3.2394,-3.3161,-3.2756,-3.17,-3.0924,0.0,0.0,0.0,0.0,0.0,0.0,0.0,0.0,0.0,0.0,0.0,0.0,0.0,0.0,0.0,0.0,0.0,0.0,0.0,0.0,0.0,0.0,0.0,0.0,0.0,0.0,0.0,0.0,0.0,0.0,0.0,0.0,0.0,0.0,0.0,0.0,0.0,0.0,0.0,0.0,0.0,0.0,0.0,0.0,0.0,0.0,0.0,0.0,0.0,0.0,0.0,0.0,0.0,0.0,0.0,0.0,0.0,0.0,0.0,0.0,0.0,0.0,0.0,0.0,0.0,0.0,0.0,0.0,0.0,0.0,0.0,0.0,0.0,0.0,0.0,0.0,0.0,0.0,0.0,0.0,0.0,0.0,0.0,0.0,0.0,0.0,0.0,0.0,0.0,0.0,0.0,0.0,0.0,0.0,0.0,0.0,0.0,0.0,0.0,0.0,0.0,0.0,0.0,0.0,0.0,0.0,0.0,0.0,0.0,-3.14,-3.3211,-3.408,-3.3677,-3.2409,-3.157,-3.1274,0.0,0.0,0.0,0.0,0.0,0.0,0.0,0.0,0.0,0.0,0.0,0.0,0.0,0.0,0.0,0.0,0.0,0.0,0.0,0.0,0.0,0.0,0.0,0.0,0.0,0.0,0.0,0.0,0.0,0.0,0.0,0.0,0.0,0.0,0.0,0.0,0.0,0.0,0.0,0.0,0.0,0.0,0.0,0.0,0.0,0.0,0.0,0.0,0.0,0.0,0.0,0.0,0.0,0.0,0.0,0.0,0.0,0.0,0.0,0.0,0.0,0.0,0.0,0.0,0.0,0.0,0.0,0.0,0.0,0.0,0.0,0.0,0.0,0.0,0.0,0.0,0.0,0.0,0.0,0.0,0.0,0.0,0.0,0.0,0.0,0.0,0.0,0.0,0.0,0.0,0.0,0.0,0.0,0.0,0.0,0.0,0.0,0.0,0.0,0.0,0.0,0.0,0.0,0.0,0.0,0.0,0.0,0.0,-3.3754,-3.5332,-3.5728,-3.4773,-3.3871,-3.2541,0.0,0.0,0.0,0.0,0.0,0.0,0.0,0.0,0.0,0.0,0.0,0.0,0.0,0.0,0.0,0.0,0.0,0.0,0.0,0.0,0.0,0.0,0.0,0.0,0.0,0.0,0.0,0.0,0.0,0.0,0.0,0.0,0.0,0.0,0.0,0.0,0.0,0.0,0.0,0.0,0.0,0.0,0.0,0.0,0.0,0.0,0.0,0.0,0.0,0.0,0.0,0.0,0.0,0.0,0.0,0.0,0.0,0.0,0.0,0.0,0.0,0.0,0.0,0.0,0.0,0.0,0.0,0.0,0.0,0.0,0.0,0.0,0.0,0.0,0.0,0.0,0.0,0.0,0.0,0.0,0.0,0.0,0.0,0.0,0.0,0.0,0.0,0.0,0.0,0.0,0.0,0.0,0.0,0.0,0.0,0.0,0.0,0.0,0.0,0.0,0.0,0.0,0.0,0.0,0.0,0.0,0.0,0.0,0.0,-3.5791,-3.7285,-3.7275,-3.5564,-3.4119,-3.3247,0.0,0.0,0.0,0.0,0.0,0.0,0.0,0.0,0.0,0.0,0.0,0.0,0.0,0.0,0.0,0.0,0.0,0.0,0.0,0.0,0.0,0.0,0.0,0.0,0.0,0.0,0.0,0.0,0.0,0.0,0.0,0.0,0.0,0.0,0.0,0.0,0.0,0.0,0.0,0.0,0.0,0.0,0.0,0.0,0.0,0.0,0.0,0.0,0.0,0.0,0.0,0.0,0.0,0.0,0.0,0.0,0.0,0.0,0.0,0.0,0.0,0.0,0.0,0.0,0.0,0.0,0.0,0.0,0.0,0.0,0.0,0.0,0.0,0.0,0.0,0.0,0.0,0.0,0.0,0.0,0.0,0.0,0.0,0.0,0.0,0.0,0.0,0.0,0.0,0.0,0.0,0.0,0.0,0.0,0.0,0.0,0.0,0.0,0.0,0.0,0.0,0.0,0.0,0.0,0.0,0.0,0.0,0.0,-3.5346,-3.7137,-3.8286,-3.8454,-3.764,-3.5987,-3.4677,0.0,0.0,0.0,0.0,0.0,0.0,0.0,0.0,0.0,0.0,0.0,0.0,0.0,0.0,0.0,0.0,0.0,0.0,0.0,0.0,0.0,0.0,0.0,0.0,0.0,0.0,0.0,0.0,0.0,0.0,0.0,0.0,0.0,0.0,0.0,0.0,0.0,0.0,0.0,0.0,0.0,0.0,0.0,0.0,0.0,0.0,0.0,0.0,0.0,0.0,0.0,0.0,0.0,0.0,0.0,0.0,0.0,0.0,0.0,0.0,0.0,0.0,0.0,0.0,0.0,0.0,0.0,0.0,0.0,0.0,0.0,0.0,0.0,0.0,0.0,0.0,0.0,0.0,0.0,0.0,0.0,0.0,0.0,0.0,0.0,0.0,0.0,0.0,0.0,0.0,0.0,0.0,0.0,0.0,0.0,0.0,0.0,0.0,0.0,0.0,0.0,0.0,0.0,0.0,0.0,0.0,0.0,0.0,-3.6108,-3.7953,-3.8809,-3.9567,-4.0087,-3.8455,-3.643,0.0,0.0,0.0,0.0,0.0,0.0,0.0,0.0,0.0,0.0,0.0,0.0,0.0,0.0,0.0,0.0,0.0,0.0,0.0,0.0,0.0,0.0,0.0,0.0,0.0,0.0,0.0,0.0,0.0,0.0,0.0,0.0,0.0,0.0,0.0,0.0,0.0,0.0,0.0,0.0,0.0,0.0,0.0,0.0,0.0,0.0,0.0,0.0,0.0,0.0,0.0,0.0,0.0,0.0,0.0,0.0,0.0,0.0,0.0,0.0,0.0,0.0,0.0,0.0,0.0,0.0,0.0,0.0,0.0,0.0,0.0,0.0,0.0,0.0,0.0,0.0,0.0,0.0,0.0,0.0,0.0,0.0,0.0,0.0,0.0,0.0,0.0,0.0,0.0,0.0,0.0,0.0,0.0,0.0,0.0,0.0,0.0,0.0,0.0,0.0,0.0,0.0,0.0,0.0,0.0,0.0,0.0,0.0,-3.6489,-3.792,-3.9781,-4.0835,-4.0967,-3.8876,-3.7042,0.0,0.0,0.0,0.0,0.0,0.0,0.0,0.0,0.0,0.0,0.0,0.0,0.0,0.0,0.0,0.0,0.0,0.0,0.0,0.0,0.0,0.0,0.0,0.0,0.0,0.0,0.0,0.0,0.0,0.0,0.0,0.0,0.0,0.0,0.0,0.0,0.0,0.0,0.0,0.0,0.0,0.0,0.0,0.0,0.0,0.0,0.0,0.0,-3.191,0.0,0.0,0.0,0.0,0.0,0.0,0.0,0.0,0.0,0.0,0.0,0.0,0.0,0.0,0.0,0.0,0.0,0.0,0.0,0.0,0.0,0.0,0.0,0.0,0.0,0.0,0.0,0.0,0.0,0.0,0.0,0.0,0.0,0.0,0.0,0.0,0.0,0.0,0.0,0.0,0.0,0.0,0.0,0.0,0.0,0.0,0.0,0.0,0.0,0.0,0.0,0.0,0.0,0.0,0.0,0.0,0.0,0.0,0.0,-3.6951,-3.7969,-4.0094,-4.1173,-4.1066,-3.9926,-3.8389,0.0,0.0,0.0,0.0,0.0,0.0,0.0,0.0,0.0,0.0,0.0,0.0,0.0,0.0,0.0,0.0,0.0,0.0,0.0,0.0,0.0,0.0,0.0,0.0,0.0,0.0,0.0,0.0,0.0,0.0,0.0,0.0,0.0,0.0,0.0,0.0,0.0,0.0,0.0,0.0,0.0,0.0,0.0,0.0,0.0,0.0,0.0,0.0,0.0,0.0,0.0,0.0,0.0,0.0,0.0,0.0,0.0,0.0,0.0,0.0,0.0,0.0,0.0,0.0,0.0,0.0,0.0,0.0,0.0,0.0,0.0,0.0,0.0,0.0,0.0,0.0,0.0,0.0,0.0,0.0,0.0,0.0,0.0,0.0,0.0,0.0,0.0,0.0,0.0,0.0,0.0,0.0,0.0,0.0,0.0,0.0,0.0,0.0,0.0,0.0,0.0,0.0,0.0,0.0,0.0,0.0,0.0,-3.5726,-3.7364,-3.8018,-3.9939,-4.0984,-4.0967,-4.0869,-3.968,-3.7258,0.0,0.0,0.0,0.0,0.0,0.0,0.0,0.0,0.0,0.0,0.0,0.0,0.0,0.0,0.0,0.0,0.0,0.0,0.0,0.0,0.0,0.0,0.0,0.0,0.0,0.0,0.0,0.0,0.0,0.0,0.0,0.0,0.0,0.0,0.0,0.0,0.0,0.0,-3.2924,-3.3615,0.0,0.0,0.0,0.0,0.0,0.0,0.0,0.0,-3.3589,0.0,0.0,0.0,0.0,0.0,0.0,0.0,0.0,0.0,0.0,0.0,0.0,0.0,0.0,0.0,0.0,0.0,0.0,0.0,0.0,0.0,0.0,0.0,0.0,0.0,0.0,0.0,0.0,0.0,0.0,0.0,0.0,0.0,0.0,0.0,0.0,0.0,0.0,0.0,0.0,0.0,0.0,0.0,0.0,0.0,0.0,0.0,0.0,0.0,0.0,0.0,0.0,0.0,0.0,0.0,0.0,-3.3744,-3.586,-3.7192,-3.7777,-3.9319,-4.0418,-4.0951,-4.0394,-3.9502,-3.8335,0.0,0.0,0.0,0.0,0.0,0.0,0.0,0.0,0.0,0.0,0.0,0.0,0.0,0.0,0.0,0.0,0.0,0.0,0.0,0.0,0.0,0.0,0.0,0.0,0.0,0.0,0.0,0.0,0.0,0.0,0.0,0.0,0.0,0.0,0.0,0.0,0.0,0.0,0.0,-3.5696,-3.5913,0.0,0.0,0.0,0.0,0.0,0.0,0.0,0.0,-3.3521,0.0,0.0,0.0,0.0,0.0,0.0,0.0,0.0,0.0,0.0,0.0,0.0,0.0,0.0,0.0,0.0,0.0,0.0,0.0,0.0,0.0,0.0,0.0,0.0,0.0,0.0,0.0,0.0,0.0,0.0,0.0,0.0,0.0,0.0,0.0,0.0,0.0,0.0,0.0,0.0,0.0,0.0,0.0,0.0,0.0,0.0,0.0,0.0,0.0,0.0,0.0,0.0,0.0,0.0,0.0,-3.3779,-3.5728,-3.7072,-3.7707,-3.911,-4.0148,-4.0818,-3.9748,-3.8902,0.0,0.0,0.0,0.0,0.0,0.0,0.0,0.0,0.0,0.0,0.0,0.0,0.0,0.0,0.0,0.0,0.0,0.0,0.0,0.0,0.0,0.0,0.0,0.0,0.0,0.0,0.0,0.0,0.0,0.0,0.0,0.0,0.0,0.0,0.0,0.0,0.0,0.0,0.0,0.0,-3.6331,-3.6888,-3.7543,0.0,0.0,0.0,0.0,0.0,0.0,-3.5251,-3.5038,0.0,0.0,0.0,0.0,0.0,0.0,0.0,0.0,0.0,0.0,0.0,0.0,0.0,0.0,0.0,0.0,0.0,0.0,0.0,0.0,0.0,0.0,0.0,0.0,0.0,0.0,0.0,0.0,0.0,0.0,0.0,0.0,0.0,0.0,0.0,0.0,0.0,0.0,0.0,0.0,0.0,0.0,0.0,0.0,0.0,0.0,0.0,0.0,0.0,0.0,0.0,0.0,0.0,0.0,0.0,-3.4098,-3.5843,-3.7137,-3.7937,-3.8988,-3.9944,-4.0668,-3.9308,-3.8504,0.0,0.0,0.0,0.0,0.0,0.0,0.0,0.0,0.0,0.0,0.0,0.0,0.0,0.0,0.0,0.0,0.0,0.0,0.0,0.0,0.0,0.0,0.0,0.0,0.0,0.0,0.0,0.0,0.0,0.0,0.0,0.0,0.0,0.0,0.0,0.0,0.0,0.0,0.0,0.0,0.0,-3.8087,-3.8591,-3.8245,0.0,0.0,0.0,0.0,-3.6664,-3.7288,0.0,0.0,0.0,0.0,0.0,0.0,0.0,0.0,0.0,0.0,0.0,0.0,0.0,0.0,0.0,0.0,0.0,0.0,0.0,0.0,0.0,0.0,0.0,0.0,0.0,0.0,0.0,0.0,0.0,0.0,0.0,0.0,0.0,0.0,0.0,0.0,0.0,0.0,0.0,0.0,0.0,0.0,0.0,0.0,0.0,0.0,0.0,0.0,0.0,0.0,0.0,0.0,0.0,0.0,0.0,0.0,-3.5563,-3.6421,-3.7488,-3.8608,-3.8838,-3.9575,-4.0918,-3.9519,-3.8766,0.0,0.0,0.0,0.0,0.0,0.0,0.0,0.0,0.0,0.0,0.0,0.0,0.0,0.0,0.0,0.0,0.0,0.0,0.0,0.0,0.0,0.0,0.0,0.0,0.0,0.0,0.0,0.0,0.0,0.0,0.0,0.0,0.0,0.0,0.0,0.0,0.0,0.0,0.0,0.0,0.0,-4.0181,-4.0051,-4.0117,-3.9913,0.0,0.0,-3.9106,-3.8578,-3.9747,0.0,0.0,0.0,0.0,0.0,0.0,0.0,0.0,0.0,0.0,0.0,0.0,0.0,0.0,0.0,0.0,0.0,0.0,0.0,0.0,0.0,0.0,0.0,0.0,0.0,0.0,0.0,0.0,0.0,0.0,0.0,0.0,0.0,0.0,0.0,0.0,0.0,0.0,0.0,0.0,0.0,0.0,0.0,0.0,0.0,0.0,0.0,0.0,0.0,0.0,0.0,0.0,0.0,0.0,0.0,-3.3568,-3.5794,-3.6537,-3.7538,-3.8865,-3.8805,-3.9352,-4.0458,-3.9024,-3.8215,0.0,0.0,0.0,0.0,0.0,0.0,0.0,0.0,0.0,0.0,0.0,0.0,0.0,0.0,0.0,0.0,0.0,0.0,0.0,0.0,0.0,0.0,0.0,0.0,0.0,0.0,0.0,0.0,0.0,0.0,0.0,0.0,0.0,0.0,0.0,0.0,0.0,0.0,0.0,0.0,0.0,0.0,-4.1018,-4.1227,0.0,0.0,0.0,-4.088,-4.024,0.0,0.0,0.0,0.0,0.0,0.0,0.0,0.0,0.0,0.0,0.0,0.0,0.0,0.0,0.0,0.0,0.0,0.0,0.0,0.0,0.0,0.0,0.0,0.0,0.0,0.0,0.0,0.0,0.0,0.0,0.0,0.0,0.0,0.0,0.0,0.0,0.0,0.0,0.0,0.0,0.0,0.0,0.0,0.0,0.0,0.0,0.0,0.0,0.0,0.0,0.0,0.0,0.0,0.0,0.0,0.0,0.0,-3.614,-3.6754,-3.7862,-3.9358,-3.9391,-3.9803,-4.0717,-3.927,0.0,0.0,0.0,0.0,0.0,0.0,0.0,0.0,0.0,0.0,0.0,0.0,0.0,0.0,0.0,0.0,0.0,0.0,0.0,0.0,0.0,0.0,0.0,0.0,0.0,0.0,0.0,-2.9426,0.0,0.0,0.0,0.0,0.0,0.0,0.0,0.0,0.0,0.0,0.0,0.0,0.0,0.0,-4.1164,-4.1828,-4.2439,-4.2826,0.0,0.0,-4.2961,-4.2204,-4.2894,-4.2954,0.0,0.0,0.0,0.0,0.0,0.0,0.0,0.0,0.0,0.0,0.0,0.0,0.0,0.0,0.0,0.0,0.0,0.0,0.0,0.0,0.0,0.0,0.0,0.0,0.0,0.0,0.0,0.0,0.0,0.0,0.0,0.0,0.0,0.0,0.0,0.0,0.0,0.0,0.0,0.0,0.0,0.0,0.0,0.0,0.0,0.0,0.0,0.0,0.0,0.0,0.0,0.0,0.0,0.0,-3.4272,-3.7086,-3.7385,-3.8488,-4.0567,-4.0675,-4.1293,-4.2565,-4.1183,-4.003,0.0,0.0,0.0,0.0,0.0,0.0,0.0,0.0,0.0,0.0,0.0,0.0,0.0,0.0,0.0,0.0,0.0,0.0,0.0,0.0,0.0,0.0,0.0,0.0,0.0,0.0,0.0,0.0,0.0,0.0,0.0,0.0,0.0,0.0,0.0,0.0,0.0,0.0,0.0,0.0,0.0,-4.2057,-4.2725,-4.4237,-4.5359,0.0,-4.5613,-4.5619,-4.4919,-4.5797,-4.5636,-4.2841,0.0,0.0,0.0,0.0,0.0,0.0,0.0,0.0,0.0,0.0,0.0,0.0,0.0,0.0,0.0,0.0,0.0,0.0,0.0,0.0,0.0,0.0,0.0,0.0,0.0,0.0,0.0,0.0,0.0,0.0,0.0,0.0,0.0,0.0,0.0,0.0,0.0,0.0,0.0,0.0,0.0,0.0,0.0,0.0,0.0,0.0,0.0,0.0,0.0,0.0,0.0,0.0,0.0,-3.4975,-3.727,-3.7528,-3.8623,-4.0715,-4.0799,-4.1268,-4.2234,-4.1209,-4.0017,0.0,0.0,0.0,0.0,0.0,0.0,0.0,0.0,0.0,0.0,0.0,0.0,0.0,0.0,0.0,0.0,0.0,0.0,0.0,0.0,0.0,0.0,0.0,0.0,0.0,0.0,0.0,0.0,-3.2401,-3.3013,-3.3514,0.0,0.0,0.0,0.0,0.0,0.0,0.0,0.0,0.0,0.0,-4.3533,-4.3856,-4.5311,0.0,0.0,-4.6092,-4.6209,-4.6044,-4.6137,-4.5698,-4.4228,-4.3172,0.0,0.0,0.0,0.0,0.0,0.0,0.0,0.0,0.0,0.0,0.0,0.0,0.0,0.0,0.0,0.0,0.0,0.0,0.0,0.0,0.0,0.0,0.0,0.0,0.0,0.0,0.0,0.0,0.0,0.0,0.0,0.0,0.0,0.0,0.0,0.0,0.0,0.0,0.0,0.0,0.0,0.0,0.0,0.0,0.0,0.0,0.0,0.0,0.0,0.0,0.0,0.0,-3.5391,-3.7415,-3.7669,-3.8874,-4.1211,-4.1261,-4.1678,-4.2567,-4.182,-4.0679,0.0,0.0,0.0,0.0,0.0,0.0,0.0,0.0,0.0,0.0,0.0,0.0,0.0,0.0,0.0,0.0,0.0,0.0,0.0,0.0,0.0,0.0,0.0,0.0,0.0,0.0,0.0,0.0,-3.2741,-3.3401,-3.3901,0.0,0.0,0.0,0.0,0.0,0.0,0.0,0.0,0.0,0.0,-4.4278,-4.483,-4.5937,-4.6594,-4.6372,-4.6258,-4.6256,-4.6496,-4.6192,-4.5813,-4.5183,0.0,0.0,0.0,0.0,0.0,0.0,0.0,0.0,0.0,0.0,0.0,0.0,0.0,0.0,0.0,0.0,0.0,0.0,0.0,0.0,0.0,0.0,0.0,0.0,0.0,0.0,0.0,-3.0244,0.0,0.0,-2.9279,0.0,0.0,0.0,0.0,0.0,0.0,0.0,0.0,0.0,0.0,0.0,0.0,0.0,0.0,0.0,0.0,0.0,0.0,0.0,0.0,0.0,0.0,-3.5537,-3.7665,-3.7835,-3.9326,-4.2151,-4.2269,-4.2875,-4.4108,-4.3502,-4.237,-4.0715,0.0,0.0,0.0,0.0,0.0,0.0,0.0,0.0,0.0,0.0,0.0,0.0,0.0,0.0,0.0,0.0,0.0,0.0,0.0,0.0,0.0,0.0,0.0,0.0,0.0,0.0,-3.2125,-3.3259,-3.4068,0.0,0.0,0.0,0.0,0.0,0.0,0.0,0.0,0.0,-3.9914,-4.2077,-4.4057,-4.5629,-4.5974,-4.6372,-4.6779,-4.6281,-4.596,-4.6302,-4.6445,-4.6262,0.0,0.0,0.0,0.0,0.0,0.0,0.0,0.0,0.0,0.0,0.0,0.0,0.0,0.0,0.0,0.0,0.0,0.0,0.0,0.0,0.0,0.0,0.0,0.0,0.0,0.0,0.0,-3.1406,-3.1166,0.0,0.0,0.0,0.0,0.0,0.0,0.0,0.0,0.0,0.0,0.0,-3.4772,-3.4805,0.0,0.0,0.0,0.0,0.0,0.0,0.0,0.0,0.0,0.0,0.0,0.0,-3.6776,-3.8362,-3.8565,-3.9817,-4.2213,-4.1811,-4.2216,-4.363,-4.2901,-4.1496,-3.9393,0.0,0.0,0.0,0.0,0.0,0.0,0.0,0.0,0.0,0.0,0.0,0.0,0.0,0.0,0.0,0.0,0.0,0.0,0.0,0.0,0.0,0.0,0.0,0.0,0.0,-3.3275,0.0,0.0,0.0,0.0,0.0,0.0,0.0,0.0,0.0,0.0,0.0,-4.0449,-4.1292,-4.373,-4.5473,-4.5685,-4.6553,-4.7276,0.0,0.0,0.0,0.0,0.0,0.0,0.0,0.0,0.0,0.0,0.0,0.0,0.0,0.0,-4.6215,-4.4477,-4.3895,-4.3571,-4.3078,0.0,0.0,0.0,0.0,0.0,0.0,0.0,0.0,0.0,0.0,0.0,0.0,0.0,0.0,-3.2884,0.0,-3.2884,0.0,0.0,0.0,0.0,0.0,0.0,0.0,0.0,-3.4628,-3.5515,-3.6439,-3.6771,-3.7519,0.0,-3.7951,-3.6877,0.0,0.0,0.0,0.0,0.0,0.0,0.0,0.0,-3.7753,-3.8821,-3.8922,-3.9851,-4.1715,-4.162,-4.2115,-4.3297,-4.2584,-4.135,-3.9564,-3.793,-3.6848,0.0,0.0,0.0,0.0,0.0,0.0,0.0,0.0,0.0,0.0,0.0,0.0,0.0,0.0,0.0,0.0,0.0,0.0,0.0,0.0,0.0,0.0,0.0,-3.3567,0.0,0.0,0.0,0.0,0.0,0.0,0.0,0.0,0.0,-3.9309,-4.0803,-4.2075,-4.272,-4.4653,-4.5979,-4.5958,0.0,0.0,0.0,0.0,0.0,0.0,0.0,-4.7022,-4.7217,-4.7148,-4.7026,-4.6811,-4.7244,-4.77,-4.774,0.0,0.0,-4.6144,-4.5832,-4.561,-4.4875,-4.6144,-4.685,-4.5172,-4.5977,-4.6713,0.0,0.0,0.0,0.0,0.0,0.0,0.0,0.0,-3.575,-3.5389,0.0,-3.5324,0.0,0.0,0.0,0.0,0.0,-3.5217,0.0,0.0,-3.7645,-3.7849,-3.7269,-3.817,-3.8757,-3.8925,-3.9615,-3.9986,-3.9885,-3.6443,0.0,0.0,0.0,0.0,0.0,0.0,-3.8311,-3.9054,-3.9041,-3.9631,-4.1054,-4.1715,-4.2391,-4.3081,-4.2655,-4.1999,-4.1204,-3.914,-3.7973,-3.7905,-3.6518,0.0,0.0,0.0,0.0,0.0,0.0,0.0,0.0,0.0,0.0,0.0,0.0,0.0,0.0,0.0,0.0,0.0,0.0,0.0,0.0,-3.3241,0.0,0.0,0.0,0.0,0.0,0.0,0.0,0.0,0.0,0.0,-4.0275,-4.212,-4.3624,-4.4092,0.0,0.0,0.0,0.0,-4.6016,-4.7237,-4.6843,-4.6529,-4.6845,-4.7479,-4.7962,-4.8082,0.0,0.0,-4.8531,-4.8411,-4.847,-4.8627,-4.8208,-4.8144,-4.9264,-4.9308,-4.9103,-4.8401,-4.8929,-4.9399,-4.8712,-4.8335,-4.8541,-4.227,0.0,0.0,0.0,0.0,-3.8513,-3.8358,-3.7916,-3.7124,-3.6831,-3.6852,-3.6312,0.0,0.0,0.0,0.0,0.0,0.0,-3.6547,-3.688,-3.7779,-3.8484,-3.8955,-3.9882,-4.066,-4.1304,-4.1523,-4.1608,-4.1593,-4.002,-3.8821,-3.7976,0.0,0.0,0.0,0.0,-3.9767,-4.039,-4.0877,-4.158,-4.2445,-4.1624,-4.1523,-4.2244,-4.2673,-4.2597,-4.1856,-4.0324,-3.9242,-3.87,-3.777,0.0,0.0,0.0,0.0,0.0,0.0,0.0,0.0,0.0,0.0,0.0,0.0,0.0,0.0,0.0,0.0,0.0,0.0,0.0,-3.4857,-3.4448,-3.4726,0.0,0.0,0.0,0.0,0.0,0.0,0.0,0.0,0.0,-4.2576,-4.4065,-4.4792,0.0,0.0,-4.6333,-4.6083,-4.6298,-4.6825,-4.7699,-4.7872,0.0,-4.7989,-4.7922,-4.8088,-4.8657,-4.8972,-4.9222,-4.9197,-4.918,-4.9282,-4.9498,-4.9384,-4.9441,-4.9993,-5.0171,-4.9647,-4.8515,-4.9516,-5.012,-4.8471,-4.8816,-4.9436,-4.4665,-4.3021,-4.1565,-4.0646,-4.0167,-3.9994,-3.9738,-3.9381,-3.8553,-3.8423,-3.8763,-3.7968,-3.7442,-3.7128,-3.7036,0.0,0.0,0.0,-3.8331,-3.8735,-3.9379,-3.9987,-4.0598,-4.1516,-4.225,-4.2726,-4.2743,-4.2895,-4.3183,-4.2134,-4.1339,-4.0713,0.0,0.0,-3.8802,-3.9902,-4.0796,-4.1432,-4.1778,-4.2122,-4.2501,-4.1861,-4.1966,-4.2741,-4.2965,-4.2886,-4.2488,-4.086,-3.9901,-3.9699,-3.8183,-3.7256,0.0,0.0,0.0,0.0,0.0,0.0,0.0,0.0,0.0,0.0,0.0,-3.5455,-3.5663,0.0,0.0,0.0,-3.5613,-3.5875,-3.6757,-3.6284,0.0,0.0,0.0,0.0,0.0,0.0,0.0,-4.111,-4.2237,-4.3115,-4.3578,-4.4887,-4.5467,-4.4605,-4.5632,-4.6394,-4.6245,0.0,-4.7156,-4.795,-4.8292,-4.8564,-4.861,-4.8444,-4.8494,-4.8978,-4.9246,-4.935,-4.9488,-4.9547,-4.9666,-4.9825,-4.9942,-5.0057,-5.0302,-5.0585,-5.0484,-4.9153,-5.0119,-5.0616,-4.8907,-4.9355,-4.9855,-4.6359,-4.6205,-4.373,-4.2348,-4.1695,-4.1015,-4.0783,-4.0788,-4.0073,-4.0121,-4.075,-3.9975,-3.9267,-3.8594,-3.8221,0.0,-3.9057,-4.0023,-4.0779,-4.1409,-4.1722,-4.1904,-4.1937,-4.2918,-4.3365,-4.3403,-4.347,-4.3876,-4.4468,-4.3166,-4.2794,-4.3335,-4.1356,-4.0324,-4.0341,-4.0879,-4.1516,-4.2173,-4.1961,-4.1866,-4.176,-4.2499,-4.3239,-4.3905,-4.3344,-4.2975,-4.2925,-4.0933,-4.0113,-4.0648,-3.8154,-3.6949,-3.7484,0.0,0.0,0.0,0.0,0.0,0.0,0.0,0.0,0.0,0.0,0.0,0.0,0.0,0.0,-3.6818,-3.6795,0.0,-3.8728,-3.8344,0.0,0.0,0.0,-3.9404,-3.952,-4.0133,-4.1077,-4.2452,0.0,0.0,-4.3645,-4.4837,-4.5715,-4.5781,-4.5847,-4.6113,-4.6808,-4.6941,-4.7287,-4.808,-4.8356,-4.8564,-4.8769,-4.8844,-4.9012,-4.9168,-4.935,-4.9428,-4.9488,-4.953,-4.9666,-4.9691,-4.9942,-5.0189,-5.0171,-5.0898,-5.1228,-5.0298,-5.076,-5.1072,-5.0138,-4.9942,-5.0034,-4.8067,-4.7268,-4.6116,-4.4586,-4.3041,-4.2975,-4.2696,-4.2329,-4.1476,-4.1281,-4.1515,-4.068,-4.0333,-4.0361,-4.0312,-4.0409,-4.08,-4.1021,-4.1243,-4.1409,-4.1627,-4.1827,-4.1937,-4.2824,-4.3327,-4.3453,-4.4012,-4.4401,-4.4553,-4.4215,-4.3826,-4.342,-4.2878,-4.2337,-4.1813,-4.2362,-4.2723,-4.278,-4.318,-4.3024,-4.2377,-4.3041,-4.3256,-4.2916,-4.2865,-4.2839,-4.2822,-4.1347,-4.0615,-4.0749,-3.9577,-3.874,-3.8355,-3.8003,0.0,0.0,0.0,0.0,0.0,0.0,0.0,0.0,0.0,-3.5654,-3.6804,0.0,-3.5512,0.0,-3.7017,-3.7579,-3.9016,-3.8573,0.0,0.0,-4.0431,-4.0547,-4.1624,-4.1905,-4.2369,-4.3247,-4.3512,-4.3645,-4.3645,-4.439,-4.518,-4.5706,-4.6291,-4.6709,-4.6891,-4.7404,-4.7867,-4.8129,-4.8373,-4.8564,-4.8769,-4.8894,-4.9018,-4.9046,-4.9063,-4.9124,-4.9246,-4.929,-4.9411,-4.9767,-4.9942,-5.0057,-5.0302,-5.0589,-5.0567,-5.0332,-5.0927,-5.124,-5.0362,-5.0149,-5.0132,-4.8978,-4.8416,-4.7603,-4.6383,-4.4962,-4.4332,-4.3525,-4.265,-4.249,-4.2326,-4.2126,-4.1351,-4.1102,-4.1298,-4.1341,-4.1475,-4.1725,-4.2138,-4.2328,-4.2402,-4.2608,-4.2739,-4.2892,-4.3446,-4.376,-4.3944,-4.4367,-4.457,-4.457,-4.4497,-4.4294,-4.3944,-4.3816,-4.3558,-4.3209,-4.311,-4.3199,-4.338,-4.3681,-4.3488,-4.3032,-4.3413,-4.3429,-4.3032,-4.2759,-4.265,-4.265,-4.135,-4.0638,-4.0604,-3.9621,-3.8853,-3.842,-3.7803,-3.7253,0.0,0.0,0.0,0.0,0.0,0.0,0.0,0.0,0.0,0.0,0.0,-3.6489,-3.7947,-3.8377,-3.9156,-4.058,-4.0365,-4.063,-4.1789,-4.1856,-4.2021,-4.2469,-4.2816,-4.3164,-4.3595,-4.3645,-4.3645,-4.3645,-4.4241,-4.4998,-4.5723,-4.652,-4.7104,-4.7355,-4.7817,-4.8115,-4.8163,-4.842,-4.869,-4.8832,-4.894,-4.9018,-4.9018,-4.9063,-4.9107,-4.9168,-4.935,-4.9513,-4.9767,-4.9884,-5.0017,-5.0206,-5.0206,-5.0206,-5.0201,-5.0593,-5.0697,-5.0235,-5.0092,-5.0092,-4.9473,-4.9277,-4.8441,-4.7551,-4.6581,-4.5246,-4.391,-4.2622,-4.317,-4.3106,-4.2601,-4.1986,-4.1772,-4.1772,-4.1894,-4.2092,-4.2321,-4.3131,-4.3641,-4.3761,-4.3913,-4.409,-4.4231,-4.4229,-4.4327,-4.4514,-4.4514,-4.4514,-4.4514,-4.4367,-4.4367,-4.453,-4.4229,-4.4155,-4.4219,-4.3501,-4.3347,-4.3881,-4.3687,-4.3645,-4.3645,-4.3645,-4.3645,-4.3611,-4.2816,-4.2386,-4.2336,-4.0994,-4.0233,-4.0199,-3.904,-3.8311,-3.8316,-3.7119,-3.6423,0.0,-3.5744,0.0,0.0,0.0,0.0,0.0,0.0,0.0,0.0,-3.7019,-3.7914,-3.9172,-3.9951,-4.0961,-4.2402,-4.2535,-4.2551,-4.2626,-4.3171,-4.3304,-4.2708,-4.3171,-4.3568,-4.3628,-4.3645,-4.3645,-4.3661,-4.4307,-4.5119,-4.5732,-4.6719,-4.7398,-4.778,-4.8094,-4.8244,-4.8292,-4.8564,-4.8894,-4.8956,-4.9001,-4.9018,-4.9001,-4.9107,-4.9229,-4.9229,-4.9488,-4.9708,-4.9784,-4.9918,-5.0011,-5.0011,-5.0011,-5.0051,-5.0051,-5.0184,-5.0258,-5.0109,-5.0051,-5.0051,-4.9372,-4.8637,-4.8455,-4.7341,-4.5656,-4.5875,-4.5002,-4.346,-4.3379,-4.3089,-4.2571,-4.2488,-4.2502,-4.2642,-4.2704,-4.2888,-4.3224,-4.3932,-4.4368,-4.4489,-4.455,-4.461,-4.4697,-4.4206,-4.4056,-4.4172,-4.4212,-4.4212,-4.4212,-4.4155,-4.4155,-4.4229,-4.4155,-4.4056,-4.3998,0.0,0.0,0.0,-4.3628,-4.3645,-4.3645,-4.3645,-4.3645,-4.3595,-4.2336,0.0,-4.1574,-4.0233,-3.9487,-3.9541,-3.9222,0.0,0.0,0.0,0.0,0.0,0.0,0.0,0.0,0.0,0.0,0.0,-3.7533,-3.803,-3.8609,-3.8791,-3.8974,-3.9272,-3.9951,-4.0961,-4.2369,-4.2535,-4.2708,-4.3168,-4.335,-4.3383,-4.3234,-4.335,-4.3509,-4.3568,-4.3645,-4.3628,-4.3711,-4.4754,-4.5616,-4.5814,-4.7005,-4.7611,-4.7305,-4.7955,-4.845,-4.8627,-4.8798,-4.894,-4.9001,-4.9018,-4.9018,-4.9001,-4.9124,-4.9246,-4.9411,-4.9573,-4.9767,-4.9918,-5.0011,-5.0011,-5.0011,-5.0092,-5.0149,-5.0149,-5.0246,-5.0302,-5.0189,-5.0246,-5.0302,-4.9315,0.0,-4.8365,-4.7556,0.0,-4.6333,-4.5672,-4.4623,-4.412,-4.3444,-4.2587,-4.2571,-4.2634,-4.2775,-4.2775,-4.2945,-4.3284,-4.4007,-4.4278,-4.4191,-4.4522,-4.4627,-4.4414,-4.4064,-4.3956,-4.4097,-4.4097,-4.4097,-4.4097,-4.4056,-4.424,-4.4666,-4.4456,-4.4521,-4.4826,-4.4296,-4.3872,-4.3645,-4.3645,-4.3645,-4.3645,-4.3645,-4.3645,-4.3595,-4.2551,0.0,0.0,0.0,0.0,0.0,0.0,0.0,0.0,-3.8941,0.0,-3.8737,-3.8066,-3.7665,-3.7649,-3.7317,-3.7284,-3.7649,-3.8328,-3.8891,-3.9255,-3.9288,-3.9421,-3.9856,-4.0591,-4.1455,-4.2518,-4.2983,-4.3289,-4.3578,-4.3568,-4.3492,-4.3492,-4.3568,-4.3645,-4.3628,-4.3704,-4.3763,-4.3763,-4.5025,-4.5884,-4.5979,-4.7008,-4.7651,-4.7362,-4.7653,-4.801,-4.8326,-4.8771,-4.9001,-4.9018,-4.9018,-4.9001,-4.9001,-4.9185,-4.935,-4.9488,-4.9666,-4.9877,-4.9993,-5.0011,-5.0011,-5.0011,-5.0109,-5.0189,-5.0246,-5.0285,-5.0397,-5.0285,-5.0359,-5.0397,-4.9126,-4.8652,-4.8143,-4.767,-4.7109,-4.6518,-4.6003,-4.5588,0.0,0.0,0.0,-4.2682,-4.2571,-4.2571,-4.2571,-4.2759,-4.3101,-4.382,-4.4072,-4.3982,-4.4561,-4.4716,-4.4421,-4.4271,-4.4281,-4.4365,-4.429,-4.4232,-4.4348,-4.4072,-4.4388,-4.5097,-4.4964,-4.5078,-4.5623,-4.4844,-4.4237,-4.3905,-4.3701,-4.3568,-4.3645,-4.3645,-4.3645,-4.3645,-4.2899,-4.2237,-4.1624,-4.0928,-4.0216,-3.952,-3.9454,-3.9471,-3.9454,-3.8924,-3.8576,-3.8581,-3.8048,-3.7632,-3.75,-3.75,-3.7748,-3.8361,-3.9073,-3.9421,-3.9288,-3.9404,-3.9823,-4.0553,-4.1394,-4.2182,-4.2898,-4.3515,-4.3898,-4.3839,-4.3645,-4.3568,-4.3568,-4.3704,-4.3763,-4.3704,-4.378,-4.3881,-4.3989,-4.5063,-4.5924,-4.6012,-4.6709,-4.7267,-4.7094,-4.7139,-4.748,-4.7926,-4.8426,-4.8781,-4.8798,-4.8765,-4.8866,-4.8968,-4.9188,-4.9334,-4.9513,-4.9801,-4.9952,-4.9993,-5.0011,-4.9993,-5.0051,-5.0149,-5.0246,-5.0246,-5.0415,-5.0471,-5.0471,-5.0471,-5.0471,-4.8542,-4.7666,-4.7633,-4.6953,-4.6006,-4.6255,-4.6057,-4.5643,-4.4366,-4.367,-4.3524,-4.2909,-4.2571,-4.2571,-4.2571,-4.2696,-4.301,-4.3728,-4.4505,-4.5329,-4.5428,-4.5821,-4.6394,-4.586,-4.5545,-4.5512,-4.4898,-4.4854,-4.521,-4.4653,-4.469,-4.5222,-4.5241,-4.5306,-4.5324,-4.5226,-4.5128,-4.5077,-4.3953,-4.3509,-4.3645,-4.3645,-4.3645,-4.3595,-4.2916,-4.2469,-4.2369,-4.1657,-4.0945,-4.0266,-4.0233,-4.0249,-4.0227,-4.0133,-4.0083,-4.0062,-3.9984,-3.9653,-3.9023,-3.8957,-3.9007,-3.9139,-3.9818,-3.9967,-3.9355,-3.9868,-4.0586,-4.145,-4.2132,-4.2932,-4.3648,-4.3798,-4.3763,-4.3509,-4.3432,-4.3432,-4.3449,-4.3509,-4.3568,-4.378,-4.3898,-4.3956,-4.414,-4.4866,-4.5407,-4.543,-4.6035,-4.6335,-4.6042,-4.6355,-4.7115,-4.775,-4.8003,-4.8071,-4.8071,-4.8071,-4.8308,-4.8917,-4.8779,-4.8821,-4.9402,-4.9801,-4.9993,-5.0011,-4.9993,-5.0051,-5.0132,-5.0285,-5.0397,-5.0492,-5.0675,-5.0764,-5.0782,-5.0764,-5.0764,-4.7818,-4.7216,-4.6887,-4.641,-4.5807,-4.6262,-4.6421,-4.6309,-4.5289,-4.4625,-4.4285,-4.3945,-4.38,-4.3767,-4.3379,-4.328,-4.3518,-4.3844,-4.4281,-4.4844,-4.5239,-4.568,-4.596,-4.5664,-4.5516,-4.5483,-4.517,-4.517,-4.537,-4.5027,-4.5257,-4.5881,-4.6159,-4.6159,-4.5718,-4.5619,-4.544,-4.5163,-4.4669,-4.4269,-4.3904,-4.3965,-4.3828,-4.3525,-4.3221,-4.2932,-4.2518,-4.2187,-4.169,-4.0961,-4.0945,-4.0945,-4.0922,-4.0613,-4.0398,-4.0415,-4.0017,-3.9636,-3.9358,-3.9653,-3.9702,-3.9338,-3.9951,-4.0067,-3.9338,-4.0299,-4.0801,-4.0617,-4.1849,-4.2806,-4.2862,-4.3473,-4.3822,-4.3704,-4.3585,-4.3509,-4.3492,-4.3628,-4.3687,-4.3763,-4.3881,-4.4056,-4.4114,-4.48,-4.5261,-4.5328,-4.5656,-4.5765,-4.5571,-4.5561,-4.5872,-4.6566,-4.7022,-4.7276,-4.731,-4.7293,-4.7657,-4.8378,-4.8439,-4.8719,-4.9436,-4.986,-4.9993,-5.0092,-5.0092,-5.0149,-5.0302,-5.0453,-5.0547,-5.0602,-5.0747,-5.0891,-5.0891,-5.0891,-5.0891,-4.7053,-4.6547,-4.6268,-4.6037,-4.588,-4.6317,-4.6652,-4.6811,-4.6277,-4.5759,-4.5273,-4.4949,-4.4706,-4.4496,-4.3945,-4.3686,-4.3699,-4.3667,-4.3909,-4.4442,-4.4965,-4.5407,-4.5799,-4.5816,-4.5816,-4.5799,-4.5668,-4.5587,-4.5718,-4.5587,-4.5783,-4.6486,-4.6906,-4.6822,-4.6285,-4.6134,-4.5842,-4.5472,-4.5587,-4.5244,-4.4505,-4.4582,-4.4299,-4.3624,-4.368,-4.341,-4.2758,-4.2708,-4.2361,-4.1723,-4.1657,-4.1657,-4.164,-4.116,-4.0862,-4.0796,-4.0166,-3.9603,-3.9338,-3.9967,-4.0133,-3.9587,-4.0199,-4.0244,-3.9665,-4.0568,-4.0912,-4.0113,-4.1466,-4.2349,-4.2272,-4.2989,-4.3698,-4.373,-4.3704,-4.3568,-4.3628,-4.3763,-4.3822,-4.3687,-4.3881,-4.4039,-4.4239,-4.4723,-4.5132,-4.5151,-4.5213,-4.5275,-4.5371,-4.4908,-4.4891,-4.5365,-4.6058,-4.6498,-4.6549,-4.6735,-4.7166,-4.7971,-4.826,-4.8778,-4.9468,-4.986,-5.0034,-5.0189,-5.0228,-5.0285,-5.0397,-5.0492,-5.0585,-5.0657,-5.0801,-5.0891,-5.0891,-5.0891,-5.0891,-4.6296,-4.5804,-4.5835,-4.6022,-4.6096,-4.6262,-4.6545,-4.686,-4.6795,-4.6763,-4.6504,-4.5354,-4.448,-4.3864,-4.38,-4.346,-4.2893,-4.2747,-4.3603,-4.4886,-4.5114,-4.5881,-4.7126,-4.7241,-4.7273,-4.7159,-4.6585,-4.6519,-4.6876,-4.6287,-4.6285,-4.6799,-4.6929,-4.6913,-4.6848,-4.6763,-4.673,-4.675,-4.6767,-4.6253,-4.526,-4.5226,-4.4865,-4.4128,-4.4158,-4.3892,-4.3306,-4.3317,-4.3063,-4.2444,-4.2419,-4.2419,-4.2402,-4.2336,-4.2303,-4.227,-4.1591,-4.068,-3.9504,-4.0022,-4.0382,-4.0332,-4.08,-4.0753,-4.0077,-4.059,-4.0901,-4.0641,-4.1139,-4.1846,-4.241,-4.2774,-4.3099,-4.3486,-4.3568,-4.3645,-4.3645,-4.3628,-4.3704,-4.3898,-4.3881,-4.3998,-4.4212,-4.4417,-4.453,-4.4761,-4.4761,-4.4778,-4.4829,-4.4705,-4.4587,-4.4807,-4.5331,-4.5754,-4.5855,-4.638,-4.6954,-4.7784,-4.8192,-4.8641,-4.9262,-4.9821,-5.0171,-5.002,-5.0198,-5.0331,-5.046,-5.0585,-5.0657,-5.0784,-5.0838,-5.0855,-5.0891,-5.0838,-5.082,-4.5771,-4.5557,-4.5371,-4.5571,-4.6064,-4.6388,-4.6684,-4.6876,-4.6876,-4.6876,-4.6811,-4.6277,-4.5856,-4.5548,-4.5144,-4.4771,-4.448,-4.4107,-4.448,-4.5487,-4.5536,-4.6056,-4.7033,-4.7167,-4.7167,-4.7098,-4.6789,-4.6822,-4.6932,-4.6721,-4.6669,-4.6844,-4.6876,-4.6876,-4.6876,-4.6876,-4.6876,-4.6876,-4.6876,-4.6669,-4.6269,-4.5962,-4.5457,-4.4754,-4.436,-4.4096,-4.3875,-4.3481,-4.3164,-4.302,-4.3046,-4.3046,-4.3164,-4.2767,-4.2535,-4.2485,-4.1823,-4.116,-4.058,-4.113,-4.1123,-4.0265,-4.0745,-4.0623,-3.945,-3.9486,-3.9558,-3.9666,-4.0578,-4.146,-4.1799,-4.2311,-4.2891,-4.3386,-4.3568,-4.3645,-4.3645,-4.3645,-4.3628,-4.3704,-4.3822,-4.3956,-4.408,-4.4226,-4.4378,-4.4536,-4.457,-4.457,-4.457,-4.457,-4.457,-4.4604,-4.4874,-4.501,-4.5094,-4.5246,-4.5936,-4.6618,-4.6954,-4.7466,-4.8941,-4.8951,-4.9014,-4.9667,-4.9844,-4.9953,-4.9994,-5.0484,-5.0801,-5.0838,-5.0434,-5.0294,-5.0785,-5.0504,-5.0399,-4.5156,-4.5311,-4.5075,-4.5336,-4.5992,-4.6317,-4.6668,-4.6807,-4.6892,-4.6876,-4.6876,-4.6876,-4.6876,-4.6779,-4.6131,-4.5613,-4.5225,-4.4933,-4.5046,-4.5532,-4.571,-4.618,-4.6828,-4.6876,-4.6876,-4.6876,-4.6876,-4.6876,-4.6876,-4.6876,-4.6876,-4.6876,-4.6876,-4.6876,-4.6876,-4.6876,-4.6876,-4.6876,-4.6876,-4.6876,-4.688,-4.651,-4.5976,-4.5261,-4.487,-4.4493,-4.4148,-4.3657,-4.3309,-4.3312,-4.3312,-4.3372,-4.3416,-4.2921,-4.2558,-4.2369,-4.189,-4.151,-4.1304,-4.1889,-4.1782,-4.0803,-4.1147,-4.0909,-3.9658,-3.9202,-3.8991,-3.8825,-3.9951,-4.0861,-4.1304,-4.1791,-4.2526,-4.3403,-4.3552,-4.3645,-4.3645,-4.3645,-4.3645,-4.3645,-4.3704,-4.3881,-4.3981,-4.4145,-4.4339,-4.4553,-4.457,-4.457,-4.457,-4.457,-4.457,-4.457,-4.457,-4.4587,-4.4587,-4.4942,-4.5297,-4.5789,-4.6327,-4.7146,-4.8432,-4.8162,-4.808,-4.9044,-4.9309,-4.959,-4.9854,-5.0346,-5.0873,-5.0785,-5.0452,-5.0083,-5.0382,-5.0013,-5.0013,-4.4618,-4.4709,-4.5086,-4.5352,-4.5526,-4.612,-4.6474,-4.6598,-4.6807,-4.6876,-4.6892,-4.6892,-4.6876,-4.6844,-4.618,-4.5111,-4.4123,-4.4609,-4.4917,-4.5079,-4.5565,-4.6196,-4.686,-4.6876,-4.6892,-4.6892,-4.6876,-4.6876,-4.6876,-4.6876,-4.6876,-4.6876,-4.6876,-4.6876,-4.6876,-4.6876,-4.6876,-4.6876,-4.6876,-4.6876,-4.6876,-4.6828,-4.6455,-4.5824,-4.5694,-4.5162,-4.4219,-4.3974,-4.3679,-4.3146,-4.3129,-4.3113,-4.3096,-4.3108,-4.278,-4.2146,-4.1999,-4.1704,-4.1278,-4.1737,-4.1966,-4.195,-4.2255,-4.2134,-4.0668,-4.0339,-3.9794,-3.8642,-3.9495,-4.0263,-4.1025,-4.1428,-4.2047,-4.3251,-4.3568,-4.3585,-4.3645,-4.3645,-4.3645,-4.3645,-4.3645,-4.3747,-4.4056,-4.4212,-4.435,-4.4497,-4.457,-4.457,-4.457,-4.457,-4.457,-4.457,-4.457,-4.457,-4.4637,-4.51,-4.5637,-4.6027,-4.652,-4.7317,-4.7703,-4.8028,-4.8171,-4.8417,-4.8925,-4.9328,-4.9714,-5.0171,-5.0715,-5.082,-5.0697,-5.0504,-5.0346,-4.989,-4.9785,-4.4511,-4.4648,-4.5055,-4.5352,-4.5541,-4.6008,-4.6278,-4.6388,-4.6598,-4.6722,-4.6722,-4.6807,-4.6876,-4.686,-4.6479,-4.6076,-4.5743,-4.5548,-4.5611,-4.5898,-4.5801,-4.6076,-4.6689,-4.6738,-4.6807,-4.6876,-4.6876,-4.6876,-4.6876,-4.6876,-4.6876,-4.6876,-4.6876,-4.6876,-4.6876,-4.6876,-4.6876,-4.6876,-4.6876,-4.6876,-4.6876,-4.6876,-4.6747,-4.6504,-4.605,-4.5581,-4.5129,-4.4286,-4.3781,-4.3646,-4.3284,-4.3007,-4.3113,-4.3096,-4.2998,-4.2752,-4.272,-4.2605,-4.2425,-4.2468,-4.2341,-4.1934,-4.1975,-4.1736,-4.0891,-4.0648,-4.0479,-4.0105,-4.0138,-4.0818,-4.1592,-4.1848,-4.2301,-4.3218,-4.3509,-4.3645,-4.3645,-4.3645,-4.3645,-4.3645,-4.3645,-4.3687,-4.3939,-4.4097,-4.4196,-4.4367,-4.4497,-4.457,-4.457,-4.457,-4.457,-4.457,-4.457,-4.457,-4.457,-4.5309,-4.5881,-4.6084,-4.6525,-4.7489,-4.8058,-4.7194,-4.7074,-4.8242,-4.8714,-4.8977,-4.9363,-5.0241,-5.0733,-5.0855,-5.0733,-5.0399,-5.0434,-4.9556,-4.9363,-4.4496,-4.4663,-4.498,-4.5188,-4.5426,-4.5807,-4.6096,-4.6294,-4.6388,-4.6528,-4.6528,-4.6668,-4.6668,-4.6684,-4.6598,-4.6598,-4.6636,-4.6152,-4.6019,-4.6159,-4.595,-4.6095,-4.6464,-4.6528,-4.6598,-4.6684,-4.6684,-4.6738,-4.6807,-4.6807,-4.6807,-4.6892,-4.6876,-4.6876,-4.6876,-4.6876,-4.6876,-4.6876,-4.6876,-4.6876,-4.6876,-4.6876,-4.6876,-4.6828,-4.6407,-4.6034,-4.5807,-4.4885,-4.4205,-4.3863,-4.3439,-4.3081,-4.2961,-4.2929,-4.2929,-4.2929,-4.2912,-4.2929,-4.2929,-4.2883,-4.2548,-4.2109,-4.1967,-4.1614,-4.0934,-4.0989,-4.0967,-4.0837,-4.1043,-4.1471,-4.2026,-4.244,-4.2861,-4.335,-4.3568,-4.3645,-4.3645,-4.3645,-4.3645,-4.3645,-4.3645,-4.3704,-4.3898,-4.4015,-4.4097,-4.4253,-4.4423,-4.4514,-4.457,-4.457,-4.457,-4.457,-4.457,-4.457,-4.4846,-4.562,-4.6073,-4.6276,-4.6426,-4.7389,-4.7991,-4.6934,-4.6724,-4.7891,-4.8503,-4.8679,-4.9258,-5.0188,-5.061,-5.0785,-5.0364,-4.9925,-4.9556,-4.8942,-4.8766,-4.4572,-4.4648,-4.4799,-4.5055,-4.5278,-4.5662,-4.588,-4.6096,-4.6223,-4.6333,-4.6349,-4.6349,-4.6333,-4.6333,-4.6333,-4.6333,-4.6333,-4.6237,-4.5965,-4.5565,-4.5949,-4.6205,-4.6262,-4.6349,-4.6333,-4.6333,-4.6349,-4.6388,-4.6582,-4.6598,-4.6738,-4.6876,-4.6876,-4.6876,-4.6876,-4.6876,-4.6876,-4.6876,-4.6876,-4.6876,-4.6876,-4.6876,-4.6876,-4.6876,-4.6811,-4.6504,-4.5888,-4.5743,-4.5079,-4.3994,-4.3719,-4.3362,-4.2731,-4.2634,-4.2634,-4.2634,-4.2634,-4.2618,-4.2634,-4.2634,-4.2618,-4.252,-4.2569,-4.2245,-4.1772,-4.1626,-4.1476,-4.1102,-4.1482,-4.1934,-4.2108,-4.2791,-4.335,-4.3552,-4.3568,-4.3645,-4.3645,-4.3645,-4.3645,-4.3645,-4.3645,-4.3704,-4.3822,-4.3898,-4.3998,-4.4196,-4.4394,-4.4525,-4.4637,-4.4671,-4.4637,-4.4587,-4.4722,-4.4874,-4.5377,-4.5971,-4.6271,-4.6503,-4.6618,-4.7059,-4.7939,-4.7543,-4.7143,-4.7979,-4.8398,-4.8608,-4.9205,-5.0066,-5.0557,-5.0627,-5.003,-4.9627,-4.924,-4.8784,-4.8029,-4.4572,-4.4648,-4.4799,-4.5039,-4.5204,-4.5531,-4.5735,-4.588,-4.6096,-4.6168,-4.6152,-4.6278,-4.6262,-4.6278,-4.6223,-4.6152,-4.6168,-4.6008,-4.5881,-4.5817,-4.5562,-4.5706,-4.6088,-4.6168,-4.6223,-4.6278,-4.631,-4.6294,-4.6404,-4.6512,-4.6652,-4.6722,-4.6807,-4.6876,-4.6876,-4.6876,-4.6876,-4.6876,-4.6876,-4.6876,-4.6876,-4.6876,-4.6876,-4.6876,-4.6876,-4.6763,-4.6536,-4.6067,-4.5613,-4.5095,-4.4221,-4.3379,-4.2796,-4.2571,-4.2571,-4.2571,-4.2571,-4.2571,-4.2571,-4.2571,-4.2571,-4.2571,-4.2571,-4.2615,-4.2545,-4.2525,-4.2533,-4.2425,-4.2731,-4.2922,-4.3075,-4.3207,-4.3432,-4.3432,-4.3568,-4.3645,-4.3645,-4.3645,-4.3645,-4.3645,-4.3645,-4.3628,-4.3687,-4.3763,-4.3956,-4.4255,-4.4673,-4.4956,-4.4733,-4.5111,-4.506,-4.4739,-4.501,-4.5382,-4.5852,-4.6601,-4.7284,-4.7261,-4.7133,-4.7596,-4.8268,-4.8066,-4.7736,-4.791,-4.8311,-4.8661,-4.9276,-4.9749,-5.0223,-5.0592,-5.0311,-4.9872,-4.9398,-4.8626,-4.7713,-4.4572,-4.4648,-4.4799,-4.5039,-4.522,-4.5442,-4.5589,-4.5807,-4.5952,-4.5968,-4.6024,-4.608,-4.6136,-4.608,-4.6024,-4.5968,-4.5968,-4.5896,-4.588,-4.592,-4.5611,-4.5556,-4.5936,-4.5952,-4.604,-4.608,-4.6112,-4.6184,-4.6223,-4.6333,-4.6458,-4.6598,-4.6738,-4.6823,-4.6876,-4.6876,-4.6876,-4.6876,-4.6876,-4.6876,-4.6876,-4.6876,-4.6876,-4.6844,-4.6633,-4.6488,-4.6439,-4.5807,-4.5435,-4.5192,-4.4075,-4.3103,-4.2666,-4.2571,-4.2571,-4.2571,-4.2571,-4.2571,-4.2571,-4.2571,-4.2571,-4.2571,-4.2571,-4.2696,-4.2821,-4.3007,-4.3129,-4.3223,-4.3312,-4.3432,-4.3449,-4.3525,-4.3449,-4.3509,-4.3568,-4.3585,-4.3645,-4.3645,-4.3645,-4.3645,-4.3645,-4.3645,-4.3645,-4.3704,-4.4014,-4.4424,-4.4984,-4.5597,-4.5409,-4.5838,-4.5652,-4.5568,-4.5855,-4.6167,-4.6326,-4.718,-4.8206,-4.8123,-4.7842,-4.8566,-4.9347,-4.8201,-4.7543,-4.8207,-4.8732,-4.8399,-4.8872,-4.9327,-4.9728,-4.9992,-5.0065,-4.9276,-4.8434,-4.7854,-4.7099,-4.4572,-4.4648,-4.4799,-4.5039,-4.522,-4.5442,-4.5589,-4.5807,-4.5807,-4.5823,-4.5807,-4.588,-4.5807,-4.5807,-4.5807,-4.5823,-4.5807,-4.5807,-4.5807,-4.5807,-4.5728,-4.5776,-4.5807,-4.5807,-4.588,-4.588,-4.5807,-4.588,-4.6112,-4.6096,-4.6223,-4.6528,-4.6582,-4.6738,-4.6876,-4.6876,-4.6876,-4.6876,-4.6876,-4.686,-4.6763,-4.6763,-4.6698,-4.6649,-4.6164,-4.5905,-4.5824,-4.5273,-4.482,-4.4577,-4.3508,-4.2828,-4.2603,-4.2571,-4.2571,-4.2571,-4.2571,-4.2571,-4.2571,-4.2571,-4.2571,-4.2571,-4.2634,-4.2696,-4.2899,-4.3023,-4.3101,-4.3211,-4.3361,-4.3449,-4.3482,-4.3542,-4.3568,-4.3585,-4.3585,-4.3645,-4.3645,-4.3645,-4.3645,-4.3645,-4.3645,-4.3645,-4.3645,-4.3628,-4.4088,-4.4741,-4.5177,-4.5732,-4.6203,-4.643,-4.6718,-4.6735,-4.6675,-4.6937,-4.708,-4.7926,-4.8871,-4.8706,-4.8323,-4.8691,-4.9382,-4.8288,-4.7177,-4.7945,-4.8435,-4.8207,-4.826,-4.8591,-4.88,-4.8906,-4.8592,-4.7997,-4.7611,-4.7173,-4.672,-4.4648,-4.4799,-4.4874,-4.5114,-4.5368,-4.5515,-4.5589,-4.5807,-4.5807,-4.5807,-4.5807,-4.5807,-4.5807,-4.5807,-4.5807,-4.5807,-4.5807,-4.5807,-4.5807,-4.5807,-4.5807,-4.5807,-4.5807,-4.5807,-4.5807,-4.5807,-4.5807,-4.5823,-4.5896,-4.6024,-4.6223,-4.6404,-4.6512,-4.6668,-4.6876,-4.6876,-4.6876,-4.6876,-4.6876,-4.6669,-4.6232,-4.6131,-4.5824,-4.5386,-4.5629,-4.5743,-4.5726,-4.5144,-4.4512,-4.401,-4.3686,-4.3168,-4.2699,-4.2571,-4.2571,-4.2571,-4.2571,-4.2571,-4.2571,-4.2571,-4.2571,-4.2634,-4.2713,-4.2883,-4.3052,-4.319,-4.3328,-4.3465,-4.3509,-4.3568,-4.3585,-4.3585,-4.3585,-4.3645,-4.3645,-4.3645,-4.3645,-4.3645,-4.3645,-4.3645,-4.3645,-4.3645,-4.3645,-4.3645,-4.3863,-4.4465,-4.5261,-4.5958,-4.6347,-4.7056,-4.7378,-4.7217,-4.7208,-4.7573,-4.8048,-4.8846,-4.9289,-4.9227,-4.8759,-4.8135,-4.8439,-4.801,-4.7073,-4.676,-4.6986,-4.6899,-4.7143,-4.7474,-4.7631,-4.7892,-4.7927,-4.7736,-4.737,-4.6951,-4.655,-4.4814,-4.4874,-4.5098,-4.5278,-4.5515,-4.5604,-4.5662,-4.5807,-4.5807,-4.5807,-4.5807,-4.5807,-4.5807,-4.5807,-4.5807,-4.5807,-4.5807,-4.5807,-4.5807,-4.5807,-4.5807,-4.5807,-4.5807,-4.5807,-4.5807,-4.5807,-4.5807,-4.5807,-4.5807,-4.5952,-4.608,-4.6278,-4.6404,-4.6582,-4.6876,-4.6876,-4.6876,-4.6876,-4.6876,-4.6633,-4.6313,-4.6228,-4.5872,-4.5354,-4.537,-4.5176,-4.4544,-4.4059,-4.367,-4.3346,-4.3233,-4.3055,-4.2636,-4.2571,-4.2571,-4.2571,-4.2571,-4.2571,-4.2571,-4.2571,-4.2634,-4.2696,-4.2837,-4.3007,-4.3174,-4.3372,-4.3432,-4.3568,-4.3568,-4.3645,-4.3645,-4.3645,-4.3645,-4.3645,-4.3645,-4.3645,-4.3645,-4.3645,-4.3645,-4.3645,-4.3645,-4.3645,-4.3645,-4.3645,-4.3946,-4.449,-4.5252,-4.5773,-4.6313,-4.7216,-4.7784,-4.7564,-4.7657,-4.8099,-4.8148,-4.8682,-4.8644,-4.8667,-4.85,-4.7893,-4.7551,-4.7488,-4.7142,-4.6413,-4.6013,-4.584,-4.6257,-4.6586,-4.6742,-4.7037,-4.7368,-4.7317,-4.683,-4.6621,-4.6239,-4.4889,-4.4949,-4.5352,-4.5515,-4.5589,-4.5735,-4.5823,-4.5807,-4.5807,-4.5807,-4.5807,-4.5807,-4.5807,-4.5807,-4.588,-4.5807,-4.5807,-4.588,-4.588,-4.588,-4.5864,-4.588,-4.5896,-4.5807,-4.5807,-4.5807,-4.5807,-4.5864,-4.5864,-4.588,-4.6064,-4.6262,-4.6404,-4.6545,-4.6807,-4.6876,-4.6876,-4.6876,-4.6876,-4.6779,-4.6536,-4.6374,-4.5872,-4.5257,-4.4836,-4.4188,-4.3395,-4.2941,-4.2844,-4.2603,-4.2571,-4.2666,-4.2571,-4.2571,-4.2571,-4.2634,-4.2634,-4.2634,-4.2634,-4.2696,-4.2759,-4.2883,-4.2961,-4.3084,-4.3328,-4.3432,-4.3492,-4.3568,-4.3645,-4.3645,-4.3645,-4.3645,-4.3645,-4.3645,-4.3645,-4.3645,-4.3645,-4.3645,-4.3645,-4.3645,-4.3645,-4.3645,-4.3645,-4.3694,-4.3936,-4.4373,-4.5102,-4.5581,-4.6161,-4.6938,-4.7437,-4.7657,-4.8031,-4.855,-4.8504,-4.8438,-4.8105,-4.7834,-4.7696,-4.7251,-4.6805,-4.674,-4.6932,-4.6637,-4.5892,-4.5581,-4.5684,-4.5944,-4.6081,-4.6151,-4.6428,-4.6239,-4.5979,-4.6014,-4.5754,-4.4964,-4.5145,-4.5368,-4.5589,-4.5735,-4.5807,-4.5807,-4.5807,-4.5807,-4.5807,-4.5807,-4.5807,-4.5807,-4.5807,-4.5952,-4.604,-4.6024,-4.6136,-4.6223,-4.6207,-4.6191,-4.6152,-4.6024,-4.5896,-4.5807,-4.5864,-4.6001,-4.6017,-4.608,-4.6152,-4.6262,-4.6458,-4.6528,-4.6668,-4.6892,-4.6876,-4.6876,-4.6876,-4.6876,-4.6629,-4.614,-4.5708,-4.5144,-4.4415,-4.4075,-4.3913,-4.3733,-4.354,-4.3217,-4.2796,-4.2571,-4.2571,-4.2571,-4.2634,-4.2634,-4.2634,-4.2775,-4.2837,-4.2837,-4.2945,-4.3007,-4.3052,-4.319,-4.3312,-4.3388,-4.3509,-4.3568,-4.3645,-4.3645,-4.3645,-4.3645,-4.3645,-4.3645,-4.3645,-4.3645,-4.3645,-4.3645,-4.3645,-4.3645,-4.3645,-4.3645,-4.3645,-4.3645,-4.3645,-4.3929,-4.434,-4.4842,-4.5353,-4.5925,-4.6549,-4.692,-4.724,-4.768,-4.8036,-4.7866,-4.7636,-4.7245,-4.6973,-4.6835,-4.6734,-4.6217,-4.5975,-4.622,-4.6064,-4.5649,-4.5458,-4.5493,-4.5511,-4.5735,-4.5613,-4.5631,-4.5667,-4.5632,-4.5546,-4.5528,-4.5129,-4.5368,-4.5589,-4.5735,-4.5807,-4.5807,-4.5807,-4.5807,-4.5807,-4.5807,-4.5968,-4.5952,-4.5952,-4.6008,-4.6152,-4.6223,-4.6223,-4.6278,-4.6262,-4.6262,-4.6262,-4.6262,-4.6184,-4.6104,-4.5991,-4.5968,-4.604,-4.6127,-4.6191,-4.6278,-4.6388,-4.6598,-4.6598,-4.6738,-4.6892,-4.6876,-4.6876,-4.6876,-4.6876,-4.673,-4.639,-4.6118,-4.5341,-4.435,-4.3797,-4.3453,-4.3295,-4.3327,-4.3053,-4.2731,-4.2634,-4.2634,-4.2634,-4.2696,-4.2759,-4.2759,-4.2883,-4.3007,-4.299,-4.3052,-4.3174,-4.3235,-4.3372,-4.3432,-4.3492,-4.3568,-4.3585,-4.3645,-4.3645,-4.3645,-4.3645,-4.3645,-4.3645,-4.3645,-4.3645,-4.3645,-4.3645,-4.3645,-4.3645,-4.3645,-4.3645,-4.3645,-4.3645,-4.3645,-4.3813,-4.4248,-4.4315,-4.4791,-4.5189,-4.5777,-4.6231,-4.6618,-4.7056,-4.7221,-4.7086,-4.68,-4.637,-4.6163,-4.6077,-4.601,-4.5751,-4.5579,-4.551,-4.5441,-4.5458,-4.5441,-4.5441,-4.5441,-4.5441,-4.5475,-4.5492,-4.5458,-4.5441,-4.5476,-4.5476,-4.5368,-4.5589,-4.5735,-4.588,-4.588,-4.588,-4.588,-4.588,-4.588,-4.6008,-4.6096,-4.6096,-4.6152,-4.6278,-4.6333,-4.6333,-4.6404,-4.642,-4.6474,-4.6474,-4.6474,-4.6388,-4.6365,-4.6303,-4.6263,-4.6136,-4.6237,-4.6253,-4.6317,-4.6404,-4.6528,-4.6668,-4.6668,-4.6738,-4.6892,-4.6876,-4.6876,-4.6876,-4.6961,-4.7014,-4.702,-4.6873,-4.6075,-4.4756,-4.3695,-4.3013,-4.2873,-4.2873,-4.2791,-4.2634,-4.2634,-4.2618,-4.2696,-4.2775,-4.2916,-4.2883,-4.3052,-4.3113,-4.3174,-4.3174,-4.3312,-4.3432,-4.3432,-4.3492,-4.3552,-4.3568,-4.3628,-4.3645,-4.3645,-4.3645,-4.3645,-4.3645,-4.3645,-4.3645,-4.3645,-4.3645,-4.3645,-4.3645,-4.3645,-4.3645,-4.3645,-4.3645,-4.3645,-4.3645,-4.3855,-4.4048,-4.4056,-4.4246,-4.4676,-4.5015,-4.5575,-4.5823,-4.6191,-4.6405,-4.6315,-4.6301,-4.5855,-4.5768,-4.5577,-4.5508,-4.5405,-4.5458,-4.5441,-4.5441,-4.5441,-4.5441,-4.5441,-4.5441,-4.5441,-4.5441,-4.5441,-4.5441,-4.5441,-4.5441,-4.5441,-4.5442,-4.575,-4.5952,-4.6096,-4.6207,-4.6207,-4.6207,-4.6207,-4.6207,-4.6207,-4.6278,-4.6278,-4.6278,-4.6333,-4.6528,-4.6598,-4.6754,-4.6754,-4.6754,-4.6754,-4.6754,-4.6668,-4.6545,-4.6512,-4.6496,-4.655,-4.6486,-4.6502,-4.6582,-4.6738,-4.6738,-4.6807,-4.6807,-4.6892,-4.6892,-4.6876,-4.6945,-4.6961,-4.703,-4.7167,-4.712,-4.6566,-4.5799,-4.4478,-4.3546,-4.3027,-4.2837,-4.2759,-4.2696,-4.2837,-4.2837,-4.2883,-4.2945,-4.2961,-4.3007,-4.3068,-4.3235,-4.3312,-4.3372,-4.3432,-4.3509,-4.3568,-4.3568,-4.3568,-4.3568,-4.3645,-4.3645,-4.3645,-4.3645,-4.3645,-4.3645,-4.3645,-4.3645,-4.3645,-4.3645,-4.3645,-4.3645,-4.3645,-4.3645,-4.3645,-4.3645,-4.3645,-4.3704,-4.3763,-4.3898,-4.4089,-4.4172,-4.4327,-4.4598,-4.48,-4.5052,-4.5251,-4.5326,-4.5451,-4.5543,-4.5612,-4.5544,-4.5561,-4.551,-4.551,-4.5441,-4.5441,-4.5441,-4.5441,-4.5441,-4.5441,-4.5441,-4.5441,-4.5441,-4.5441,-4.5441,-4.5441,-4.5441,-4.5441,-4.5441,-4.5662,-4.5952,-4.6152,-4.6207,-4.6278,-4.6262,-4.6262,-4.6262,-4.6262,-4.6333,-4.6474,-4.6474,-4.6545,-4.6615,-4.6668,-4.6807,-4.6876,-4.6876,-4.6876,-4.6876,-4.6892,-4.6892,-4.6738,-4.6742,-4.6759,-4.6775,-4.6742,-4.6726,-4.6791,-4.6807,-4.6876,-4.6876,-4.6876,-4.6876,-4.6961,-4.703,-4.703,-4.7115,-4.7251,-4.7386,-4.7306,-4.6454,-4.539,-4.4704,-4.3673,-4.3133,-4.2961,-4.3007,-4.299,-4.299,-4.299,-4.3068,-4.3146,-4.3207,-4.319,-4.3251,-4.3432,-4.3509,-4.3509,-4.3568,-4.3568,-4.3585,-4.3645,-4.3645,-4.3645,-4.3645,-4.3645,-4.3645,-4.3645,-4.3645,-4.3645,-4.3645,-4.3645,-4.3645,-4.3645,-4.3645,-4.3645,-4.3645,-4.3645,-4.3645,-4.3645,-4.3704,-4.3763,-4.3881,-4.3998,-4.4114,-4.427,-4.444,-4.457,-4.472,-4.4886,-4.5049,-4.5228,-4.5282,-4.5371,-4.5371,-4.5441,-4.5441,-4.5441,-4.5441,-4.5441,-4.5441,-4.5441,-4.5441,-4.5441,-4.5441,-4.5441,-4.5441,-4.5441,-4.5441,-4.5441,-4.5441,-4.5441,-4.5441,-4.5441,-4.5929,-4.6032,-4.6141,-4.6276,-4.6372,-4.6228,-4.6276,-4.6372,-4.6404,-4.6528,-4.6668,-4.6668,-4.6738,-4.6892,-4.6892,-4.6876,-4.6876,-4.6876,-4.6876,-4.6876,-4.6876,-4.6892,-4.6892,-4.6876,-4.6876,-4.6876,-4.686,-4.6876,-4.6876,-4.6876,-4.6961,-4.6961,-4.6961,-4.703,-4.703,-4.7183,-4.7251,-4.7335,-4.747,-4.7604,-4.7391,-4.6451,-4.5499,-4.5208,-4.4101,-4.3251,-4.3007,-4.3129,-4.3235,-4.3174,-4.3174,-4.3251,-4.3361,-4.3405,-4.3432,-4.3432,-4.3568,-4.3568,-4.3568,-4.3568,-4.3645,-4.3645,-4.3645,-4.3645,-4.3645,-4.3645,-4.3645,-4.3645,-4.3645,-4.3645,-4.3645,-4.3645,-4.3645,-4.3645,-4.3645,-4.3645,-4.3645,-4.3645,-4.3645,-4.3645,-4.3628,-4.3704,-4.3822,-4.3981,-4.4155,-4.4212,-4.4367,-4.4497,-4.4665,-4.4776,-4.494,-4.5103,-4.5264,-4.5335,-4.5441,-4.5371,-4.5441,-4.5441,-4.5441,-4.5441,-4.5441,-4.5441,-4.5441,-4.5441,-4.5441,-4.5441,-4.5441,-4.5441,-4.5441,-4.5441,-4.5441,-4.5441,-4.5441,-4.5441,-4.5441,-4.5927,-4.5644,-4.5697,-4.612,-4.6613,-4.6112,-4.6257,-4.6759,-4.671,-4.6807,-4.6807,-4.6844,-4.6828,-4.6876,-4.6876,-4.6876,-4.6876,-4.6876,-4.6876,-4.6876,-4.6876,-4.6961,-4.6876,-4.6876,-4.6961,-4.6961,-4.6961,-4.6876,-4.6961,-4.6961,-4.703,-4.7098,-4.7183,-4.7251,-4.7319,-4.7386,-4.7486,-4.747,-4.7588,-4.7721,-4.749,-4.6465,-4.5744,-4.5058,-4.4171,-4.3344,-4.3146,-4.3174,-4.3235,-4.3372,-4.3372,-4.3432,-4.3509,-4.3568,-4.3552,-4.3552,-4.3568,-4.3645,-4.3645,-4.3645,-4.3645,-4.3645,-4.3645,-4.3645,-4.3645,-4.3645,-4.3645,-4.3645,-4.3645,-4.3645,-4.3645,-4.3645,-4.3645,-4.3645,-4.3645,-4.3645,-4.3645,-4.3628,-4.3628,-4.3704,-4.3763,-4.3822,-4.3939,-4.4097,-4.4253,-4.4367,-4.4423,-4.4609,-4.472,-4.4886,-4.5049,-4.5211,-4.5318,-4.5371,-4.5441,-4.5441,-4.5441,-4.5441,-4.5441,-4.5441,-4.5441,-4.5441,-4.5441,-4.5441,-4.5441,-4.5441,-4.5441,-4.5441,-4.5441,-4.5441,-4.5441,-4.5441,-4.5441,-4.5441,-4.5441,-4.5971,-4.4973,-4.5123,-4.5336,-4.5646,-4.5354,-4.5629,-4.6099,-4.5872,-4.6164,-4.6666,-4.6423,-4.6471,-4.6779,-4.6876,-4.6876,-4.6876,-4.6876,-4.6876,-4.6876,-4.6892,-4.6961,-4.703,-4.6961,-4.6961,-4.7183,-4.7115,-4.7183,-4.7183,-4.7167,-4.7167,-4.7335,-4.7403,-4.7403,-4.7537,-4.7588,-4.7588,-4.7654,-4.7787,-4.7853,-4.7589,-4.6878,-4.6038,-4.5483,-4.4525,-4.3805,-4.3394,-4.3372,-4.3432,-4.3509,-4.3509,-4.3568,-4.3568,-4.3568,-4.3568,-4.3568,-4.3568,-4.3645,-4.3645,-4.3645,-4.3645,-4.3645,-4.3645,-4.3645,-4.3645,-4.3645,-4.3645,-4.3645,-4.3645,-4.3645,-4.3645,-4.3645,-4.3645,-4.3645,-4.3645,-4.3645,-4.3645,-4.3628,-4.3628,-4.3763,-4.3881,-4.3998,-4.4039,-4.4212,-4.4367,-4.4497,-4.4609,-4.472,-4.4831,-4.4978,-4.514,-4.53,-4.5371,-4.5388,-4.5441,-4.5441,-4.5441,-4.5441,-4.5441,-4.5441,-4.5441,-4.5441,-4.5423,-4.5423,-4.5423,-4.5423,-4.5441,-4.5441,-4.5441,-4.5441,-4.5441,-4.5441,-4.5441,-4.5441,-4.5441,-4.5591,-4.4605,-4.4899,-4.5046,-4.5046,-4.503,-4.5241,-4.5467,-4.5273,-4.5662,-4.6309,-4.6261,-4.6358,-4.6601,-4.6763,-4.6876,-4.6876,-4.6876,-4.6876,-4.6876,-4.6961,-4.703,-4.7115,-4.7115,-4.7251,-4.747,-4.7319,-4.7403,-4.7454,-4.7437,-4.7437,-4.7537,-4.7537,-4.7604,-4.7671,-4.7721,-4.7787,-4.7787,-4.7935,-4.8001,-4.7852,-4.7143,-4.6399,-4.5643,-4.49,-4.4191,-4.3581,-4.3509,-4.3568,-4.3568,-4.3568,-4.3568,-4.3645,-4.3645,-4.3645,-4.3645,-4.3645,-4.3645,-4.3645,-4.3645,-4.3645,-4.3645,-4.3645,-4.3645,-4.3645,-4.3645,-4.3645,-4.3645,-4.3645,-4.3645,-4.3645,-4.3645,-4.3645,-4.3645,-4.3645,-4.3645,-4.3645,-4.3704,-4.3763,-4.3822,-4.3998,-4.4138,-4.4253,-4.4367,-4.448,-4.4626,-4.4737,-4.4831,-4.4995,-4.5086,-4.5247,-4.5406,-4.5406,-4.5423,-4.5476,-4.5476,-4.5476,-4.5476,-4.5476,-4.5476,-4.5528,-4.5528,-4.5511,-4.5511,-4.5476,-4.5423,-4.5423,-4.5423,-4.5441,-4.5441,-4.5441,-4.5441,-4.5441,-4.5441,-4.5441,-4.4736,-4.4836,-4.5484,-4.5694,-4.5662,-4.5726,-4.537,-4.4998,-4.5435,-4.5613,-4.5824,-4.6407,-4.6326,-4.6212,-4.6601,-4.6876,-4.6876,-4.6876,-4.6961,-4.703,-4.7098,-4.7183,-4.7251,-4.7335,-4.7486,-4.7537,-4.747,-4.7521,-4.7654,-4.7638,-4.7638,-4.7721,-4.7721,-4.7803,-4.7869,-4.7935,-4.7935,-4.7935,-4.8001,-4.8001,-4.7835,-4.7355,-4.6595,-4.5881,-4.5119,-4.4357,-4.3635,-4.3645,-4.3645,-4.3645,-4.3645,-4.3645,-4.3645,-4.3645,-4.3645,-4.3645,-4.3645,-4.3645,-4.3645,-4.3645,-4.3645,-4.3645,-4.3645,-4.3645,-4.3645,-4.3645,-4.3645,-4.3645,-4.3645,-4.3645,-4.3645,-4.3645,-4.3645,-4.3645,-4.3645,-4.3687,-4.3704,-4.3839,-4.3898,-4.3956,-4.4114,-4.4253,-4.448,-4.4592,-4.4609,-4.4737,-4.4886,-4.494,-4.5103,-4.5247,-4.53,-4.5406,-4.5406,-4.5476,-4.5581,-4.5581,-4.5632,-4.5632,-4.5684,-4.5684,-4.5736,-4.5718,-4.5667,-4.5615,-4.5563,-4.5528,-4.5476,-4.5476,-4.5476,-4.5441,-4.5441,-4.5441,-4.5441,-4.5441,-4.5441,-4.5999,-4.6115,-4.6358,-4.5969,-4.5192,-4.5192,-4.5046,-4.4771,-4.4609,-4.4528,-4.4625,-4.5646,-4.6067,-4.605,-4.652,-4.6961,-4.7098,-4.7098,-4.7183,-4.7251,-4.7319,-4.7454,-4.7454,-4.7503,-4.7603,-4.7754,-4.7671,-4.7737,-4.7853,-4.7853,-4.7869,-4.7869,-4.7853,-4.7935,-4.8001,-4.8001,-4.8001,-4.8001,-4.8001,-4.8001,-4.7951,-4.7769,-4.7222,-4.6493,-4.5748,-4.5019,-4.434,-4.3843,-4.3694,-4.3645,-4.3645,-4.3645,-4.3645,-4.3645,-4.3645,-4.3645,-4.3645,-4.3645,-4.3645,-4.3645,-4.3645,-4.3645,-4.3645,-4.3645,-4.3645,-4.3645,-4.3645,-4.3645,-4.3645,-4.3645,-4.3645,-4.3645,-4.3645,-4.3628,-4.3687,-4.3747,-4.3805,-4.3939,-4.4056,-4.4155,-4.4327,-4.448,-4.4648,-4.4814,-4.4776,-4.4848,-4.494,-4.5103,-4.5247,-4.5423,-4.5459,-4.5511,-4.5511,-4.5563,-4.5684,-4.5736,-4.5736,-4.5787,-4.5838,-4.5838,-4.5871,-4.577,-4.5718,-4.5718,-4.5718,-4.5684,-4.5632,-4.5581,-4.5528,-4.5476,-4.5441,-4.5441,-4.5441,-4.5423,-4.5423,-4.6876,-4.6876,-4.6876,-4.6196,-4.516,-4.5095,-4.4836,-4.4415,-4.3962,-4.3719,-4.3816,-4.5194,-4.5875,-4.6069,-4.6757,-4.7167,-4.7267,-4.7335,-4.7403,-4.747,-4.7537,-4.7588,-4.7671,-4.7704,-4.7787,-4.7952,-4.7869,-4.7869,-4.8001,-4.8001,-4.8001,-4.8001,-4.8001,-4.8001,-4.8001,-4.8001,-4.8001,-4.8001,-4.8001,-4.8001,-4.8001,-4.7951,-4.7603,-4.6858,-4.6096,-4.5367,-4.4622,-4.4026,-4.3661,-4.3645,-4.3645,-4.3645,-4.3645,-4.3645,-4.3645,-4.3645,-4.3645,-4.3645,-4.3645,-4.3645,-4.3645,-4.3645,-4.3645,-4.3645,-4.3645,-4.3645,-4.3645,-4.3645,-4.3645,-4.3645,-4.3645,-4.3628,-4.3704,-4.3763,-4.3864,-4.3923,-4.4039,-4.4097,-4.4253,-4.435,-4.4519,-4.4759,-4.4869,-4.4978,-4.5069,-4.5086,-4.5247,-4.5353,-4.5511,-4.5563,-4.5632,-4.5632,-4.5684,-4.5718,-4.5821,-4.5871,-4.5889,-4.599,-4.599,-4.5972,-4.5972,-4.5922,-4.5871,-4.5871,-4.5871,-4.5838,-4.5787,-4.5684,-4.5581,-4.5476,-4.5476,-4.5476,-4.5528,-4.5528,-4.5528,-4.6811,-4.6876,-4.6844,-4.6407,-4.5743,-4.5775,-4.5079,-4.4123,-4.38,-4.3719,-4.3881,-4.5276,-4.5994,-4.6189,-4.691,-4.737,-4.747,-4.747,-4.7537,-4.7604,-4.7671,-4.7721,-4.7787,-4.7869,-4.7886,-4.8017,-4.7935,-4.7935,-4.8001,-4.8001,-4.8001,-4.8001,-4.8001,-4.8001,-4.8001,-4.8001,-4.8001,-4.8001,-4.8001,-4.8001,-4.8001,-4.8001,-4.7603,-4.709,-4.6212,-4.545,-4.492,-4.4059,-4.3678,-4.3645,-4.3645,-4.3645,-4.3645,-4.3645,-4.3645,-4.3645,-4.3645,-4.3645,-4.3645,-4.3645,-4.3645,-4.3645,-4.3645,-4.3645,-4.3645,-4.3645,-4.3645,-4.3645,-4.3628,-4.3628,-4.3687,-4.3747,-4.3839,-4.3956,-4.4056,-4.4155,-4.4196,-4.4367,-4.4519,-4.4575,-4.4814,-4.5032,-4.5086,-4.5194,-4.5319,-4.5441,-4.5494,-4.5615,-4.5718,-4.5718,-4.5736,-4.5787,-4.5787,-4.5871,-4.5972,-4.5972,-4.6023,-4.614,-4.614,-4.6122,-4.6073,-4.6073,-4.6073,-4.6023,-4.5972,-4.5972,-4.5871,-4.577,-4.5736,-4.5632,-4.5632,-4.5632,-4.5615,-4.5615,-4.5615,-4.55,-4.5532,-4.5969,-4.6018,-4.5888,-4.6326,-4.5937,-4.503,-4.4188,-4.3719,-4.3897,-4.4968,-4.5408,-4.5816,-4.6814,-4.7521,-4.7654,-4.7654,-4.7654,-4.7803,-4.7853,-4.7919,-4.7919,-4.7935,-4.8001,-4.8001,-4.8001,-4.8001,-4.8001,-4.8001,-4.8001,-4.8001,-4.8001,-4.8001,-4.8001,-4.8001,-4.8001,-4.8001,-4.8001,-4.8001,-4.8001,-4.7984,-4.7852,-4.752,-4.646,-4.5698,-4.5284,-4.4324,-4.3744,-4.3661,-4.3645,-4.3645,-4.3645,-4.3645,-4.3645,-4.3628,-4.3628,-4.3645,-4.3645,-4.3704,-4.3687,-4.3687,-4.3628,-4.3628,-4.3628,-4.3645,-4.3645,-4.3645,-4.3763,-4.3763,-4.3822,-4.3939,-4.4056,-4.4114,-4.4212,-4.4293,-4.4463,-4.4703,-4.4869,-4.4923,-4.5032,-4.5247,-4.5353,-4.5459,-4.5546,-4.5649,-4.577,-4.5718,-4.5821,-4.5821,-4.5821,-4.5871,-4.5922,-4.6023,-4.6073,-4.6073,-4.6073,-4.6189,-4.6189,-4.6189,-4.6189,-4.6189,-4.6189,-4.6122,-4.6122,-4.6105,-4.6023,-4.5972,-4.5871,-4.577,-4.5787,-4.5736,-4.5736,-4.577,-4.5736,-4.4804,-4.4852,-4.5273,-4.5664,-4.5923,-4.6377,-4.5986,-4.5079,-4.4432,-4.4156,-4.4399,-4.5196,-4.5849,-4.6323,-4.7078,-4.7654,-4.7787,-4.7787,-4.7836,-4.8001,-4.8001,-4.8001,-4.8001,-4.8001,-4.8001,-4.8001,-4.8001,-4.8001,-4.8001,-4.8001,-4.8001,-4.8001,-4.8001,-4.8001,-4.8001,-4.8001,-4.8001,-4.8001,-4.8001,-4.8001,-4.8001,-4.8001,-4.8001,-4.7653,-4.6924,-4.6063,-4.5533,-4.4771,-4.386,-4.3744,-4.3645,-4.3645,-4.3645,-4.3645,-4.3645,-4.3628,-4.3687,-4.3704,-4.3763,-4.3881,-4.3881,-4.3805,-4.3789,-4.3805,-4.3747,-4.3805,-4.3805,-4.3805,-4.3881,-4.3939,-4.3998,-4.4097,-4.4186,-4.4243,-4.4412,-4.4546,-4.4487,-4.4705,-4.5086,-4.514,-4.5247,-4.5459,-4.5615,-4.5718,-4.5821,-4.5871,-4.599,-4.5922,-4.5922,-4.5922,-4.5922,-4.5972,-4.6073,-4.6122,-4.6122,-4.6189,-4.6189,-4.6189,-4.6189,-4.6189,-4.6189,-4.6189,-4.6189,-4.6189,-4.6172,-4.6172,-4.6172,-4.6122,-4.6023,-4.5972,-4.5972,-4.5922,-4.5889,-4.5889,-4.5889,-4.4706,-4.4739,-4.4755,-4.5244,-4.5929,-4.5861,-4.5113,-4.3897,-4.4659,-4.4968,-4.5147,-4.606,-4.6519,-4.7342,-4.777,-4.7852,-4.7852,-4.7934,-4.8001,-4.7984,-4.8001,-4.8001,-4.7968,-4.7901,-4.7885,-4.7934,-4.7918,-4.7802,-4.7951,-4.7802,-4.7802,-4.7951,-4.7852,-4.7901,-4.7934,-4.8001,-4.8001,-4.8001,-4.8001,-4.8001,-4.8001,-4.8001,-4.8001,-4.7719,-4.7173,-4.6411,-4.5765,-4.4986,-4.4257,-4.3893,-4.3645,-4.3645,-4.3645,-4.3645,-4.3645,-4.3645,-4.3822,-4.3898,-4.3898,-4.4056,-4.4097,-4.4097,-4.4155,-4.4097,-4.4039,-4.3981,-4.3981,-4.4039,-4.4097,-4.4097,-4.4155,-4.4249,-4.4299,-4.4427,-4.461,-4.4565,-4.4416,-4.4643,-4.5163,-4.5389,-4.5511,-4.5667,-4.5787,-4.5871,-4.5922,-4.6023,-4.6073,-4.609,-4.609,-4.609,-4.609,-4.614,-4.6189,-4.6189,-4.6189,-4.6189,-4.6189,-4.6189,-4.6189,-4.6189,-4.6189,-4.6189,-4.6189,-4.6189,-4.6189,-4.6189,-4.6172,-4.6189,-4.6189,-4.614,-4.6073,-4.6073,-4.604,-4.609,-4.609,-4.3472,-4.3504,-4.4119,-4.4509,-4.4818,-4.5261,-4.5098,-4.4659,-4.4591,-4.472,-4.5243,-4.573,-4.6203,-4.6319,-4.7422,-4.757,-4.7603,-4.7703,-4.7951,-4.7968,-4.7917,-4.7951,-4.7819,-4.7537,-4.7587,-4.7603,-4.757,-4.7421,-4.7703,-4.7554,-4.757,-4.7885,-4.7438,-4.7537,-4.7785,-4.7984,-4.7984,-4.8001,-4.8001,-4.8001,-4.8001,-4.8001,-4.8001,-4.7802,-4.7371,-4.6626,-4.5831,-4.5152,-4.4423,-4.3777,-4.3661,-4.3645,-4.3645,-4.3628,-4.3628,-4.3822,-4.3939,-4.4056,-4.4056,-4.4155,-4.431,-4.4423,-4.448,-4.4384,-4.4212,-4.4155,-4.4155,-4.4212,-4.431,-4.4367,-4.4412,-4.4461,-4.449,-4.4565,-4.4744,-4.4747,-4.4629,-4.501,-4.5442,-4.5598,-4.5718,-4.5821,-4.5939,-4.5972,-4.6023,-4.6105,-4.6172,-4.6172,-4.6189,-4.6189,-4.6189,-4.6189,-4.6189,-4.6189,-4.6189,-4.6189,-4.6189,-4.6189,-4.6189,-4.6189,-4.6189,-4.6189,-4.6189,-4.6239,-4.6221,-4.6239,-4.6189,-4.6189,-4.6189,-4.6189,-4.6189,-4.6189,-4.6189,-4.6189,-4.6189,-4.2521,-4.2598,-4.2806,-4.2949,-4.3129,-4.4154,-4.4388,-4.4033,-4.447,-4.491,-4.5025,-4.5511,-4.5838,-4.6317,-4.7156,-4.7467,-4.7118,-4.7448,-4.7628,-4.7248,-4.768,-4.7351,-4.7168,-4.7071,-4.7054,-4.7038,-4.6825,-4.6626,-4.699,-4.6891,-4.6825,-4.7388,-4.6825,-4.7007,-4.7322,-4.752,-4.7736,-4.7885,-4.8001,-4.8001,-4.8001,-4.8001,-4.8001,-4.7918,-4.7454,-4.6825,-4.5897,-4.5251,-4.4638,-4.3827,-4.3645,-4.3628,-4.3704,-4.3704,-4.3687,-4.3805,-4.3981,-4.4097,-4.4196,-4.4367,-4.4519,-4.4686,-4.4797,-4.4759,-4.4665,-4.4609,-4.4497,-4.4497,-4.4592,-4.4669,-4.4678,-4.4685,-4.4656,-4.4696,-4.4801,-4.4958,-4.5148,-4.5425,-4.5631,-4.5803,-4.5922,-4.5972,-4.6023,-4.6073,-4.6073,-4.6122,-4.6172,-4.6189,-4.6189,-4.6189,-4.6189,-4.6189,-4.6189,-4.6189,-4.6189,-4.6189,-4.6189,-4.6189,-4.6189,-4.6189,-4.6189,-4.6239,-4.6239,-4.6221,-4.627,-4.627,-4.6221,-4.6239,-4.6189,-4.6189,-4.6189,-4.6189,-4.6189,-4.6189,-4.6189,-4.2032,-4.1999,-4.1377,-4.1402,-4.1402,-4.297,-4.3228,-4.2581,-4.4438,-4.5082,-4.4814,-4.5338,-4.6009,-4.6371,-4.6882,-4.6945,-4.6824,-4.702,-4.697,-4.6347,-4.7216,-4.7137,-4.6741,-4.6679,-4.6695,-4.6155,-4.586,-4.6005,-4.5926,-4.6105,-4.642,-4.6806,-4.6291,-4.6454,-4.7101,-4.7201,-4.7533,-4.8081,-4.8148,-4.8131,-4.8049,-4.8001,-4.8001,-4.8049,-4.7817,-4.7403,-4.6275,-4.5595,-4.5119,-4.4158,-4.3687,-4.3747,-4.3822,-4.3998,-4.3864,-4.3906,-4.4138,-4.431,-4.448,-4.4648,-4.4831,-4.4923,-4.5015,-4.5069,-4.5032,-4.4923,-4.4814,-4.4814,-4.4906,-4.4739,-4.471,-4.4593,-4.4526,-4.4596,-4.4699,-4.5025,-4.5387,-4.5629,-4.5887,-4.6023,-4.6073,-4.6122,-4.6122,-4.6122,-4.6122,-4.6189,-4.6189,-4.6189,-4.6189,-4.6189,-4.6189,-4.6189,-4.6189,-4.6189,-4.6189,-4.6189,-4.6189,-4.6189,-4.6189,-4.6189,-4.6189,-4.6239,-4.6221,-4.6319,-4.6398,-4.6319,-4.6319,-4.627,-4.6221,-4.6189,-4.6189,-4.6189,-4.6189,-4.6189,-4.6189,-4.2242,-4.2242,-4.2162,-4.2154,-4.2253,-4.3188,-4.3138,-4.2576,-4.3721,-4.4511,-4.4793,-4.5009,-4.5296,-4.5657,-4.6285,-4.633,-4.5962,-4.6391,-4.6441,-4.6474,-4.6893,-4.6659,-4.6296,-4.6296,-4.6252,-4.6085,-4.5818,-4.559,-4.6091,-4.6191,-4.6185,-4.6391,-4.6041,-4.6257,-4.7058,-4.7124,-4.7491,-4.8244,-4.8325,-4.8308,-4.8244,-4.8163,-4.8163,-4.8275,-4.8206,-4.7491,-4.6557,-4.6007,-4.5147,-4.4181,-4.3989,-4.3981,-4.4056,-4.4253,-4.4293,-4.4333,-4.4519,-4.4631,-4.4759,-4.4869,-4.5032,-4.514,-4.523,-4.5283,-4.5283,-4.5194,-4.5194,-4.5177,-4.5074,-4.4886,-4.4681,-4.4578,-4.4508,-4.4609,-4.4674,-4.5105,-4.5503,-4.583,-4.6122,-4.6122,-4.6172,-4.6172,-4.6189,-4.6189,-4.6189,-4.6189,-4.6189,-4.6189,-4.6189,-4.6189,-4.6189,-4.6189,-4.6189,-4.6189,-4.6189,-4.6189,-4.6189,-4.6189,-4.6189,-4.6189,-4.6239,-4.6319,-4.6398,-4.6495,-4.6542,-4.6447,-4.6398,-4.6332,-4.6301,-4.627,-4.6189,-4.6189,-4.6189,-4.6189,-4.6189,-4.1362,-4.1477,-4.1517,-4.1756,-4.2137,-4.2816,-4.2883,-4.2651,-4.314,-4.3781,-4.4456,-4.454,-4.4616,-4.4792,-4.5503,-4.5747,-4.5387,-4.5816,-4.5723,-4.5858,-4.6236,-4.5891,-4.5807,-4.5824,-4.5436,-4.5303,-4.5118,-4.5219,-4.6257,-4.5671,-4.5386,-4.5972,-4.5922,-4.5905,-4.6742,-4.701,-4.7529,-4.8423,-4.85,-4.8547,-4.8483,-4.842,-4.8356,-4.8467,-4.8031,-4.73,-4.6581,-4.5945,-4.5093,-4.4374,-4.4172,-4.4253,-4.4367,-4.448,-4.4575,-4.4575,-4.4686,-4.4923,-4.5032,-4.514,-4.5247,-4.5336,-4.5494,-4.5598,-4.5701,-4.5615,-4.5511,-4.5494,-4.5494,-4.5338,-4.5113,-4.4973,-4.5109,-4.5244,-4.5067,-4.5134,-4.5653,-4.6052,-4.6189,-4.6189,-4.6172,-4.6172,-4.6189,-4.6189,-4.6189,-4.6189,-4.6189,-4.6189,-4.6189,-4.6239,-4.6189,-4.6239,-4.6221,-4.6239,-4.6189,-4.6189,-4.6189,-4.6189,-4.6239,-4.627,-4.6319,-4.6495,-4.6572,-4.6637,-4.6637,-4.6607,-4.6542,-4.6477,-4.6381,-4.635,-4.627,-4.6189,-4.6189,-4.6239,-4.6189,-4.0282,-4.0249,-4.0464,-4.0862,-4.1508,-4.2336,-4.2634,-4.2535,-4.2675,-4.3089,-4.3638,-4.3762,-4.3839,-4.4348,-4.4682,-4.5026,-4.531,-4.5402,-4.5088,-4.5094,-4.551,-4.5368,-4.5226,-4.5101,-4.4976,-4.4699,-4.4447,-4.5354,-4.6462,-4.5572,-4.5219,-4.568,-4.5446,-4.501,-4.5949,-4.6535,-4.7105,-4.8228,-4.8707,-4.8781,-4.8781,-4.8736,-4.861,-4.8312,-4.7843,-4.7105,-4.6384,-4.5647,-4.4943,-4.4572,-4.4406,-4.4519,-4.4631,-4.4759,-4.4742,-4.4797,-4.4869,-4.5032,-4.514,-4.53,-4.5459,-4.5615,-4.577,-4.5871,-4.5972,-4.5955,-4.5854,-4.5854,-4.5871,-4.5681,-4.5455,-4.5349,-4.5469,-4.5638,-4.5408,-4.5285,-4.5772,-4.6189,-4.6189,-4.6189,-4.6189,-4.6189,-4.6189,-4.6189,-4.6189,-4.6189,-4.6239,-4.6189,-4.6189,-4.6239,-4.6221,-4.627,-4.627,-4.627,-4.6239,-4.6239,-4.6239,-4.627,-4.6319,-4.635,-4.6447,-4.659,-4.6684,-4.6731,-4.6731,-4.6749,-4.6702,-4.659,-4.6495,-4.6447,-4.635,-4.627,-4.627,-4.627,-4.6239,-4.0381,-3.957,-4.0713,-4.1293,-4.1624,-4.2833,-4.3065,-4.2568,-4.2806,-4.2735,-4.2468,-4.2677,-4.3175,-4.4406,-4.385,-4.4125,-4.4885,-4.4925,-4.4823,-4.4739,-4.5246,-4.506,-4.4868,-4.5014,-4.5037,-4.4778,-4.4525,-4.4811,-4.5967,-4.5597,-4.5132,-4.5048,-4.5571,-4.5689,-4.6414,-4.6887,-4.7342,-4.836,-4.894,-4.9073,-4.9006,-4.8978,-4.894,-4.8652,-4.823,-4.7349,-4.6548,-4.59,-4.5216,-4.479,-4.4686,-4.4852,-4.4906,-4.5032,-4.5015,-4.5069,-4.514,-4.5264,-4.5423,-4.5511,-4.5667,-4.5803,-4.5955,-4.6105,-4.6204,-4.6235,-4.6186,-4.6154,-4.6084,-4.5708,-4.5431,-4.5239,-4.5288,-4.5562,-4.5523,-4.5768,-4.6119,-4.6189,-4.6189,-4.6189,-4.6189,-4.6189,-4.6221,-4.6239,-4.6239,-4.6239,-4.6288,-4.6288,-4.627,-4.627,-4.627,-4.6319,-4.635,-4.627,-4.6221,-4.627,-4.627,-4.6319,-4.6416,-4.6512,-4.659,-4.6684,-4.6778,-4.6824,-4.6842,-4.6906,-4.6795,-4.6684,-4.6637,-4.659,-4.6447,-4.6398,-4.635,-4.6301,-4.6319]}]]